[[{"header":{"parameterUnit":"m.s-1","parameterCategory":1,"la1":31.0,"la2":29.5877,"lo1":-88.7671,"lo2":-86.6584,"dy":0.0162,"dx":0.0185,"nx":115,"ny":88,"refTime":"2024-02-18T06:00:00:Z","depth":0,"parameterNumber":2,"parameterNumberName":"U-component_of_WINDS"},"data":[0.0,0.0,0.0,0.0,0.0,0.0,0.0,0.0,0.0,0.0,0.0,0.0,0.0,0.0,0.0,0.0,0.0,0.0,0.0,0.0,0.0,0.0,0.0,0.0,0.0,0.0,0.0,0.0,0.0,0.0,0.0,0.0,0.0,0.0,0.0,0.0,0.0,0.0,0.0,0.0,0.0,0.0,0.0,0.0,0.0,0.0,0.0,0.0,0.0,0.0,0.0,0.0,0.0,0.0,0.0,0.0,0.0,0.0,0.0,0.0,0.0,0.0,0.0,0.0,0.0,0.0,0.0,0.0,0.0,0.0,0.0,0.0,0.0,0.0,0.0,0.0,0.0,0.0,0.0,0.0,0.0,0.0,0.0,0.0,0.0,0.0,0.0,0.0,0.0,0.0,0.0,0.0,0.0,0.0,0.0,0.0,0.0,0.0,0.0,0.0,0.0,0.0,0.0,0.0,0.0,0.0,0.0,0.0,0.0,0.0,0.0,0.0,0.0,0.0,0.0,0.0,0.0,0.0,0.0,0.0,0.0,0.0,0.0,0.0,0.0,0.0,0.0,0.0,0.0,0.0,0.0,0.0,0.0,0.0,0.0,0.0,0.0,0.0,0.0,0.0,0.0,0.0,0.0,0.0,0.0,0.0,0.0,0.0,0.0,0.0,0.0,0.0,0.0,0.0,0.0,0.0,0.0,0.0,0.0,0.0,0.0,0.0,0.0,0.0,0.0,0.0,0.0,0.0,0.0,0.0,0.0,0.0,0.0,0.0,0.0,0.0,0.0,0.0,0.0,0.0,0.0,0.0,0.0,0.0,0.0,0.0,0.0,0.0,0.0,0.0,0.0,0.0,0.0,0.0,0.0,0.0,0.0,0.0,0.0,0.0,0.0,0.0,0.0,0.0,0.0,0.0,0.0,0.0,0.0,0.0,0.0,0.0,0.0,0.0,0.0,0.0,0.0,0.0,0.0,0.0,0.0,0.0,0.0,0.0,0.0,0.0,0.0,0.0,0.0,0.0,0.0,0.0,0.0,0.0,0.0,0.0,0.0,0.0,0.0,0.0,0.0,0.0,0.0,0.0,0.0,0.0,0.0,0.0,0.0,0.0,0.0,0.0,0.0,0.0,0.0,0.0,0.0,0.0,0.0,0.0,0.0,0.0,0.0,0.0,0.0,0.0,0.0,0.0,0.0,0.0,0.0,0.0,0.0,0.0,0.0,0.0,0.0,0.0,0.0,0.0,0.0,0.0,0.0,0.0,0.0,0.0,0.0,0.0,0.0,0.0,0.0,0.0,0.0,0.0,0.0,0.0,0.0,0.0,0.0,0.0,0.0,0.0,0.0,0.0,0.0,0.0,0.0,0.0,0.0,0.0,0.0,0.0,0.0,0.0,0.0,0.0,0.0,0.0,0.0,0.0,0.0,0.0,0.0,0.0,0.0,0.0,0.0,0.0,0.0,0.0,0.0,0.0,0.0,0.0,0.0,0.0,0.0,0.0,0.0,0.0,0.0,0.0,0.0,0.0,0.0,0.0,0.0,0.0,0.0,0.0,0.0,0.0,0.0,0.0,0.0,0.0,0.0,0.0,0.0,0.0,0.0,0.0,0.0,0.0,0.0,0.0,0.0,0.0,0.0,0.0,0.0,0.0,0.0,0.0,0.0,0.0,0.0,0.0,0.0,0.0,0.0,0.0,0.0,0.0,0.0,0.0,0.0,0.0,0.0,0.0,0.0,0.0,0.0,0.0,0.0,0.0,0.0,0.0,0.0,0.0,0.0,0.0,0.0,0.0,0.0,0.0,0.0,0.0,0.0,0.0,0.0,0.0,0.0,0.0,0.0,0.0,0.0,0.0,0.0,0.0,0.0,0.0,0.0,0.0,0.0,0.0,0.0,0.0,0.0,0.0,0.0,0.0,0.0,0.0,0.0,0.0,0.0,0.0,0.0,0.0,0.0,0.0,0.0,0.0,0.0,0.0,0.0,0.0,0.0,0.0,0.0,0.0,0.0,0.0,0.0,0.0,0.0,0.0,0.0,0.0,0.0,0.0,0.0,0.0,0.0,0.0,0.0,0.0,0.0,0.0,0.0,0.0,0.0,0.0,0.0,0.0,0.0,0.0,0.0,0.0,0.0,0.0,0.0,0.0,0.0,0.0,0.0,0.0,0.0,0.0,0.0,0.0,0.0,0.0,0.0,0.0,0.0,0.0,0.0,0.0,0.0,0.0,0.0,0.0,0.0,0.0,0.0,0.0,0.0,0.0,0.0,0.0,0.0,0.0,0.0,0.0,0.0,0.0,0.0,0.0,0.0,0.0,0.0,0.0,0.0,0.0,0.0,0.0,0.0,0.0,0.0,0.0,0.0,0.0,0.0,0.0,0.0,0.0,0.0,0.0,0.0,0.0,0.0,0.0,0.0,0.0,0.0,0.0,0.0,0.0,0.0,0.0,0.0,0.0,0.0,0.0,0.0,0.0,0.0,0.0,0.0,0.0,0.0,0.0,0.0,0.0,0.0,0.0,0.0,0.0,0.0,0.0,0.0,0.0,0.0,0.0,0.0,0.0,0.0,0.0,0.0,0.0,0.0,0.0,0.0,0.0,0.0,0.0,0.0,0.0,0.0,0.0,0.0,0.0,0.0,0.0,0.0,0.0,0.0,0.0,0.0,0.0,0.0,0.0,0.0,0.0,0.0,0.0,0.0,0.0,0.0,0.0,0.0,0.0,0.0,0.0,0.0,0.0,0.0,0.0,0.0,0.0,0.0,0.0,0.0,0.0,0.0,0.0,0.0,0.0,0.0,0.0,0.0,0.0,0.0,0.0,0.0,0.0,0.0,0.0,0.0,0.0,0.0,0.0,0.0,0.0,0.0,0.0,0.0,0.0,0.0,0.0,0.0,0.0,0.0,0.0,0.0,0.0,0.0,0.0,0.0,0.0,0.0,0.0,0.0,0.0,0.0,0.0,0.0,0.0,0.0,0.0,0.0,0.0,0.0,0.0,0.0,0.0,0.0,0.0,0.0,0.0,0.0,0.0,0.0,0.0,0.0,0.0,0.0,0.0,0.0,0.0,0.0,0.0,0.0,0.0,0.0,0.0,0.0,0.0,0.0,0.0,0.0,0.0,0.0,0.0,0.0,0.0,0.0,0.0,0.0,0.0,0.0,0.0,0.0,0.0,0.0,0.0,0.0,0.0,0.0,0.0,0.0,0.0,0.0,0.0,0.0,0.0,0.0,0.0,0.0,0.0,0.0,0.0,0.0,0.0,0.0,0.0,0.0,0.0,0.0,0.0,0.0,0.0,0.0,0.0,0.0,0.0,0.0,0.0,0.0,0.0,0.0,0.0,0.0,0.0,0.0,0.0,0.0,0.0,0.0,0.0,0.0,0.0,0.0,0.0,0.0,0.0,0.0,0.0,0.0,0.0,0.0,0.0,0.0,0.0,0.0,0.0,0.0,0.0,0.0,0.0,0.0,0.0,0.0,0.0,0.0,0.0,0.0,0.0,0.0,0.0,0.0,0.0,0.0,0.0,0.0,0.0,0.0,0.0,0.0,0.0,0.0,0.0,0.0,0.0,0.0,0.0,0.0,0.0,0.0,0.0,0.0,0.0,0.0,0.0,0.0,0.0,0.0,0.0,0.0,0.0,0.0,0.0,0.0,0.0,0.0,0.0,0.0,0.0,0.0,0.0,0.0,0.0,0.0,0.0,0.0,0.0,0.0,0.0,0.0,0.0,0.0,0.0,0.0,0.0,0.0,0.0,0.0,0.0,0.0,0.0,0.0,0.0,0.0,0.0,0.0,0.0,0.0,0.0,0.0,0.0,0.0,0.0,0.0,0.0,0.0,0.0,0.0,0.0,0.0,0.0,0.0,0.0,0.0,0.0,0.0,0.0,0.0,0.0,0.0,0.0,0.0,0.0,0.0,0.0,0.0,0.0,0.0,0.0,0.0,0.0,0.0,0.0,0.0,0.0,0.0,0.0,0.0,0.0,0.0,0.0,0.0,0.0,0.0,0.0,0.0,0.0,0.0,0.0,0.0,0.0,0.0,0.0,0.0,0.0,0.0,0.0,0.0,0.0,0.0,0.0,0.0,0.0,0.0,0.0,0.0,0.0,0.0,0.0,0.0,0.0,0.0,0.0,0.0,0.0,0.0,0.0,0.0,0.0,0.0,0.0,0.0,0.0,0.0,0.0,0.0,0.0,0.0,0.0,0.0,0.0,0.0,0.0,0.0,0.0,0.0,0.0,0.0,0.0,0.0,0.0,0.0,0.0,0.0,0.0,4.6475,0.0,0.0,0.0,0.0,0.0,0.0,0.0,0.0,0.0,0.0,0.0,0.0,0.0,0.0,0.0,0.0,0.0,0.0,0.0,0.0,0.0,0.0,0.0,0.0,0.0,0.0,0.0,0.0,0.0,0.0,0.0,0.0,0.0,0.0,0.0,0.0,0.0,0.0,0.0,0.0,0.0,0.0,0.0,0.0,0.0,0.0,0.0,0.0,0.0,0.0,0.0,0.0,0.0,0.0,0.0,0.0,0.0,0.0,0.0,0.0,0.0,0.0,0.0,0.0,0.0,0.0,0.0,0.0,0.0,0.0,0.0,0.0,0.0,0.0,0.0,0.0,0.0,0.0,0.0,0.0,0.0,0.0,0.0,0.0,0.0,0.0,0.0,0.0,0.0,0.0,0.0,0.0,0.0,0.0,0.0,0.0,0.0,0.0,0.0,0.0,0.0,0.0,0.0,0.0,0.0,0.0,0.0,0.0,0.0,0.0,4.9212,4.7692,4.9433,4.9313,4.7004,0.0,0.0,0.0,0.0,0.0,0.0,0.0,0.0,0.0,0.0,0.0,0.0,0.0,0.0,0.0,0.0,0.0,0.0,0.0,0.0,0.0,0.0,0.0,0.0,0.0,0.0,0.0,0.0,0.0,0.0,0.0,0.0,0.0,0.0,0.0,0.0,0.0,0.0,0.0,0.0,0.0,0.0,0.0,0.0,0.0,0.0,0.0,0.0,0.0,0.0,0.0,0.0,0.0,0.0,0.0,0.0,0.0,0.0,0.0,0.0,0.0,0.0,0.0,0.0,0.0,0.0,0.0,0.0,0.0,0.0,0.0,0.0,0.0,0.0,0.0,0.0,0.0,0.0,0.0,0.0,0.0,0.0,0.0,0.0,0.0,0.0,0.0,0.0,0.0,0.0,0.0,0.0,0.0,0.0,0.0,0.0,0.0,0.0,0.0,0.0,0.0,0.0,0.0,0.0,0.0,0.0,0.0,0.0,0.0,0.0,0.0,0.0,5.0339,5.0108,4.8124,0.0,0.0,0.0,0.0,0.0,0.0,0.0,0.0,0.0,0.0,0.0,0.0,0.0,0.0,0.0,0.0,0.0,0.0,0.0,0.0,0.0,0.0,0.0,0.0,0.0,0.0,0.0,0.0,0.0,0.0,0.0,0.0,0.0,0.0,0.0,0.0,0.0,0.0,0.0,0.0,0.0,0.0,0.0,0.0,0.0,0.0,0.0,0.0,0.0,0.0,0.0,0.0,0.0,0.0,0.0,0.0,0.0,0.0,0.0,0.0,0.0,0.0,0.0,0.0,0.0,0.0,0.0,0.0,0.0,0.0,0.0,0.0,0.0,0.0,0.0,0.0,0.0,0.0,0.0,0.0,0.0,0.0,0.0,0.0,0.0,0.0,0.0,0.0,0.0,0.0,0.0,0.0,0.0,0.0,0.0,0.0,0.0,0.0,0.0,0.0,0.0,0.0,0.0,0.0,0.0,0.0,0.0,0.0,0.0,0.0,4.9264,4.98,5.0721,0.0,4.9608,0.0,0.0,0.0,0.0,0.0,0.0,0.0,0.0,0.0,0.0,0.0,0.0,0.0,0.0,0.0,0.0,0.0,0.0,0.0,0.0,0.0,0.0,0.0,0.0,0.0,0.0,0.0,0.0,0.0,0.0,0.0,0.0,0.0,0.0,0.0,0.0,0.0,0.0,0.0,0.0,0.0,0.0,0.0,0.0,0.0,0.0,0.0,0.0,0.0,0.0,0.0,0.0,0.0,0.0,0.0,0.0,0.0,0.0,0.0,0.0,0.0,0.0,0.0,0.0,0.0,0.0,0.0,0.0,0.0,0.0,0.0,0.0,0.0,0.0,0.0,0.0,0.0,0.0,0.0,0.0,0.0,0.0,0.0,0.0,0.0,0.0,0.0,0.0,0.0,0.0,0.0,0.0,0.0,0.0,0.0,0.0,0.0,0.0,0.0,0.0,0.0,0.0,0.0,0.0,0.0,0.0,0.0,0.0,0.0,0.0,5.0936,5.2193,5.1578,5.0386,0.0,0.0,0.0,0.0,0.0,0.0,0.0,0.0,0.0,0.0,0.0,0.0,0.0,0.0,0.0,0.0,0.0,0.0,0.0,0.0,0.0,0.0,0.0,0.0,0.0,0.0,0.0,0.0,0.0,0.0,0.0,0.0,0.0,0.0,0.0,0.0,0.0,0.0,0.0,0.0,0.0,0.0,0.0,0.0,0.0,0.0,0.0,0.0,0.0,0.0,0.0,0.0,0.0,0.0,0.0,0.0,0.0,0.0,0.0,0.0,0.0,0.0,0.0,0.0,0.0,0.0,0.0,0.0,0.0,0.0,0.0,0.0,0.0,0.0,0.0,0.0,0.0,0.0,0.0,0.0,0.0,0.0,0.0,0.0,0.0,0.0,0.0,0.0,0.0,0.0,0.0,0.0,0.0,0.0,0.0,0.0,0.0,0.0,0.0,0.0,0.0,0.0,0.0,0.0,0.0,0.0,0.0,0.0,0.0,0.0,5.227,5.2839,5.4244,5.195,4.9951,4.8554,0.0,0.0,0.0,0.0,0.0,0.0,0.0,0.0,0.0,0.0,0.0,0.0,0.0,0.0,0.0,0.0,0.0,0.0,0.0,0.0,0.0,0.0,0.0,0.0,0.0,0.0,0.0,0.0,0.0,0.0,0.0,0.0,0.0,0.0,0.0,0.0,0.0,0.0,0.0,0.0,0.0,0.0,0.0,0.0,0.0,0.0,0.0,0.0,0.0,0.0,0.0,0.0,0.0,0.0,0.0,0.0,0.0,0.0,0.0,0.0,0.0,0.0,0.0,0.0,0.0,0.0,0.0,0.0,0.0,0.0,0.0,0.0,0.0,0.0,0.0,0.0,0.0,0.0,0.0,0.0,0.0,0.0,0.0,0.0,0.0,0.0,0.0,0.0,0.0,0.0,0.0,0.0,0.0,0.0,0.0,0.0,0.0,0.0,0.0,0.0,0.0,0.0,0.0,0.0,0.0,0.0,0.0,0.0,5.5677,5.4432,5.4471,5.5865,5.1439,4.9561,0.0,0.0,0.0,0.0,0.0,0.0,0.0,0.0,0.0,0.0,0.0,0.0,0.0,0.0,0.0,0.0,0.0,0.0,0.0,0.0,0.0,0.0,0.0,0.0,0.0,0.0,0.0,0.0,0.0,0.0,0.0,0.0,0.0,0.0,0.0,0.0,0.0,0.0,0.0,0.0,0.0,0.0,0.0,0.0,0.0,0.0,0.0,0.0,0.0,0.0,0.0,0.0,0.0,0.0,0.0,0.0,0.0,0.0,0.0,0.0,0.0,0.0,0.0,0.0,0.0,0.0,0.0,0.0,0.0,0.0,0.0,0.0,0.0,0.0,0.0,0.0,0.0,0.0,0.0,0.0,0.0,0.0,0.0,0.0,0.0,0.0,0.0,0.0,0.0,0.0,0.0,0.0,0.0,0.0,0.0,0.0,0.0,0.0,0.0,0.0,0.0,0.0,0.0,0.0,0.0,0.0,0.0,0.0,0.0,5.3059,5.3499,5.399,5.4543,5.1791,5.0574,0.0,0.0,0.0,0.0,0.0,0.0,0.0,0.0,0.0,0.0,0.0,0.0,0.0,0.0,0.0,0.0,0.0,0.0,0.0,0.0,0.0,0.0,0.0,0.0,0.0,0.0,0.0,0.0,0.0,0.0,0.0,0.0,0.0,0.0,0.0,0.0,0.0,0.0,0.0,0.0,0.0,0.0,0.0,0.0,0.0,0.0,0.0,0.0,0.0,0.0,0.0,0.0,0.0,0.0,0.0,0.0,0.0,0.0,0.0,0.0,0.0,0.0,0.0,0.0,0.0,0.0,0.0,0.0,0.0,0.0,0.0,0.0,0.0,0.0,0.0,0.0,0.0,0.0,0.0,0.0,0.0,0.0,0.0,0.0,0.0,0.0,0.0,0.0,0.0,0.0,0.0,0.0,0.0,0.0,0.0,0.0,0.0,0.0,0.0,0.0,0.0,0.0,0.0,0.0,0.0,0.0,0.0,0.0,0.0,5.2969,0.0,5.5027,5.4486,5.2889,5.1486,0.0,0.0,0.0,0.0,0.0,0.0,0.0,0.0,0.0,0.0,0.0,0.0,0.0,0.0,0.0,0.0,0.0,0.0,0.0,0.0,0.0,0.0,0.0,0.0,0.0,0.0,0.0,0.0,0.0,0.0,0.0,0.0,0.0,0.0,0.0,0.0,0.0,0.0,0.0,0.0,0.0,0.0,0.0,0.0,0.0,0.0,0.0,0.0,0.0,0.0,0.0,0.0,0.0,0.0,0.0,0.0,0.0,0.0,0.0,0.0,0.0,0.0,0.0,0.0,0.0,0.0,0.0,0.0,0.0,0.0,0.0,0.0,0.0,0.0,0.0,0.0,0.0,0.0,0.0,0.0,0.0,0.0,0.0,0.0,0.0,0.0,0.0,0.0,0.0,0.0,0.0,0.0,0.0,0.0,0.0,0.0,0.0,0.0,0.0,0.0,0.0,0.0,0.0,0.0,0.0,0.0,0.0,0.0,5.3028,5.6099,5.7707,5.7637,5.6174,5.4542,5.2194,0.0,0.0,0.0,0.0,0.0,0.0,0.0,0.0,0.0,0.0,0.0,0.0,0.0,0.0,0.0,0.0,0.0,0.0,0.0,0.0,0.0,0.0,0.0,0.0,0.0,0.0,0.0,0.0,0.0,0.0,0.0,0.0,0.0,0.0,0.0,0.0,0.0,0.0,0.0,0.0,0.0,0.0,0.0,0.0,0.0,0.0,0.0,0.0,0.0,0.0,0.0,0.0,0.0,0.0,0.0,0.0,0.0,0.0,0.0,0.0,0.0,0.0,0.0,0.0,0.0,0.0,0.0,0.0,0.0,0.0,0.0,0.0,0.0,0.0,0.0,0.0,0.0,0.0,0.0,0.0,0.0,0.0,0.0,0.0,0.0,0.0,0.0,0.0,0.0,0.0,0.0,0.0,0.0,0.0,0.0,0.0,0.0,0.0,0.0,0.0,0.0,0.0,0.0,0.0,0.0,0.0,0.0,0.0,0.0,5.4614,5.6042,5.7486,5.8599,5.4833,5.3042,0.0,0.0,0.0,0.0,0.0,0.0,0.0,0.0,0.0,0.0,0.0,0.0,0.0,0.0,0.0,0.0,0.0,0.0,0.0,0.0,0.0,0.0,0.0,0.0,0.0,0.0,0.0,0.0,0.0,0.0,0.0,0.0,0.0,0.0,0.0,0.0,0.0,0.0,0.0,0.0,0.0,0.0,0.0,0.0,0.0,0.0,0.0,0.0,0.0,0.0,0.0,0.0,0.0,0.0,0.0,0.0,0.0,0.0,0.0,0.0,0.0,0.0,0.0,0.0,0.0,0.0,0.0,0.0,0.0,0.0,0.0,0.0,0.0,0.0,0.0,0.0,0.0,0.0,0.0,0.0,0.0,0.0,0.0,0.0,0.0,0.0,0.0,0.0,0.0,0.0,0.0,0.0,0.0,0.0,0.0,0.0,0.0,0.0,0.0,0.0,0.0,0.0,0.0,0.0,0.0,0.0,0.0,0.0,0.0,5.6228,5.7556,5.8683,5.9425,5.6318,5.4493,5.4189,0.0,0.0,0.0,0.0,0.0,0.0,0.0,0.0,0.0,0.0,0.0,0.0,0.0,0.0,0.0,0.0,0.0,0.0,0.0,0.0,0.0,0.0,0.0,0.0,0.0,0.0,0.0,0.0,0.0,0.0,0.0,0.0,0.0,0.0,0.0,0.0,0.0,0.0,0.0,0.0,0.0,0.0,0.0,0.0,0.0,0.0,0.0,0.0,0.0,0.0,0.0,0.0,0.0,0.0,0.0,0.0,0.0,0.0,0.0,0.0,0.0,0.0,0.0,0.0,0.0,0.0,0.0,0.0,0.0,0.0,0.0,0.0,0.0,0.0,0.0,0.0,0.0,0.0,0.0,0.0,0.0,0.0,0.0,0.0,0.0,0.0,0.0,0.0,0.0,0.0,0.0,0.0,0.0,0.0,0.0,0.0,0.0,0.0,0.0,0.0,0.0,0.0,0.0,0.0,0.0,0.0,0.0,0.0,6.0208,6.1753,6.1393,5.9044,5.8736,5.6408,0.0,0.0,0.0,0.0,0.0,0.0,0.0,0.0,0.0,0.0,0.0,0.0,0.0,0.0,0.0,0.0,0.0,0.0,0.0,0.0,0.0,0.0,0.0,0.0,0.0,0.0,0.0,0.0,0.0,0.0,0.0,0.0,0.0,0.0,0.0,0.0,0.0,0.0,0.0,0.0,0.0,0.0,0.0,0.0,0.0,0.0,0.0,0.0,0.0,0.0,0.0,0.0,0.0,0.0,0.0,0.0,0.0,0.0,0.0,0.0,0.0,0.0,0.0,0.0,0.0,0.0,0.0,0.0,0.0,0.0,0.0,0.0,0.0,0.0,0.0,0.0,0.0,0.0,0.0,0.0,0.0,0.0,0.0,0.0,0.0,0.0,0.0,0.0,0.0,0.0,0.0,0.0,0.0,0.0,0.0,0.0,0.0,0.0,0.0,0.0,0.0,0.0,0.0,0.0,0.0,0.0,0.0,0.0,0.0,6.2808,6.4961,6.5174,6.3248,6.0279,5.7765,0.0,0.0,0.0,0.0,0.0,0.0,0.0,0.0,0.0,0.0,0.0,0.0,0.0,0.0,0.0,0.0,0.0,0.0,0.0,0.0,0.0,0.0,0.0,0.0,0.0,0.0,0.0,0.0,0.0,0.0,0.0,0.0,0.0,0.0,0.0,0.0,0.0,0.0,0.0,0.0,0.0,0.0,0.0,0.0,0.0,0.0,0.0,0.0,0.0,0.0,0.0,0.0,0.0,0.0,0.0,0.0,0.0,0.0,0.0,0.0,0.0,0.0,0.0,0.0,0.0,0.0,0.0,0.0,0.0,0.0,0.0,0.0,0.0,0.0,0.0,0.0,0.0,0.0,0.0,0.0,0.0,0.0,0.0,0.0,0.0,0.0,0.0,0.0,0.0,0.0,0.0,0.0,0.0,0.0,0.0,0.0,0.0,0.0,0.0,0.0,0.0,0.0,0.0,0.0,0.0,0.0,0.0,0.0,6.286,6.4759,6.6852,6.7274,6.5913,6.2909,5.9864,0.0,0.0,0.0,0.0,0.0,0.0,0.0,0.0,0.0,0.0,0.0,0.0,0.0,0.0,0.0,0.0,0.0,0.0,0.0,0.0,0.0,0.0,0.0,0.0,0.0,0.0,0.0,0.0,0.0,0.0,0.0,0.0,0.0,0.0,0.0,0.0,0.0,0.0,0.0,0.0,0.0,0.0,0.0,0.0,0.0,0.0,0.0,0.0,0.0,0.0,0.0,0.0,0.0,0.0,0.0,0.0,0.0,0.0,0.0,0.0,0.0,0.0,0.0,0.0,0.0,0.0,0.0,0.0,0.0,0.0,0.0,0.0,0.0,0.0,0.0,0.0,0.0,0.0,0.0,0.0,0.0,0.0,0.0,0.0,0.0,0.0,0.0,0.0,0.0,0.0,0.0,0.0,0.0,0.0,0.0,0.0,0.0,0.0,0.0,0.0,0.0,0.0,0.0,0.0,0.0,0.0,0.0,0.0,6.4002,6.6329,6.8058,6.8468,6.7477,6.5731,6.2042,0.0,0.0,0.0,0.0,0.0,0.0,0.0,0.0,0.0,0.0,0.0,0.0,0.0,0.0,0.0,0.0,0.0,0.0,0.0,0.0,0.0,0.0,0.0,0.0,0.0,0.0,0.0,0.0,0.0,0.0,0.0,0.0,0.0,0.0,0.0,0.0,0.0,0.0,0.0,0.0,0.0,0.0,0.0,0.0,0.0,0.0,0.0,0.0,0.0,0.0,0.0,0.0,0.0,0.0,0.0,0.0,0.0,0.0,0.0,0.0,0.0,0.0,0.0,0.0,0.0,0.0,0.0,0.0,0.0,0.0,0.0,0.0,0.0,0.0,0.0,0.0,0.0,0.0,0.0,0.0,0.0,0.0,0.0,0.0,0.0,0.0,0.0,0.0,0.0,0.0,0.0,0.0,0.0,0.0,0.0,0.0,0.0,0.0,0.0,0.0,0.0,0.0,0.0,0.0,0.0,0.0,0.0,0.0,6.5708,6.8045,6.9693,7.0158,6.9236,6.5768,6.1731,0.0,0.0,0.0,0.0,0.0,0.0,0.0,0.0,0.0,0.0,0.0,0.0,0.0,0.0,0.0,0.0,0.0,0.0,0.0,0.0,0.0,0.0,0.0,0.0,0.0,0.0,0.0,0.0,0.0,0.0,0.0,0.0,0.0,0.0,0.0,0.0,0.0,0.0,0.0,0.0,0.0,0.0,0.0,0.0,0.0,0.0,0.0,0.0,5.193,0.0,0.0,0.0,0.0,0.0,0.0,0.0,0.0,0.0,0.0,0.0,0.0,0.0,0.0,0.0,0.0,0.0,0.0,0.0,0.0,0.0,0.0,0.0,0.0,0.0,0.0,0.0,0.0,0.0,0.0,0.0,0.0,0.0,0.0,0.0,0.0,0.0,0.0,0.0,0.0,0.0,0.0,0.0,0.0,0.0,0.0,0.0,0.0,0.0,0.0,0.0,0.0,0.0,0.0,0.0,0.0,0.0,0.0,0.0,6.7205,6.9137,7.0784,7.1061,6.9727,6.6779,6.31,0.0,0.0,0.0,0.0,0.0,0.0,0.0,0.0,0.0,0.0,0.0,0.0,0.0,0.0,0.0,0.0,0.0,0.0,0.0,0.0,0.0,0.0,0.0,0.0,0.0,0.0,0.0,0.0,0.0,0.0,0.0,0.0,0.0,0.0,0.0,0.0,0.0,0.0,0.0,0.0,0.0,0.0,0.0,0.0,0.0,0.0,0.0,0.0,0.0,0.0,0.0,0.0,0.0,0.0,0.0,0.0,0.0,0.0,0.0,0.0,0.0,0.0,0.0,0.0,0.0,0.0,0.0,0.0,0.0,0.0,0.0,0.0,0.0,0.0,0.0,0.0,0.0,0.0,0.0,0.0,0.0,0.0,0.0,0.0,0.0,0.0,0.0,0.0,0.0,0.0,0.0,0.0,0.0,0.0,0.0,0.0,0.0,0.0,0.0,0.0,0.0,0.0,0.0,0.0,0.0,0.0,0.0,6.5921,6.844,7.0303,7.1757,7.1727,7.0132,6.8226,6.5016,6.0371,0.0,0.0,0.0,0.0,0.0,0.0,0.0,0.0,0.0,0.0,0.0,0.0,0.0,0.0,0.0,0.0,0.0,0.0,0.0,0.0,0.0,0.0,0.0,0.0,0.0,0.0,0.0,0.0,0.0,0.0,0.0,0.0,0.0,0.0,0.0,0.0,0.0,0.0,5.0709,5.2028,0.0,0.0,0.0,0.0,0.0,0.0,0.0,0.0,5.3021,0.0,0.0,0.0,0.0,0.0,0.0,0.0,0.0,0.0,0.0,0.0,0.0,0.0,0.0,0.0,0.0,0.0,0.0,0.0,0.0,0.0,0.0,0.0,0.0,0.0,0.0,0.0,0.0,0.0,0.0,0.0,0.0,0.0,0.0,0.0,0.0,0.0,0.0,0.0,0.0,0.0,0.0,0.0,0.0,0.0,0.0,0.0,0.0,0.0,0.0,0.0,0.0,0.0,0.0,0.0,0.0,6.4528,6.6524,6.9268,7.2804,7.314,7.2832,7.175,6.9423,6.6197,6.2054,0.0,0.0,0.0,0.0,0.0,0.0,0.0,0.0,0.0,0.0,0.0,0.0,0.0,0.0,0.0,0.0,0.0,0.0,0.0,0.0,0.0,0.0,0.0,0.0,0.0,0.0,0.0,0.0,0.0,0.0,0.0,0.0,0.0,0.0,0.0,0.0,0.0,0.0,0.0,5.4967,5.5588,0.0,0.0,0.0,0.0,0.0,0.0,0.0,0.0,5.2828,0.0,0.0,0.0,0.0,0.0,0.0,0.0,0.0,0.0,0.0,0.0,0.0,0.0,0.0,0.0,0.0,0.0,0.0,0.0,0.0,0.0,0.0,0.0,0.0,0.0,0.0,0.0,0.0,0.0,0.0,0.0,0.0,0.0,0.0,0.0,0.0,0.0,0.0,0.0,0.0,0.0,0.0,0.0,0.0,0.0,0.0,0.0,0.0,0.0,0.0,0.0,0.0,0.0,0.0,0.0,6.4979,6.829,7.1093,7.3305,7.3836,7.3435,7.205,6.9161,6.6109,0.0,0.0,0.0,0.0,0.0,0.0,0.0,0.0,0.0,0.0,0.0,0.0,0.0,0.0,0.0,0.0,0.0,0.0,0.0,0.0,0.0,0.0,0.0,0.0,0.0,0.0,0.0,0.0,0.0,0.0,0.0,0.0,0.0,0.0,0.0,0.0,0.0,0.0,0.0,0.0,5.5871,5.6458,5.7253,0.0,0.0,0.0,0.0,0.0,0.0,5.4084,5.3687,0.0,0.0,0.0,0.0,0.0,0.0,0.0,0.0,0.0,0.0,0.0,0.0,0.0,0.0,0.0,0.0,0.0,0.0,0.0,0.0,0.0,0.0,0.0,0.0,0.0,0.0,0.0,0.0,0.0,0.0,0.0,0.0,0.0,0.0,0.0,0.0,0.0,0.0,0.0,0.0,0.0,0.0,0.0,0.0,0.0,0.0,0.0,0.0,0.0,0.0,0.0,0.0,0.0,0.0,0.0,6.5476,6.9789,7.2614,7.3784,7.4482,7.3975,7.2178,6.9199,6.6285,0.0,0.0,0.0,0.0,0.0,0.0,0.0,0.0,0.0,0.0,0.0,0.0,0.0,0.0,0.0,0.0,0.0,0.0,0.0,0.0,0.0,0.0,0.0,0.0,0.0,0.0,0.0,0.0,0.0,0.0,0.0,0.0,0.0,0.0,0.0,0.0,0.0,0.0,0.0,0.0,0.0,5.7485,5.8427,5.8143,0.0,0.0,0.0,0.0,5.55,5.5671,0.0,0.0,0.0,0.0,0.0,0.0,0.0,0.0,0.0,0.0,0.0,0.0,0.0,0.0,0.0,0.0,0.0,0.0,0.0,0.0,0.0,0.0,0.0,0.0,0.0,0.0,0.0,0.0,0.0,0.0,0.0,0.0,0.0,0.0,0.0,0.0,0.0,0.0,0.0,0.0,0.0,0.0,0.0,0.0,0.0,0.0,0.0,0.0,0.0,0.0,0.0,0.0,0.0,0.0,0.0,0.0,6.7135,6.978,7.2601,7.543,7.5517,7.4667,7.2984,7.1021,6.7853,0.0,0.0,0.0,0.0,0.0,0.0,0.0,0.0,0.0,0.0,0.0,0.0,0.0,0.0,0.0,0.0,0.0,0.0,0.0,0.0,0.0,0.0,0.0,0.0,0.0,0.0,0.0,0.0,0.0,0.0,0.0,0.0,0.0,0.0,0.0,0.0,0.0,0.0,0.0,0.0,0.0,6.0097,5.8715,5.9184,5.9296,0.0,0.0,5.7253,5.7892,5.8523,0.0,0.0,0.0,0.0,0.0,0.0,0.0,0.0,0.0,0.0,0.0,0.0,0.0,0.0,0.0,0.0,0.0,0.0,0.0,0.0,0.0,0.0,0.0,0.0,0.0,0.0,0.0,0.0,0.0,0.0,0.0,0.0,0.0,0.0,0.0,0.0,0.0,0.0,0.0,0.0,0.0,0.0,0.0,0.0,0.0,0.0,0.0,0.0,0.0,0.0,0.0,0.0,0.0,0.0,0.0,6.4579,6.7292,7.1021,7.3774,7.5489,7.5482,7.4616,7.2923,7.0281,6.7059,0.0,0.0,0.0,0.0,0.0,0.0,0.0,0.0,0.0,0.0,0.0,0.0,0.0,0.0,0.0,0.0,0.0,0.0,0.0,0.0,0.0,0.0,0.0,0.0,0.0,0.0,0.0,0.0,0.0,0.0,0.0,0.0,0.0,0.0,0.0,0.0,0.0,0.0,0.0,0.0,0.0,0.0,5.9972,6.1153,0.0,0.0,0.0,6.001,5.9773,0.0,0.0,0.0,0.0,0.0,0.0,0.0,0.0,0.0,0.0,0.0,0.0,0.0,0.0,0.0,0.0,0.0,0.0,0.0,0.0,0.0,0.0,0.0,0.0,0.0,0.0,0.0,0.0,0.0,0.0,0.0,0.0,0.0,0.0,0.0,0.0,0.0,0.0,0.0,0.0,0.0,0.0,0.0,0.0,0.0,0.0,0.0,0.0,0.0,0.0,0.0,0.0,0.0,0.0,0.0,0.0,0.0,6.7739,7.2261,7.4952,7.5591,7.5574,7.4637,7.2698,6.9793,0.0,0.0,0.0,0.0,0.0,0.0,0.0,0.0,0.0,0.0,0.0,0.0,0.0,0.0,0.0,0.0,0.0,0.0,0.0,0.0,0.0,0.0,0.0,0.0,0.0,0.0,0.0,0.0,0.0,0.0,0.0,0.0,0.0,0.0,0.0,0.0,0.0,0.0,0.0,0.0,0.0,0.0,6.1404,6.1476,6.3065,6.3763,0.0,0.0,6.2472,6.1756,6.1957,6.0774,0.0,0.0,0.0,0.0,0.0,0.0,0.0,0.0,0.0,0.0,0.0,0.0,0.0,0.0,0.0,0.0,0.0,0.0,0.0,0.0,0.0,0.0,0.0,0.0,0.0,0.0,0.0,0.0,0.0,0.0,0.0,0.0,0.0,0.0,0.0,0.0,0.0,0.0,0.0,0.0,0.0,0.0,0.0,0.0,0.0,0.0,0.0,0.0,0.0,0.0,0.0,0.0,0.0,0.0,0.0,6.9416,7.3266,7.5665,7.6452,7.6319,7.5039,7.2598,7.0733,6.7604,0.0,0.0,0.0,0.0,0.0,0.0,0.0,0.0,0.0,0.0,0.0,0.0,0.0,0.0,0.0,0.0,0.0,0.0,0.0,0.0,0.0,0.0,0.0,0.0,0.0,0.0,0.0,0.0,0.0,0.0,0.0,0.0,0.0,0.0,0.0,0.0,0.0,0.0,0.0,0.0,0.0,6.2444,6.3039,6.4525,6.5746,0.0,0.0,6.4028,6.3989,6.5154,6.4239,5.8737,0.0,0.0,0.0,0.0,0.0,0.0,0.0,0.0,0.0,0.0,0.0,0.0,0.0,0.0,0.0,0.0,0.0,0.0,0.0,0.0,0.0,0.0,0.0,0.0,0.0,0.0,0.0,0.0,0.0,0.0,0.0,0.0,0.0,0.0,0.0,0.0,0.0,0.0,0.0,0.0,0.0,0.0,0.0,0.0,0.0,0.0,0.0,0.0,0.0,0.0,0.0,0.0,0.0,6.6563,6.9294,7.3628,7.5936,7.61,7.6011,7.4822,7.2353,7.0643,6.7806,0.0,0.0,0.0,0.0,0.0,0.0,0.0,0.0,0.0,0.0,0.0,0.0,0.0,0.0,0.0,0.0,0.0,0.0,0.0,0.0,0.0,0.0,0.0,0.0,0.0,0.0,0.0,0.0,4.7114,4.8225,4.9216,0.0,0.0,0.0,0.0,0.0,0.0,0.0,0.0,0.0,0.0,6.3742,6.4409,6.5658,0.0,0.0,6.6308,6.5876,6.5813,6.495,6.3006,5.9166,5.6821,0.0,0.0,0.0,0.0,0.0,0.0,0.0,0.0,0.0,0.0,0.0,0.0,0.0,0.0,0.0,0.0,0.0,0.0,0.0,0.0,0.0,0.0,0.0,0.0,0.0,0.0,0.0,0.0,0.0,0.0,0.0,0.0,0.0,0.0,0.0,0.0,0.0,0.0,0.0,0.0,0.0,0.0,0.0,0.0,0.0,0.0,0.0,0.0,0.0,0.0,0.0,0.0,6.7097,6.9439,7.4065,7.6454,7.6519,7.6298,7.4989,7.2631,7.0972,6.8134,0.0,0.0,0.0,0.0,0.0,0.0,0.0,0.0,0.0,0.0,0.0,0.0,0.0,0.0,0.0,0.0,0.0,0.0,0.0,0.0,0.0,0.0,0.0,0.0,0.0,0.0,0.0,0.0,4.8824,4.9744,5.0985,0.0,0.0,0.0,0.0,0.0,0.0,0.0,0.0,0.0,0.0,6.492,6.5925,6.6939,6.7578,6.7464,6.7288,6.7067,6.6707,6.5062,6.2816,5.9764,0.0,0.0,0.0,0.0,0.0,0.0,0.0,0.0,0.0,0.0,0.0,0.0,0.0,0.0,0.0,0.0,0.0,0.0,0.0,0.0,0.0,0.0,0.0,0.0,0.0,0.0,0.0,0.0,0.0,0.0,5.0952,0.0,0.0,0.0,0.0,0.0,0.0,0.0,0.0,0.0,0.0,0.0,0.0,0.0,0.0,0.0,0.0,0.0,0.0,0.0,0.0,0.0,0.0,0.0,7.0177,7.4662,7.7361,7.8049,7.7384,7.5811,7.3447,7.1801,6.8717,6.3936,0.0,0.0,0.0,0.0,0.0,0.0,0.0,0.0,0.0,0.0,0.0,0.0,0.0,0.0,0.0,0.0,0.0,0.0,0.0,0.0,0.0,0.0,0.0,0.0,0.0,0.0,4.9122,4.9231,5.0013,0.0,0.0,0.0,0.0,0.0,0.0,0.0,0.0,0.0,0.0,6.3782,6.5908,6.7602,6.847,6.8891,6.8921,6.8168,6.7284,6.648,6.6112,6.468,0.0,0.0,0.0,0.0,0.0,0.0,0.0,0.0,0.0,0.0,0.0,0.0,0.0,0.0,0.0,0.0,0.0,0.0,0.0,0.0,0.0,0.0,0.0,0.0,0.0,0.0,0.0,5.2045,5.2154,0.0,0.0,0.0,0.0,0.0,0.0,0.0,0.0,0.0,0.0,0.0,6.1031,6.0689,0.0,0.0,0.0,0.0,0.0,0.0,0.0,0.0,0.0,0.0,0.0,0.0,6.7684,7.0135,7.4529,7.7229,7.7972,7.7217,7.5952,7.4177,7.2001,6.8363,6.3057,0.0,0.0,0.0,0.0,0.0,0.0,0.0,0.0,0.0,0.0,0.0,0.0,0.0,0.0,0.0,0.0,0.0,0.0,0.0,0.0,0.0,0.0,0.0,0.0,0.0,4.9928,0.0,0.0,0.0,0.0,0.0,0.0,0.0,0.0,0.0,0.0,0.0,5.9321,6.1979,6.4876,6.7107,6.8217,6.8677,6.9114,0.0,0.0,0.0,0.0,0.0,0.0,0.0,0.0,0.0,0.0,0.0,0.0,0.0,0.0,6.2058,5.6616,5.4943,5.4464,5.4758,0.0,0.0,0.0,0.0,0.0,0.0,0.0,0.0,0.0,0.0,0.0,0.0,0.0,0.0,5.4013,0.0,5.387,0.0,0.0,0.0,0.0,0.0,0.0,0.0,0.0,6.0056,6.1523,6.2925,6.285,6.2831,0.0,6.2108,6.0955,0.0,0.0,0.0,0.0,0.0,0.0,0.0,0.0,6.7955,7.0329,7.4552,7.7141,7.7817,7.7129,7.5978,7.444,7.1237,6.7526,6.3356,6.1019,5.8897,0.0,0.0,0.0,0.0,0.0,0.0,0.0,0.0,0.0,0.0,0.0,0.0,0.0,0.0,0.0,0.0,0.0,0.0,0.0,0.0,0.0,0.0,0.0,5.1488,0.0,0.0,0.0,0.0,0.0,0.0,0.0,0.0,0.0,5.7669,5.9411,6.1665,6.432,6.6496,6.8094,6.8854,0.0,0.0,0.0,0.0,0.0,0.0,0.0,6.3938,6.3367,6.2546,6.1917,6.1744,6.3683,6.4775,6.3417,0.0,0.0,5.9789,5.8225,5.7756,5.7995,5.8458,5.8755,5.8451,5.949,6.0404,0.0,0.0,0.0,0.0,0.0,0.0,0.0,0.0,5.6467,5.6511,0.0,5.5764,0.0,0.0,0.0,0.0,0.0,5.7857,0.0,0.0,6.2418,6.3851,6.3751,6.3745,6.374,6.3778,6.4505,6.3971,6.2172,5.9451,0.0,0.0,0.0,0.0,0.0,0.0,6.8485,7.0864,7.4682,7.7123,7.7877,7.7129,7.5905,7.4178,6.9738,6.6529,6.4749,6.1702,5.9547,5.8477,5.703,0.0,0.0,0.0,0.0,0.0,0.0,0.0,0.0,0.0,0.0,0.0,0.0,0.0,0.0,0.0,0.0,0.0,0.0,0.0,0.0,5.3202,0.0,0.0,0.0,0.0,0.0,0.0,0.0,0.0,0.0,0.0,6.1473,6.2885,6.5012,6.8065,0.0,0.0,0.0,0.0,6.996,6.983,6.9164,6.8629,6.8569,6.7763,6.6593,6.5036,0.0,0.0,6.374,6.5349,6.6125,6.3832,6.4743,6.5882,6.6648,6.4526,6.3232,6.3826,6.2811,6.2296,6.2985,6.3501,6.4149,6.1878,0.0,0.0,0.0,0.0,5.9522,5.9748,5.9861,5.9706,5.9377,5.8874,5.7971,0.0,0.0,0.0,0.0,0.0,0.0,6.0968,6.2494,6.4063,6.5312,6.6324,6.6329,6.6324,6.6288,6.5873,6.5075,6.3957,6.247,6.1521,6.1098,0.0,0.0,0.0,0.0,6.9116,7.1479,7.4812,7.7217,7.8557,7.7297,7.5339,7.2717,7.0151,6.7733,6.5549,6.3356,6.1264,5.9286,5.8181,0.0,0.0,0.0,0.0,0.0,0.0,0.0,0.0,0.0,0.0,0.0,0.0,0.0,0.0,0.0,0.0,0.0,0.0,0.0,5.3078,5.3892,5.4438,0.0,0.0,0.0,0.0,0.0,0.0,0.0,0.0,0.0,6.4449,6.5152,6.5994,0.0,0.0,6.9471,6.9666,7.0278,7.0895,7.1401,7.0647,0.0,0.0,6.8113,6.6961,6.6541,6.7071,6.7314,6.6751,6.7698,6.8096,6.6732,6.7284,6.8076,6.8106,6.5944,6.4209,6.4123,6.4218,6.437,6.4649,6.5327,6.6111,6.626,6.3458,6.1842,6.1569,6.2158,6.2685,6.3143,6.3524,6.3458,6.2996,6.2216,6.1056,6.0151,5.9501,5.9163,0.0,0.0,0.0,6.3176,6.4772,6.5564,6.6572,6.769,6.7763,6.7766,6.7721,6.717,6.6437,6.557,6.5054,6.4542,6.3978,0.0,0.0,6.4891,6.7683,7.0191,7.2552,7.5465,7.7461,7.8388,7.6906,7.481,7.2057,7.0613,6.8735,6.6313,6.4531,6.2773,6.0994,5.9522,5.8059,0.0,0.0,0.0,0.0,0.0,0.0,0.0,0.0,0.0,0.0,0.0,5.2411,0.0,0.0,0.0,0.0,5.2907,5.3593,5.4691,5.5285,0.0,0.0,0.0,0.0,0.0,0.0,0.0,6.0905,6.2751,6.465,6.6619,6.7524,6.818,6.8917,6.9942,7.0702,7.0914,0.0,7.1622,7.2375,7.1648,7.0939,7.062,6.939,6.8397,6.8087,6.8291,6.8688,6.8994,6.9388,6.9605,6.9392,6.9393,6.9466,6.9378,6.7573,6.6117,6.601,6.6359,6.6811,6.7102,6.7637,6.8227,7.0589,6.9558,6.565,6.4709,6.5817,6.6021,6.6513,6.7198,6.7256,6.6866,6.6099,6.4465,6.3327,6.2502,6.1852,0.0,6.2576,6.4491,6.5681,6.6312,6.7182,6.7892,6.8485,6.8523,6.8442,6.8407,6.8397,6.7929,6.704,6.7161,6.7097,6.6764,6.4817,6.4891,6.6985,6.935,7.1626,7.3849,7.6381,7.766,7.757,7.6237,7.4365,7.1952,7.1049,6.9441,6.7015,6.5331,6.4028,6.2968,6.0863,5.9595,5.9299,0.0,0.0,0.0,0.0,0.0,0.0,0.0,0.0,0.0,0.0,0.0,0.0,0.0,0.0,0.0,5.3859,0.0,5.6755,5.6944,0.0,0.0,0.0,5.7913,5.8956,5.974,6.0852,6.2573,0.0,0.0,6.8196,0.0,7.1097,7.1868,7.2009,7.2203,7.2819,7.2354,7.2223,7.2943,7.2401,7.1903,7.1729,7.0885,6.9989,6.936,6.9278,6.9466,7.0179,7.0292,7.062,7.105,7.0773,7.0198,7.0056,6.9357,6.903,6.8952,6.8849,6.9042,6.9527,6.9783,7.0058,7.1697,7.1479,7.0253,6.9256,6.862,6.9289,6.9722,6.9792,6.9143,6.85,6.7784,6.5987,6.4723,6.3945,6.3901,6.4257,6.4944,6.6851,6.8037,6.8731,7.0171,7.0651,7.0216,7.021,6.9876,6.9315,6.9198,6.8692,6.7941,6.8438,6.8584,6.8428,6.8569,6.8497,6.8335,7.064,7.2677,7.4406,7.6404,7.716,7.6727,7.645,7.492,7.1992,7.1016,6.9402,6.7007,6.5764,6.4196,6.2153,6.1444,6.0213,5.8313,5.769,0.0,0.0,0.0,0.0,0.0,0.0,0.0,0.0,0.0,5.4345,5.4271,0.0,5.5814,0.0,5.5696,5.6447,5.6917,5.6979,0.0,0.0,5.9124,5.9772,6.1227,6.2174,6.3123,6.4071,6.6394,6.821,6.9044,7.1113,7.2532,7.2636,7.2228,7.2205,7.2908,7.2962,7.3086,7.3811,7.3764,7.3183,7.2043,7.0651,6.964,6.9424,6.9278,6.9495,7.0367,6.9951,6.973,7.029,7.0307,7.0064,6.9897,7.0106,7.0369,7.0335,6.9555,6.8801,6.9028,6.9547,7.0171,7.3724,7.3751,7.3079,7.2096,7.1008,7.1565,7.2031,7.2245,7.1465,7.0503,6.9307,6.7151,6.5968,6.5602,6.6399,6.6997,6.7477,6.9242,7.0233,7.062,7.153,7.1691,7.1186,7.1189,7.0968,7.0519,7.0455,7.0202,6.9815,7.0126,7.0258,7.0142,7.1277,7.153,7.097,7.2556,7.4171,7.5689,7.7128,7.736,7.6415,7.6127,7.465,7.191,7.0541,6.8715,6.6303,6.5323,6.3808,6.1746,6.1285,6.0454,5.9018,5.8377,5.7587,0.0,0.0,0.0,0.0,0.0,0.0,0.0,0.0,0.0,0.0,0.0,5.7066,5.7225,5.7631,5.8262,5.9065,5.9147,5.9542,6.0499,6.0998,6.1806,6.3054,6.4007,6.5175,6.6668,6.8057,6.9432,7.0769,7.2096,7.3036,7.3255,7.2987,7.2921,7.3442,7.3615,7.3769,7.422,7.4238,7.3645,7.206,7.042,6.9297,6.9292,6.9236,6.9551,7.0711,7.0247,7.009,7.1288,7.0774,7.0224,7.0667,7.0502,7.0456,7.0728,7.0255,6.9898,7.0174,7.0617,7.1182,7.5967,7.5878,7.4905,7.4035,7.3302,7.3387,7.3581,7.3804,7.3071,7.1869,7.0288,6.8379,6.7549,6.7611,6.9032,6.9712,6.9785,7.139,7.209,7.2051,7.2161,7.2068,7.1858,7.1841,7.1757,7.1685,7.1674,7.1665,7.1665,7.174,7.1785,7.1818,7.3204,7.3973,7.4083,7.4744,7.5805,7.7216,7.8062,7.7879,7.6581,7.5676,7.4088,7.1755,6.9878,6.7802,6.5507,6.4427,6.3135,6.1552,6.0766,6.0289,6.016,5.8752,5.7925,0.0,5.7155,0.0,0.0,0.0,0.0,0.0,0.0,0.0,0.0,5.7327,5.8037,5.9485,5.9605,6.0238,6.1844,6.1961,6.2036,6.2264,6.302,6.3826,6.4626,6.554,6.6986,6.9237,6.9593,7.0532,7.2479,7.2845,7.3098,7.3652,7.3718,7.376,7.4051,7.4096,7.4101,7.4162,7.3995,7.3178,7.1879,7.0409,6.942,6.9489,6.9583,6.997,7.1375,7.0989,7.1064,7.264,7.1653,7.075,7.1962,7.1069,7.0533,7.1205,7.1286,7.1369,7.1679,7.1946,7.2426,7.6842,7.6886,7.6363,7.6079,7.5976,7.5374,7.3914,7.1906,7.0446,6.9685,6.9568,7.0525,7.089,7.0813,7.1242,7.1387,7.1339,7.2395,7.2838,7.2726,7.3434,7.3388,7.269,7.2543,7.2159,7.1557,7.1433,7.138,7.1383,7.205,7.2619,7.3209,7.4147,7.5222,7.6368,0.0,0.0,0.0,7.8363,7.8104,7.7287,7.5932,7.4021,7.1583,6.9248,0.0,6.5306,6.3723,6.2431,6.14,6.0588,0.0,0.0,0.0,0.0,0.0,0.0,0.0,0.0,0.0,0.0,0.0,5.9584,5.9072,5.8023,5.8978,6.0148,6.1188,6.1165,6.1547,6.2723,6.2857,6.3383,6.4625,6.5058,6.5572,6.6355,6.7241,6.8291,6.9287,7.0495,7.1616,7.2577,7.3205,7.3609,7.3759,7.3799,7.3821,7.387,7.3885,7.389,7.3949,7.3143,7.2116,7.1617,7.0736,7.0246,7.073,7.0894,7.1259,7.1986,7.1606,7.1343,7.2522,7.2199,7.1824,7.2191,7.2422,7.2561,7.2859,7.2899,7.2561,7.1434,7.1741,7.2237,7.7699,0.0,7.6919,7.6375,0.0,7.5558,7.4174,7.211,7.1821,7.1416,7.1078,7.1581,7.1766,7.1676,7.1359,7.1391,7.1711,7.178,7.2188,7.2921,7.3302,7.346,7.3429,7.329,7.3037,7.2669,7.2566,7.2535,7.2579,7.3354,7.3915,7.4306,7.5466,7.6403,7.7159,7.7428,7.7802,7.829,7.8366,7.7866,7.6768,7.5604,7.3848,7.1452,0.0,0.0,0.0,0.0,0.0,0.0,0.0,0.0,0.0,0.0,0.0,5.8884,5.9262,5.9508,5.9517,5.9473,5.9877,6.0812,6.1648,6.1512,6.0029,6.0575,6.1524,6.2885,6.2951,6.346,6.4765,6.493,6.5268,6.6052,6.6551,6.7033,6.7477,6.8524,6.9598,7.0362,7.141,7.2342,7.3074,7.346,7.365,7.3631,7.3584,7.3624,7.3597,7.3731,7.3854,7.3947,7.2942,7.2127,7.2009,7.1355,7.0859,7.1215,7.1277,7.1618,7.2307,7.1769,7.1543,7.2509,7.2251,7.181,7.2624,7.2828,7.2946,7.3277,7.3385,7.32,7.2298,7.249,7.2791,7.8464,7.8406,7.7447,7.6575,7.5858,7.5743,7.4846,7.3506,0.0,0.0,0.0,7.2311,7.2161,7.2124,7.1456,7.1606,7.2274,7.1656,7.2136,7.3516,7.3381,7.3696,7.4382,7.4098,7.3995,7.3995,7.3933,7.3927,7.3998,7.4738,7.5224,7.5469,7.6616,7.7284,7.7392,7.7758,7.8036,7.8196,7.8203,7.7577,7.6211,7.5246,7.3637,7.1313,6.8822,6.6786,6.523,6.3432,6.2198,6.1675,6.1409,6.0978,6.038,6.0858,6.0925,6.0372,6.0858,6.1219,6.1265,6.1382,6.1608,6.2076,6.3446,6.3683,6.2323,6.2331,6.3062,6.4594,6.4697,6.5337,6.6845,6.6998,6.7073,6.7221,6.7814,6.8227,6.8291,6.9423,7.0526,7.1401,7.205,7.2767,7.346,7.3568,7.3514,7.3414,7.3411,7.3385,7.3414,7.3587,7.3718,7.3555,7.2901,7.25,7.2502,7.2017,7.1572,7.1756,7.1756,7.1916,7.2277,7.1973,7.2071,7.3117,7.2221,7.215,7.3051,7.2906,7.2645,7.328,7.3385,7.3385,7.3385,7.3385,7.3348,7.915,7.9138,7.8871,7.8688,7.8485,7.7821,7.6952,7.5935,7.3983,7.2631,7.1976,7.325,7.3853,7.3856,7.3741,7.4122,7.4867,7.4645,7.5038,7.5884,7.5783,7.5757,7.5866,7.5039,7.4643,7.4634,7.4568,7.4475,7.4593,7.53,7.6074,7.6733,7.6857,7.7159,7.7663,7.7798,7.7824,7.789,7.7886,7.7541,7.6855,7.5395,7.3534,7.1258,6.8821,6.7003,6.5966,6.3696,6.2681,6.3182,6.1975,6.1169,6.1055,6.119,6.115,6.1052,6.1153,6.119,6.1243,6.1858,6.2914,6.4376,6.5302,6.5198,6.395,6.4879,6.5739,6.6218,6.6167,6.6552,6.7672,6.7843,6.8098,6.8702,6.8921,6.9042,6.9069,6.9821,7.0681,7.1433,7.2038,7.2749,7.3419,7.3485,7.3421,7.3392,7.3385,7.3385,7.3405,7.3545,7.3342,7.283,7.2561,7.2493,7.2525,7.2398,7.242,7.3013,7.2976,7.2871,7.3031,7.2944,7.2891,7.3277,7.2973,7.3007,7.3348,7.3348,7.3203,7.3351,7.3385,7.3385,7.3385,7.3385,7.3385,7.9266,7.9187,7.906,7.9004,7.8932,7.8225,7.7695,7.7167,7.5618,7.4717,7.4451,7.5165,7.5283,7.4833,7.4382,7.4341,7.4608,7.4099,7.4482,7.5561,7.551,7.567,7.6024,7.5578,7.5106,7.4734,7.5084,7.5017,7.476,7.5872,7.6645,7.697,7.7227,7.7477,7.7662,7.7688,7.7647,7.7521,7.7692,7.7486,7.6889,7.5736,7.4252,7.2431,7.0413,6.8703,6.7422,6.5896,6.5048,6.4968,6.3811,6.2962,6.2516,6.2516,6.2293,6.189,6.2256,6.2702,6.3148,6.3928,6.4796,6.5715,6.6448,6.6617,6.6059,6.6172,6.6594,6.7173,6.7181,6.7533,6.8366,6.8478,6.8653,6.9054,6.9413,6.9693,6.992,7.0796,7.1593,7.1988,7.2556,7.307,7.3442,7.3421,7.3385,7.3385,7.3385,7.3385,7.3385,7.3437,7.339,7.3115,7.3019,7.3016,7.3009,7.2996,7.3084,7.3389,7.3017,7.2791,7.2757,7.2757,7.2565,7.2184,7.2416,7.2717,7.2754,7.2754,7.2906,7.3351,7.3385,7.3385,7.3385,7.3385,7.3385,7.9159,7.9054,7.8915,7.8877,7.8843,7.8357,7.8156,7.8108,7.7458,7.7139,7.7075,7.6737,7.6215,7.5577,7.4941,7.4719,7.4663,7.4068,7.4481,7.569,7.564,7.5947,7.6421,7.625,7.5763,7.5277,7.5801,7.5763,7.5392,7.6655,7.7336,7.7335,7.7802,7.7942,7.7818,7.7814,7.768,7.7345,7.7539,7.7374,7.6716,7.5913,7.4815,7.3391,7.1906,7.0387,6.8865,6.8008,6.7193,6.6382,6.5559,6.4819,6.4222,6.4148,6.3888,6.337,6.3819,6.4411,6.5076,6.5899,6.643,6.661,6.7287,6.784,6.8028,6.7565,6.7493,6.8138,6.8503,6.8866,6.9361,6.9476,6.9507,6.9559,7.0008,7.0416,7.0618,7.1628,7.2395,7.2457,7.2982,7.3389,7.3385,7.3385,7.3385,7.3385,7.3385,7.3385,7.3385,7.3385,7.3437,7.3485,7.3453,7.34,7.3514,7.3422,7.3361,7.3385,7.2946,7.2683,7.2608,7.2534,7.2156,7.166,7.1822,7.2085,7.197,7.1896,7.2116,7.2558,7.2825,7.3169,7.3351,7.3343,7.3356,7.8941,7.8906,7.8814,7.8793,7.8855,7.8809,7.8841,7.8947,7.8882,7.8813,7.8478,7.7121,7.6403,7.6278,7.6094,7.6411,7.7027,7.6941,7.7262,7.799,7.8041,7.8007,7.7946,7.7331,7.6952,7.6844,7.6915,7.6875,7.6767,7.7719,7.8396,7.8744,7.8753,7.8631,7.8489,7.8506,7.8123,7.7322,7.7349,7.7047,7.6424,7.5595,7.4525,7.3242,7.2323,7.1111,6.971,6.8822,6.8011,6.7237,6.6419,6.5933,6.5862,6.5859,6.5828,6.5711,6.5822,6.5936,6.6011,6.6751,6.7211,6.7263,6.7978,6.8761,6.9545,6.9594,6.9594,6.982,7.0477,7.0829,7.1053,7.1089,7.1023,7.0881,7.1038,7.1206,7.1303,7.1919,7.2395,7.2392,7.3013,7.3385,7.3385,7.3385,7.3385,7.3385,7.3385,7.3385,7.3385,7.3311,7.3277,7.3371,7.3355,7.3355,7.3414,7.3402,7.3385,7.3385,7.3311,7.3051,7.2939,7.2977,7.2977,7.1812,7.193,7.1815,7.1357,7.1016,7.1056,7.1502,7.1961,7.2574,7.3149,7.3287,7.3288,7.9975,7.9375,7.9315,7.9026,7.8719,7.8751,7.8816,7.8867,7.887,7.8838,7.8702,7.7955,7.7441,7.7094,7.7482,7.761,7.742,7.7814,7.8119,7.8383,7.8311,7.8294,7.8253,7.7993,7.7581,7.7179,7.7588,7.7547,7.7367,7.8175,7.8788,7.8908,7.922,7.9137,7.8633,7.8593,7.8181,7.7322,7.7322,7.7173,7.6845,7.5853,7.5133,7.4664,7.3476,7.2274,7.1248,7.0354,6.953,6.8716,6.7497,6.6822,6.6788,6.6342,6.6088,6.6122,6.6565,6.6788,6.6828,6.7565,6.8047,6.8118,6.8869,6.9522,6.99,7.0774,7.1352,7.1256,7.124,7.1171,7.1138,7.1122,7.1165,7.1214,7.1547,7.1867,7.1938,7.2547,7.2982,7.3016,7.3235,7.3385,7.3385,7.3385,7.3385,7.3385,7.3385,7.3385,7.3382,7.3017,7.272,7.2602,7.2298,7.2406,7.3085,7.3385,7.3385,7.32,7.2524,7.2035,7.2568,7.2187,7.1772,7.1475,7.1512,7.1397,7.1016,7.0493,7.027,7.079,7.1576,7.24,7.3126,7.3242,7.3212,8.0637,7.9782,7.9653,7.921,7.8519,7.8606,7.8669,7.8695,7.8695,7.8679,7.8639,7.8549,7.8241,7.784,7.8325,7.8193,7.7734,7.8184,7.8393,7.8297,7.8294,7.8294,7.8294,7.829,7.7993,7.7584,7.803,7.8077,7.7818,7.8459,7.9097,7.945,7.9924,7.9735,7.9001,7.8927,7.8369,7.7395,7.7322,7.73,7.7234,7.6258,7.5657,7.5534,7.4157,7.2972,7.2233,7.1589,7.0759,6.9719,6.8571,6.7862,6.7602,6.7088,6.6751,6.6788,6.7308,6.7636,6.7639,6.8159,6.8644,6.8949,6.9522,7.0043,7.0645,7.1665,7.2372,7.2485,7.2059,7.1727,7.1605,7.1608,7.1668,7.1768,7.2247,7.2582,7.2689,7.3143,7.3389,7.3385,7.3355,7.3385,7.3385,7.3385,7.3385,7.3385,7.3385,7.3385,7.3348,7.2943,7.2568,7.2537,7.1998,7.2075,7.2865,7.271,7.2822,7.2865,7.2001,7.1626,7.1896,7.136,7.08,7.0951,7.0868,7.0753,7.0533,7.0088,7.0307,7.1053,7.1743,7.2366,7.305,7.3115,7.3067,8.0446,7.9789,7.9583,7.912,7.8505,7.8512,7.8582,7.8669,7.8682,7.8626,7.8526,7.8505,7.8394,7.8254,7.8338,7.8314,7.8226,7.8274,7.8307,7.8294,7.8294,7.8294,7.8294,7.8294,7.829,7.8138,7.8192,7.852,7.9026,7.8965,7.9613,8.0985,8.0973,8.0538,7.9849,7.9702,7.8923,7.7579,7.7322,7.7391,7.7457,7.6762,7.6011,7.536,7.4023,7.2941,7.2326,7.2159,7.1407,6.979,6.9568,6.9199,6.8531,6.8382,6.8308,6.8345,6.8382,6.8419,6.8379,6.849,6.8871,6.9509,6.9818,7.0407,7.1701,7.2151,7.259,7.324,7.3179,7.3101,7.3138,7.3054,7.3154,7.312,7.3246,7.3284,7.3324,7.3327,7.3389,7.3385,7.3385,7.3385,7.3385,7.3385,7.3385,7.3385,7.3385,7.3385,7.3389,7.3314,7.3166,7.3125,7.3011,7.3011,7.2385,7.2264,7.2001,7.1967,7.2119,7.1781,7.1589,7.1323,7.084,7.062,7.0914,7.08,7.0202,7.0351,7.1016,7.1545,7.1758,7.2286,7.3007,7.286,7.2804,8.1978,8.1044,7.9426,7.8875,7.9069,7.8592,7.84,7.8434,7.8438,7.8414,7.8376,7.8369,7.8338,7.8294,7.8294,7.8294,7.829,7.8294,7.8294,7.8294,7.8294,7.8294,7.8294,7.8294,7.8294,7.8276,7.8148,7.8409,7.8976,7.9356,8.0054,8.0993,8.1558,8.1342,8.0612,8.0069,7.9221,7.8214,7.7623,7.7352,7.7348,7.6743,7.6022,7.5236,7.4342,7.3572,7.3014,7.2369,7.1797,7.1329,7.0317,6.9564,6.927,6.8788,6.8528,6.8528,6.8528,6.8528,6.8565,6.897,6.9382,6.9713,7.0732,7.145,7.2162,7.2645,7.3088,7.3348,7.3385,7.3385,7.3392,7.3431,7.344,7.3398,7.3385,7.3385,7.3385,7.3385,7.3385,7.3385,7.3385,7.3385,7.3385,7.3385,7.3385,7.3385,7.3385,7.3385,7.3314,7.3017,7.2723,7.2531,7.215,7.1886,7.2311,7.2531,7.2524,7.2045,7.1822,7.14,7.1131,7.1208,7.0877,7.1218,7.1403,7.1539,7.1162,7.0979,7.1641,7.1872,7.205,7.2358,7.293,7.2794,7.2713,8.258,8.179,8.0182,7.9472,7.9435,7.8918,7.8547,7.8331,7.8294,7.8294,7.8294,7.8294,7.8262,7.8217,7.8214,7.8182,7.8154,7.8186,7.8338,7.8511,7.8507,7.8511,7.8511,7.8507,7.8396,7.8149,7.7943,7.8297,7.9138,7.9694,8.045,8.1383,8.197,8.1782,8.1012,8.0212,7.9404,7.8589,7.7737,7.7322,7.7264,7.6911,7.6342,7.5547,7.4825,7.4043,7.3312,7.2666,7.2194,7.1998,7.1081,7.0283,6.9716,6.9196,6.8757,6.8568,6.875,6.8899,6.8976,6.9645,7.0199,7.0502,7.1487,7.2277,7.2574,7.3095,7.3348,7.3385,7.3385,7.3385,7.3385,7.3385,7.3385,7.3385,7.3385,7.3385,7.3382,7.3377,7.3354,7.3354,7.3396,7.3382,7.3385,7.3385,7.3385,7.3385,7.3385,7.3385,7.3314,7.298,7.2574,7.2531,7.2264,7.2261,7.2565,7.2939,7.2754,7.2274,7.1859,7.136,7.0905,7.1022,7.1242,7.1697,7.2025,7.2239,7.2235,7.1938,7.2019,7.2249,7.2388,7.2657,7.2807,7.2783,7.2667,8.2006,8.1965,8.1931,8.0813,7.9658,7.9364,7.8955,7.8364,7.8294,7.828,7.8262,7.8276,7.8186,7.8039,7.8011,7.7932,7.7842,7.7932,7.8265,7.8795,7.8818,7.8855,7.8818,7.8792,7.8452,7.7872,7.771,7.8471,7.9828,7.9968,8.0665,8.1905,8.2113,8.186,8.104,8.0249,7.9445,7.8662,7.7803,7.7322,7.7285,7.7227,7.6895,7.6269,7.5415,7.4348,7.3126,7.3081,7.2737,7.2104,7.2048,7.1369,7.0054,6.9716,6.9385,6.8939,6.9311,6.9682,6.979,7.0459,7.1245,7.1762,7.2196,7.2602,7.3136,7.3342,7.3385,7.3385,7.3385,7.3385,7.3385,7.3385,7.3385,7.3385,7.3385,7.3385,7.3366,7.3298,7.3205,7.3245,7.3344,7.3379,7.3385,7.3385,7.3385,7.3385,7.3385,7.3385,7.3385,7.3274,7.3351,7.3314,7.3048,7.2936,7.3159,7.3348,7.2906,7.2463,7.2045,7.1589,7.1022,7.0908,7.1065,7.147,7.2179,7.2425,7.2809,7.2587,7.2715,7.2886,7.2946,7.2804,7.2765,7.272,7.2596,8.2002,8.1854,8.0739,8.033,8.0137,7.9145,7.8513,7.829,7.8294,7.8224,7.8103,7.8089,7.8007,7.7882,7.7856,7.7802,7.7662,7.7706,7.7902,7.8138,7.8219,7.8216,7.8219,7.8179,7.7987,7.7809,7.8192,7.8922,7.9777,8.0342,8.1199,8.2007,8.2186,8.208,8.1754,8.0506,7.9629,7.9294,7.799,7.7322,7.7322,7.7322,7.6949,7.626,7.5891,7.5044,7.3609,7.3219,7.2983,7.2774,7.2413,7.167,7.0762,7.0533,7.0425,7.0196,7.0344,7.0533,7.0645,7.1282,7.1838,7.2124,7.2615,7.303,7.3264,7.3361,7.3372,7.3382,7.3385,7.3385,7.3385,7.3385,7.3385,7.3385,7.3385,7.3382,7.3359,7.337,7.3323,7.332,7.3359,7.3385,7.3382,7.3379,7.3376,7.3385,7.3385,7.3385,7.3385,7.3385,7.3385,7.3385,7.3385,7.3385,7.3385,7.3385,7.3166,7.2757,7.2342,7.2001,7.1437,7.1207,7.1293,7.1529,7.2202,7.265,7.3034,7.3192,7.3175,7.3121,7.2939,7.2843,7.2786,7.267,7.2542,8.2448,8.2299,8.1296,8.0772,8.0624,7.9546,7.8772,7.8247,7.82,7.8071,7.7954,7.7928,7.7842,7.7754,7.7729,7.7636,7.7497,7.7486,7.7539,7.7665,7.8012,7.8082,7.8008,7.771,7.7591,7.7652,7.8339,7.9102,7.9816,8.0608,8.1411,8.208,8.2186,8.2186,8.208,8.0942,8.0245,8.0024,7.8655,7.777,7.7729,7.7469,7.7069,7.6603,7.6273,7.5469,7.4239,7.3886,7.3538,7.3091,7.2706,7.2203,7.1465,7.1363,7.1242,7.1016,7.1208,7.14,7.1468,7.2135,7.2526,7.2521,7.2905,7.3218,7.3209,7.3265,7.3238,7.3297,7.3338,7.3341,7.3341,7.34,7.3382,7.3385,7.3385,7.3377,7.3315,7.3315,7.3221,7.3168,7.3175,7.3278,7.3324,7.3341,7.3333,7.3366,7.3385,7.3385,7.3385,7.3385,7.3385,7.3385,7.3385,7.3385,7.3385,7.3385,7.3385,7.3048,7.2673,7.241,7.2035,7.2097,7.2153,7.2196,7.2634,7.2673,7.3013,7.3074,7.3081,7.2999,7.288,7.2811,7.2716,7.2607,7.2499,8.3154,8.3117,8.3083,8.2025,8.0714,8.0484,7.9511,7.8237,7.8111,7.8058,7.7939,7.799,7.7788,7.7624,7.7561,7.7482,7.7316,7.7308,7.7316,7.7548,7.7963,7.8309,7.8199,7.7648,7.7445,7.7646,7.8348,7.9159,8.0028,8.0791,8.1452,8.2117,8.2186,8.2186,8.2003,8.1338,8.0787,8.0645,7.925,7.8365,7.8442,7.7733,7.7285,7.7175,7.6599,7.5865,7.5117,7.4768,7.4156,7.3056,7.3057,7.2807,7.2371,7.2258,7.1898,7.1347,7.1859,7.2184,7.2381,7.2735,7.3074,7.2977,7.3,7.3047,7.3145,7.3121,7.3145,7.3249,7.3258,7.3239,7.3268,7.3318,7.3383,7.3353,7.3374,7.3282,7.3077,7.3138,7.3091,7.2876,7.2876,7.304,7.3182,7.3199,7.3268,7.3297,7.3346,7.3379,7.3356,7.335,7.3379,7.3385,7.3382,7.3343,7.3333,7.3382,7.3372,7.3202,7.2888,7.2704,7.2439,7.2453,7.266,7.2734,7.2712,7.2794,7.2882,7.2961,7.2948,7.2817,7.2758,7.2716,7.2646,7.2542,7.2499,8.2857,8.2333,8.2337,8.164,8.054,7.9939,7.9363,7.878,7.8729,7.8607,7.8558,7.8532,7.8073,7.7439,7.7395,7.736,7.7329,7.7322,7.7322,7.7322,7.7472,7.7623,7.7656,7.7469,7.7652,7.8255,7.9062,7.9878,8.0714,8.1383,8.1946,8.219,8.2162,8.2174,8.2003,8.0861,8.0502,8.06,7.8765,7.8067,7.8446,7.7803,7.7322,7.7281,7.7069,7.6555,7.5718,7.4665,7.4072,7.3818,7.3278,7.3034,7.2908,7.2891,7.2752,7.2718,7.2852,7.2999,7.2978,7.3064,7.3098,7.2863,7.2934,7.3046,7.3047,7.3111,7.3205,7.3324,7.3364,7.3344,7.3341,7.3295,7.3225,7.3138,7.3205,7.3219,7.3131,7.3077,7.3006,7.2951,7.2955,7.2989,7.3044,7.3111,7.3155,7.3172,7.3268,7.3367,7.3305,7.3331,7.3351,7.3366,7.3366,7.3307,7.3291,7.335,7.3377,7.3288,7.3092,7.292,7.2498,7.2151,7.2469,7.2744,7.2644,7.2649,7.2795,7.2903,7.2776,7.2677,7.2684,7.2667,7.2585,7.2496,7.2496,8.2798,8.2382,8.2308,8.1741,8.0918,8.043,7.9753,7.9035,7.8898,7.8848,7.8722,7.8732,7.8384,7.7884,7.7847,7.7619,7.7358,7.7322,7.7322,7.7322,7.7322,7.7322,7.7395,7.7615,7.8104,7.8651,7.9655,8.0385,8.0894,8.1536,8.1828,8.1906,8.1935,8.1968,8.1895,8.1326,8.0939,8.1037,7.9675,7.8989,7.9037,7.8295,7.766,7.7436,7.7285,7.7028,7.6456,7.5065,7.4253,7.4036,7.3414,7.2958,7.3098,7.3172,7.3242,7.3328,7.3291,7.3248,7.3195,7.3054,7.2897,7.2748,7.2802,7.2826,7.2868,7.289,7.2949,7.3057,7.3105,7.3105,7.3105,7.3118,7.3077,7.3033,7.3064,7.3081,7.302,7.289,7.2861,7.2826,7.2806,7.283,7.2875,7.2968,7.2999,7.3026,7.3128,7.3158,7.3142,7.3215,7.3262,7.3285,7.3275,7.3199,7.3158,7.3202,7.3282,7.3212,7.3114,7.2998,7.2683,7.221,7.238,7.2662,7.2563,7.2528,7.2653,7.272,7.2642,7.2589,7.2614,7.2677,7.2638,7.2859,7.2822,8.2885,8.287,8.2754,8.2233,8.1479,8.1402,8.0506,7.9266,7.9177,7.91,7.9028,7.889,7.8862,7.863,7.863,7.8218,7.7322,7.7509,7.7509,7.7582,7.7656,7.7803,7.7913,7.8163,7.8534,7.8922,8.0113,8.0674,8.0973,8.1264,8.1435,8.1609,8.1626,8.1621,8.1703,8.1765,8.1953,8.1709,8.0613,7.9879,7.9466,7.8703,7.788,7.7395,7.7322,7.7308,7.6916,7.5899,7.4867,7.4468,7.3402,7.3114,7.3216,7.335,7.3259,7.3317,7.3286,7.3202,7.3219,7.3007,7.2786,7.2851,7.2674,7.2557,7.2674,7.267,7.2681,7.2842,7.2744,7.2874,7.3004,7.3044,7.3259,7.3346,7.3256,7.3016,7.2848,7.2735,7.2653,7.2521,7.2503,7.2564,7.2642,7.2709,7.2755,7.284,7.2958,7.3026,7.3026,7.306,7.3081,7.3081,7.3054,7.3009,7.2996,7.2996,7.3088,7.3118,7.3071,7.294,7.2865,7.2584,7.2544,7.256,7.2514,7.2529,7.2524,7.2532,7.2543,7.2774,7.2997,7.2939,7.2899,7.33,7.3446,8.2746,8.2738,8.2707,8.2134,8.1354,8.1251,8.0973,8.048,8.048,8.0387,8.0461,8.0453,7.9727,7.8699,7.9221,7.874,7.7656,7.8027,7.8291,7.8405,7.9033,7.9221,7.9075,7.8789,7.8762,7.9417,8.0263,8.0924,8.1306,8.1377,8.1532,8.1568,8.1542,8.1651,8.1765,8.1381,8.1456,8.1615,8.0137,7.9494,7.952,7.8496,7.7673,7.7368,7.7299,7.7383,7.7279,7.6443,7.59,7.5529,7.4529,7.3864,7.4202,7.3521,7.338,7.3766,7.345,7.3325,7.3532,7.327,7.2954,7.3409,7.3009,7.2553,7.2688,7.2747,7.2763,7.2896,7.2941,7.3062,7.3456,7.3654,7.3898,7.4128,7.3885,7.3573,7.3423,7.3003,7.2654,7.2572,7.2529,7.2543,7.2549,7.2649,7.2674,7.2656,7.273,7.2892,7.291,7.2903,7.2903,7.2896,7.2896,7.2868,7.2844,7.2861,7.2951,7.3003,7.2928,7.2897,7.2821,7.2737,7.2617,7.2546,7.2503,7.2496,7.2506,7.2676,7.2753,7.3087,7.3435,7.3582,7.3744,7.3989,7.3956,8.2571,8.2567,8.2492,8.2147,8.1703,8.1662,8.1434,8.1052,8.1004,8.1004,8.1004,8.1004,8.0494,7.9792,8.0098,7.9653,7.8809,7.8923,7.9147,7.9261,7.9633,7.9779,7.9818,7.9576,7.9617,8.0243,8.0744,8.1221,8.1364,8.121,8.1047,8.1105,8.1189,8.1286,8.1529,8.1224,8.1432,8.1552,8.0369,7.9592,7.9416,7.8874,7.8001,7.7584,7.732,7.7138,7.7237,7.6816,7.6625,7.6405,7.5527,7.4812,7.5021,7.4445,7.4366,7.4593,7.448,7.425,7.4373,7.412,7.3927,7.4232,7.3846,7.3733,7.3574,7.3452,7.3197,7.3198,7.3058,7.3026,7.3731,7.4264,7.4574,7.4702,7.4618,7.4371,7.4107,7.3295,7.2769,7.2844,7.2753,7.2826,7.2862,7.2795,7.2589,7.2564,7.2557,7.2667,7.27,7.27,7.2681,7.2688,7.2709,7.2699,7.2663,7.2699,7.2793,7.2821,7.28,7.2783,7.2748,7.2667,7.2578,7.2612,7.269,7.2524,7.2565,7.2767,7.3116,7.3388,7.3791,7.4244,7.4459,7.4406,7.4295,8.2474,8.2355,8.2255,8.2186,8.2186,8.2158,8.1791,8.1265,8.1187,8.1301,8.1187,8.1187,8.1118,8.1008,8.1118,8.0722,8.0143,7.9922,7.9996,8.0028,8.0289,8.0436,8.043,8.0507,8.0647,8.1073,8.1171,8.1289,8.1082,8.0776,8.0666,8.0573,8.0679,8.0985,8.1195,8.1321,8.1495,8.1543,8.0779,7.9998,7.9458,7.9137,7.8553,7.7705,7.7174,7.6905,7.7037,7.6864,7.6905,7.7148,7.6461,7.5913,7.5584,7.5299,7.5499,7.5578,7.5285,7.5174,7.5226,7.5055,7.4808,7.5017,7.487,7.483,7.4658,7.4272,7.3997,7.3733,7.356,7.3453,7.4004,7.468,7.5146,7.5289,7.5364,7.5184,7.4875,7.3758,7.3439,7.359,7.3223,7.2999,7.3021,7.2926,7.2683,7.2474,7.2504,7.246,7.2467,7.2481,7.2514,7.2539,7.2564,7.2607,7.2582,7.2666,7.2721,7.2812,7.2755,7.2891,7.2895,7.3031,7.3084,7.2917,7.2862,7.2869,7.3119,7.36,7.3857,7.3889,7.4323,7.4997,7.5044,7.4823,7.4711,8.2847,8.2227,8.2207,8.2186,8.2186,8.2186,8.2117,8.2043,8.1929,8.2003,8.1966,8.197,8.1562,8.1342,8.1746,8.1489,8.0901,8.0795,8.0791,8.0938,8.1277,8.1566,8.1509,8.1227,8.1353,8.1403,8.1264,8.1003,8.0885,8.0638,8.0457,8.0485,8.0522,8.0735,8.1016,8.1114,8.1251,8.145,8.0679,7.984,7.939,7.8763,7.8155,7.736,7.7057,7.6887,7.6854,7.6813,7.6821,7.687,7.6744,7.6697,7.6446,7.5652,7.554,7.5827,7.5607,7.5592,7.5893,7.5411,7.5392,7.5535,7.5421,7.5054,7.4944,7.4801,7.4694,7.4581,7.4581,7.4768,7.5583,7.5763,7.6195,7.6456,7.6273,7.5928,7.5696,7.5025,7.4348,7.4537,7.3862,7.3299,7.3477,7.3383,7.2914,7.2732,7.2658,7.2505,7.2395,7.2406,7.2391,7.2413,7.2431,7.2478,7.251,7.2601,7.2721,7.2853,7.2953,7.3335,7.3397,7.3616,7.3639,7.3769,7.374,7.3751,7.41,7.4437,7.4789,7.4963,7.5422,7.5869,7.5794,7.568,7.556,8.2553,8.219,8.2186,8.2186,8.2186,8.2186,8.2186,8.2186,8.2186,8.2186,8.2186,8.2154,8.2007,8.1786,8.197,8.1933,8.1672,8.164,8.1636,8.175,8.2007,8.2133,8.1964,8.1523,8.1342,8.1167,8.0808,8.0587,8.061,8.0438,8.0306,8.0221,8.0278,8.0519,8.0772,8.0721,8.0917,8.1049,8.0429,7.9813,7.9509,7.8854,7.8224,7.7858,7.7304,7.7043,7.6708,7.6562,7.6631,7.6737,7.6705,7.681,7.6698,7.6538,7.626,7.6634,7.6452,7.6386,7.6734,7.6399,7.6408,7.6595,7.6298,7.6184,7.6004,7.5825,7.5388,7.5131,7.5388,7.5649,7.5983,7.6452,7.6889,7.709,7.6857,7.6631,7.6448,7.5884,7.5595,7.53,7.4439,7.4103,7.4474,7.4107,7.3315,7.3003,7.2895,7.2727,7.2464,7.2468,7.2552,7.2741,7.2835,7.2956,7.3058,7.3195,7.321,7.3273,7.3464,7.3809,7.4081,7.4393,7.4768,7.5014,7.4937,7.4742,7.479,7.5054,7.5563,7.5979,7.6162,7.6354,7.6554,7.6583,7.6259,8.2337,8.2186,8.2186,8.2186,8.2186,8.2186,8.2186,8.2186,8.2186,8.2186,8.2182,8.2154,8.2149,8.2182,8.219,8.215,8.2186,8.2154,8.2117,8.2096,8.2047,8.1948,8.1675,8.1232,8.0858,8.0662,8.0344,8.0087,8.0339,8.0235,8.0059,8.0015,8.0087,8.0273,8.0466,8.0429,8.055,8.0568,8.0284,7.9945,7.9717,7.9281,7.8752,7.847,7.7828,7.7193,7.66,7.6424,7.645,7.6574,7.6643,7.6635,7.6785,7.6986,7.7221,7.7436,7.7508,7.7527,7.7445,7.7336,7.7065,7.7138,7.7248,7.7248,7.7134,7.6555,7.6126,7.5645,7.5898,7.6342,7.6522,7.6895,7.7165,7.7204,7.7099,7.6981,7.6812,7.6482,7.616,7.5663,7.4924,7.4703,7.4841,7.444,7.3599,7.3559,7.3454,7.3473,7.3244,7.2904,7.2951,7.321,7.3379,7.3553,7.3771,7.4074,7.4112,7.4139,7.4425,7.4771,7.5,7.5261,7.5654,7.5999,7.5984,7.5819,7.5748,7.5747,7.6235,7.6575,7.6689,7.6732,7.6749,7.6594,7.6267,8.2843,8.2186,8.2186,8.2186,8.2186,8.2186,8.2186,8.2182,8.2174,8.2186,8.2133,8.2043,8.2043,8.2149,8.2186,8.2186,8.2186,8.2186,8.2174,8.2129,8.1852,8.1574,8.1311,8.075,8.0316,8.0121,7.9967,8.003,8.0111,7.9996,7.9969,7.9909,7.9948,8.0097,8.0353,8.0183,8.0264,8.0583,8.0372,8.0005,7.9698,7.9156,7.8574,7.7914,7.7615,7.7198,7.6519,7.63,7.6346,7.6399,7.6524,7.6606,7.6692,7.693,7.7073,7.7186,7.7264,7.7316,7.736,7.7337,7.7322,7.7322,7.7322,7.7322,7.7248,7.7208,7.6959,7.7102,7.7065,7.7013,7.6953,7.7088,7.7151,7.7069,7.697,7.689,7.6761,7.6504,7.6254,7.6072,7.5303,7.5004,7.4925,7.4418,7.3922,7.4006,7.4049,7.4046,7.4044,7.3729,7.3694,7.3999,7.4243,7.4424,7.4553,7.486,7.5055,7.5064,7.5418,7.5742,7.5923,7.6173,7.6548,7.682,7.6734,7.6695,7.6569,7.6692,7.7038,7.7015,7.6904,7.6829,7.6789,7.6537,7.6212,8.2521,8.2186,8.2186,8.2186,8.2186,8.2186,8.2133,8.2055,8.2043,8.1948,8.1856,8.1789,8.1844,8.2034,8.2137,8.2186,8.2186,8.217,8.2125,8.1923,8.1624,8.1227,8.0844,8.0274,7.9754,7.9662,7.9565,7.9486,7.9634,7.9841,7.9885,7.9875,7.9885,7.9948,8.0183,7.9996,8.0049,8.0231,8.0308,8.0338,8.0262,8.0035,7.9462,7.8227,7.8159,7.747,7.6646,7.6288,7.6288,7.6349,7.6478,7.6597,7.6692,7.6886,7.71,7.7116,7.7245,7.7322,7.7326,7.7318,7.7322,7.7322,7.7322,7.7322,7.7322,7.7322,7.7322,7.7285,7.7285,7.7287,7.7221,7.7139,7.7012,7.6905,7.6773,7.6708,7.6594,7.63,7.6055,7.5914,7.5717,7.5363,7.5089,7.4919,7.4592,7.4539,7.4603,7.4666,7.4753,7.4734,7.4784,7.4957,7.5202,7.5398,7.5511,7.5714,7.5972,7.6149,7.6553,7.6766,7.6798,7.7047,7.7203,7.7159,7.6905,7.6943,7.7157,7.7169,7.7088,7.7062,7.7024,7.6821,7.6603,7.6338,7.6046,8.2186,8.2186,8.2186,8.2186,8.2182,8.2149,8.2055,8.1898,8.1844,8.1751,8.1654,8.1596,8.1713,8.1823,8.1952,8.2047,8.2113,8.2038,8.189,8.1626,8.1259,8.0799,8.0335,7.9739,7.9341,7.9311,7.9191,7.918,7.9296,7.9546,7.9792,7.9817,7.9861,7.9895,7.989,7.9895,7.9938,7.9977,8.0311,8.0505,8.0653,8.0917,8.0188,7.9354,7.8666,7.805,7.6823,7.6356,7.6288,7.6313,7.6483,7.6602,7.6655,7.6834,7.6998,7.7041,7.7151,7.7245,7.7264,7.7247,7.7277,7.7322,7.7322,7.7322,7.7322,7.7322,7.7322,7.7322,7.7227,7.7202,7.7116,7.7037,7.6882,7.6725,7.6561,7.6495,7.6423,7.6112,7.5848,7.5718,7.5567,7.5465,7.5313,7.5407,7.5297,7.5135,7.5138,7.5253,7.5427,7.5598,7.5846,7.602,7.639,7.6569,7.6597,7.6723,7.6929,7.6995,7.7404,7.7563,7.7437,7.7369,7.7372,7.7258,7.7001,7.6949,7.6989,7.7024,7.7036,7.6874,7.6749,7.6554,7.6338,7.6108,7.5906,8.2186,8.2186,8.2186,8.2178,8.2174,8.1977,8.1906,8.1827,8.1664,8.1624,8.1572,8.1611,8.157,8.1613,8.1679,8.1768,8.1885,8.1519,8.1389,8.1118,8.0608,8.0261,7.9865,7.9478,7.8976,7.8903,7.9061,7.9073,7.9049,7.9437,7.9581,7.9651,7.9792,7.9861,7.9885,7.9885,7.9885,7.9972,8.0292,8.0485,8.0647,8.0786,8.0567,7.9784,7.9028,7.8308,7.7438,7.6791,7.6465,7.6469,7.6551,7.6602,7.6643,7.6777,7.689,7.6934,7.7025,7.71,7.712,7.7217,7.7266,7.7277,7.7306,7.7287,7.7279,7.7306,7.7314,7.7227,7.7122,7.7096,7.6982,7.6842,7.6655,7.6487,7.632,7.6189,7.6065,7.5871,7.5652,7.5541,7.5456,7.537,7.5361,7.542,7.5621,7.5505,7.5853,7.5936,7.6224,7.6453,7.684,7.715,7.7653,7.7812,7.7778,7.7799,7.7582,7.7459,7.7665,7.7787,7.7776,7.7684,7.7444,7.7237,7.6965,7.6889,7.6725,7.6529,7.6413,7.6495,7.6424,7.6282,7.6146,7.5977,7.575,8.2186,8.2178,8.2076,8.203,8.1989,8.1923,8.1768,8.1613,8.1531,8.1382,8.1322,8.1432,8.1456,8.1456,8.1424,8.145,8.1489,8.1272,8.0988,8.0649,8.0203,8.0044,7.9878,7.9709,7.9441,7.938,7.9491,7.9205,7.8812,7.9297,7.9407,7.9512,7.9729,7.9846,7.9885,7.9885,7.9885,7.9996,8.0264,8.0489,8.0578,8.079,8.0468,7.9209,7.9603,7.8702,7.7692,7.7262,7.7076,7.6937,7.6737,7.6641,7.6602,7.6721,7.6749,7.6769,7.6862,7.6889,7.6925,7.7081,7.7178,7.7186,7.7182,7.7182,7.7178,7.7182,7.7116,7.7049,7.6949,7.6922,7.6753,7.6569,7.6383,7.6227,7.6074,7.5919,7.5788,7.5665,7.5559,7.546,7.5442,7.5388,7.5393,7.5406,7.5647,7.5842,7.6281,7.6648,7.6815,7.7028,7.7293,7.7568,7.7968,7.815,7.8092,7.8064,7.805,7.7925,7.7839,7.7718,7.7662,7.7543,7.7318,7.7128,7.685,7.663,7.6322,7.591,7.5916,7.6323,7.6246,7.5965,7.5901,7.585,7.58,8.2186,8.2162,8.1943,8.1844,8.1877,8.1785,8.1602,8.1419,8.1327,8.119,8.1003,8.1106,8.1177,8.119,8.1101,8.1091,8.1024,8.0804,8.0524,8.024,8.0091,8.008,8.0089,8.0021,7.984,7.9991,7.9654,7.9223,7.9219,7.9393,7.9397,7.9502,7.9684,7.9846,7.9885,7.9885,7.9885,7.9982,8.0259,8.0485,8.055,8.0835,8.0576,7.9318,7.9386,7.8987,7.7982,7.7406,7.7189,7.7106,7.692,7.6555,7.6532,7.6594,7.6631,7.666,7.6692,7.6717,7.6761,7.687,7.7009,7.7017,7.7017,7.7017,7.7017,7.7017,7.6925,7.6842,7.6769,7.67,7.6577,7.6391,7.6231,7.605,7.5832,7.5669,7.5638,7.5559,7.5483,7.5402,7.5393,7.5384,7.5554,7.5594,7.5793,7.6015,7.6204,7.6578,7.6828,7.7077,7.7403,7.7673,7.7974,7.8067,7.8136,7.8036,7.7946,7.778,7.7636,7.7381,7.7281,7.725,7.7053,7.6729,7.6466,7.6236,7.6189,7.6186,7.6243,7.6337,7.6363,7.6513,7.5832,7.5852,7.6091,8.217,8.2145,8.1755,8.17,8.1768,8.1544,8.1379,8.1283,8.1141,8.0962,8.0789,8.0675,8.0693,8.0767,8.0698,8.0698,8.0666,8.0273,7.9957,7.9904,8.001,8.0082,8.0128,8.0106,8.0224,8.0359,7.9863,7.9491,7.9796,7.9514,7.9427,7.9556,7.9748,7.9885,7.9885,7.9885,7.9885,7.9943,8.0297,8.0429,8.0578,8.0862,8.0473,7.9856,7.949,7.9168,7.8593,7.7801,7.7583,7.756,7.6953,7.6556,7.6387,7.6387,7.6367,7.6363,7.6512,7.6565,7.659,7.6709,7.6769,7.6834,7.6838,7.6842,7.6797,7.6793,7.6879,7.689,7.67,7.6634,7.6465,7.6248,7.6061,7.5852,7.563,7.5474,7.5478,7.5451,7.537,7.5405,7.5373,7.5351,7.5608,7.5848,7.6018,7.6155,7.6219,7.6478,7.6753,7.7016,7.7297,7.7547,7.7824,7.8064,7.8093,7.7955,7.7834,7.7651,7.7497,7.738,7.7178,7.7093,7.682,7.643,7.6367,7.6342,7.6513,7.6638,7.6782,7.6984,7.7273,7.7254,7.6446,7.605,7.6476,8.163,8.1381,8.1163,8.1128,8.1163,8.1056,8.093,8.0808,8.0725,8.0661,8.0596,8.0508,8.0522,8.0527,8.041,8.0339,8.0283,7.9953,7.965,7.9533,7.9962,8.0323,8.0463,8.0529,8.064,8.0607,7.9965,7.9246,7.9228,7.9317,7.9487,7.9661,7.9815,7.987,7.9885,7.9885,7.9885,7.9928,8.0159,8.0358,8.0508,8.0721,8.06,7.9952,8.0001,7.9856,7.9426,7.8557,7.8376,7.8195,7.7511,7.6867,7.6469,7.6356,7.6288,7.6288,7.6404,7.6395,7.6408,7.645,7.6553,7.6651,7.6732,7.6773,7.6696,7.666,7.6861,7.7003,7.6765,7.6748,7.6801,7.6087,7.579,7.5616,7.5433,7.5321,7.5302,7.5284,7.5243,7.5466,7.5488,7.621,7.6629,7.6184,7.6197,7.6397,7.6493,7.6438,7.6635,7.683,7.7036,7.7277,7.7524,7.7926,7.8086,7.8089,7.8044,7.7944,7.7749,7.7554,7.734,7.7136,7.697,7.679,7.6668,7.654,7.6741,7.7005,7.7397,7.7677,7.7811,7.7664,7.6946,7.6871,7.7377,8.1259,8.1006,8.0767,8.0693,8.0689,8.0693,8.061,8.0499,8.0429,8.0396,8.0377,8.0325,8.0283,8.0245,8.0164,8.002,7.9993,7.996,7.9777,7.9665,8.0441,8.076,8.0894,8.0926,8.091,8.0752,8.0156,7.9491,7.9661,7.9504,7.965,7.9852,7.9848,7.9929,7.9963,7.9998,7.9885,7.9948,8.0116,8.0316,8.0494,8.059,8.0528,8.0193,8.0182,8.0327,7.9924,7.9635,7.9381,7.881,7.8127,7.7298,7.6791,7.6465,7.636,7.6288,7.6288,7.6288,7.63,7.6703,7.6892,7.6982,7.6918,7.6922,7.7027,7.7281,7.7534,7.7515,7.707,7.7164,7.7239,7.6428,7.623,7.614,7.6054,7.5984,7.5662,7.5684,7.5501,7.5648,7.6011,7.6783,7.7396,7.6809,7.6381,7.6609,7.6795,7.666,7.6587,7.6833,7.7028,7.7237,7.7528,7.7968,7.8242,7.8298,7.8285,7.8253,7.7984,7.7656,7.7635,7.7455,7.7312,7.7164,7.7046,7.6959,7.709,7.7308,7.7508,7.7782,7.8032,7.7767,7.7316,7.7555,7.802,8.097,8.0898,8.0611,8.0471,8.0475,8.0457,8.0452,8.0443,8.0268,8.0188,8.0178,8.0006,7.9948,7.9899,7.988,7.9773,7.9728,8.0101,8.0125,8.0442,8.1174,8.1296,8.1213,8.1102,8.1237,8.0753,8.015,7.9896,8.045,8.0157,8.0076,8.0207,8.0019,8.011,8.0186,8.0051,7.9883,7.987,8.002,8.0178,8.0264,8.0436,8.0276,8.0062,8.0037,8.0037,7.9748,7.9417,7.9313,7.8883,7.8267,7.7688,7.7149,7.6682,7.6433,7.6288,7.6288,7.6288,7.6396,7.6904,7.7262,7.7336,7.7624,7.7583,7.7669,7.7995,7.8208,7.8266,7.8026,7.8058,7.8,7.7728,7.742,7.735,7.7281,7.6975,7.6519,7.6259,7.5969,7.6055,7.6377,7.6944,7.7563,7.7267,7.6687,7.7027,7.7078,7.6633,7.6657,7.7115,7.7293,7.7452,7.7758,7.8139,7.8313,7.8328,7.7995,7.7809,7.7872,7.7675,7.7703,7.7566,7.7198,7.7053,7.7276,7.7366,7.7335,7.7333,7.7397,7.7652,7.7836,7.7833,7.7387,7.7897,7.8251,8.0607,8.0209,8.0121,8.0063,8.0068,8.0073,8.0068,8.0049,7.9996,7.9977,7.9972,7.9914,7.9802,7.967,7.9695,7.9531,7.962,7.9817,8.0062,8.063,8.1491,8.1772,8.181,8.1675,8.1753,8.1317,8.0676,8.0152,8.0856,8.07,8.0783,8.1118,8.0324,8.037,8.0248,7.9992,7.9807,7.9743,7.994,7.9954,7.9866,7.9948,7.9878,7.9958,7.9992,7.9997,7.9888,7.9707,7.9349,7.8231,7.7869,7.7326,7.6605,7.6392,7.6288,7.6288,7.6288,7.6324,7.6433,7.704,7.757,7.789,7.8367,7.8633,7.8579,7.8567,7.8854,7.8905,7.8715,7.8578,7.854,7.8364,7.8154,7.8022,7.7939,7.771,7.7263,7.6906,7.6652,7.6849,7.7132,7.7357,7.791,7.7433,7.7006,7.7395,7.7402,7.6899,7.6658,7.708,7.728,7.7396,7.7824,7.8119,7.8168,7.814,7.7738,7.7408,7.7528,7.7474,7.7215,7.7005,7.6829,7.6868,7.7023,7.7228,7.7437,7.7328,7.6929,7.7122,7.7286,7.7439,7.763,7.7969,7.823,8.0226,7.9904,7.9885,7.9885,7.987,7.9807,7.9768,7.9773,7.9856,7.9856,7.9768,7.9758,7.9694,7.9586,7.9487,7.9332,7.916,7.9804,8.0214,8.076,8.1564,8.1872,8.2096,8.2107,8.1886,8.1499,8.1183,8.0802,8.1241,8.1045,8.0977,8.1134,8.0427,8.0283,8.0182,8.0003,7.9726,7.9735,7.9776,7.9782,7.97,7.9666,7.9982,8.0086,8.0188,8.0246,8.0214,8.0105,7.9277,7.834,7.8122,7.7326,7.6714,7.6537,7.6605,7.6642,7.6827,7.7076,7.7434,7.8127,7.8337,7.8512,7.9088,7.9386,7.9518,7.9495,7.9611,7.964,7.9218,7.8884,7.8898,7.8884,7.8698,7.8512,7.8441,7.8334,7.7977,7.7625,7.763,7.7782,7.793,7.8102,7.7963,7.7496,7.7064,7.7119,7.7257,7.7257,7.6899,7.6921,7.6991,7.7009,7.756,7.8035,7.7996,7.7978,7.78,7.7501,7.7455,7.7325,7.6868,7.688,7.7068,7.6925,7.6666,7.6978,7.7366,7.6664,7.6323,7.656,7.6755,7.6771,7.7026,7.7444,7.7689,7.9919,7.9885,7.9885,7.987,7.9836,7.967,7.9597,7.9566,7.9748,7.9763,7.9646,7.9586,7.9612,7.9477,7.9286,7.922,7.9279,7.9785,8.0516,8.0961,8.1691,8.2136,8.2307,8.2207,8.2221,8.1658,8.1321,8.1361,8.1338,8.1336,8.1267,8.0929,8.0151,7.9964,8.0258,7.9962,7.974,7.9714,7.9781,7.9837,7.992,8.0149,8.0416,8.0397,8.0487,8.0576,8.054,8.025,7.9784,7.9245,7.8666,7.7692,7.7402,7.7117,7.7181,7.7326,7.7547,7.7794,7.8279,7.8954,7.9291,7.9432,7.9612,7.9855,7.997,7.9717,7.967,7.9945,7.961,7.946,7.9436,7.9443,7.9302,7.9247,7.9217,7.9074,7.8829,7.855,7.8591,7.8583,7.8252,7.846,7.8791,7.8324,7.742,7.7068,7.6791,7.704,7.7277,7.7063,7.71,7.7093,7.7926,7.8386,7.7726,7.7753,7.7901,7.7774,7.7544,7.7419,7.7211,7.7263,7.7442,7.7232,7.6983,7.7049,7.7152,7.6562,7.6201,7.6263,7.637,7.6158,7.6433,7.7106,7.7401,8.0035,7.9895,7.9885,7.9802,7.966,7.9596,7.9387,7.9115,7.9502,7.9625,7.9616,7.9561,7.9472,7.9271,7.9185,7.9192,7.9599,7.9889,8.0675,8.1369,8.2031,8.2417,8.2793,8.2793,8.272,8.2591,8.2283,8.194,8.1958,8.2097,8.2153,8.1912,8.0985,8.0523,8.0425,8.0066,7.9754,7.9768,7.9841,7.9691,7.951,7.8972,7.8751,7.89,7.9001,7.9255,7.9304,7.9309,7.9023,7.8774,7.867,7.8448,7.8376,7.8154,7.8195,7.8376,7.8395,7.8542,7.8825,7.9386,7.9639,7.9687,7.9716,8.004,8.0041,7.9642,7.9564,7.9913,8.0078,7.9977,7.9904,7.9895,7.9885,7.9885,7.989,7.9711,7.9543,7.9505,7.9467,7.9163,7.8745,7.8857,7.9256,7.89,7.8018,7.7287,7.6689,7.671,7.7355,7.7483,7.777,7.7977,7.8829,7.903,7.8135,7.7612,7.7798,7.767,7.7427,7.7405,7.7482,7.7477,7.7477,7.7477,7.7406,7.7442,7.7299,7.6795,7.6488,7.6529,7.631,7.6279,7.6675,7.7285,7.741,7.9996,7.9885,7.9787,7.9689,7.9556,7.9382,7.9175,7.911,7.9332,7.9427,7.9427,7.9412,7.9276,7.9175,7.9217,7.9374,7.9824,8.0154,8.1013,8.1785,8.2166,8.2582,8.2928,8.3203,8.3138,8.3033,8.2822,8.2623,8.2577,8.2428,8.2345,8.2244,8.1529,8.0854,8.0627,8.0122,7.9834,7.988,7.992,7.9703,7.9372,7.9112,7.9123,7.9103,7.9165,7.9226,7.9336,7.9481,7.9179,7.8919,7.8659,7.8478,7.8451,7.8413,7.8764,7.9039,7.9194,7.9214,7.9427,7.9639,7.9849,7.9843,7.9477,7.9635,7.9904,7.9537,7.9429,7.9715,7.9956,7.9899,7.9895,7.9885,7.9885,7.9885,7.9909,7.9852,7.9648,7.9513,7.9702,7.9892,7.9436,7.9064,7.9282,7.915,7.8391,7.8001,7.7348,7.7138,7.7603,7.7981,7.8288,7.8632,7.9349,7.9268,7.8344,7.7856,7.7738,7.7581,7.7447,7.7498,7.7651,7.7549,7.7477,7.7692,7.7799,7.7763,7.7513,7.7249,7.7234,7.7351,7.6961,7.653,7.7042,7.7535,7.7681,7.987,7.9822,7.9691,7.9556,7.9487,7.9125,7.9054,7.9191,7.9246,7.9221,7.9191,7.9206,7.9084,7.9142,7.9362,7.961,7.9884,8.0154,8.1078,8.1891,8.2096,8.2582,8.2963,8.3203,8.3203,8.3203,8.3098,8.3063,8.3063,8.2809,8.2497,8.2206,8.1545,8.0765,8.0632,8.044,8.0318,8.0073,8.0002,7.9997,7.9977,7.9971,7.9888,8.0152,8.0395,8.0623,8.0483,8.0288,7.9738,7.9608,7.9134,7.9053,7.8981,7.9107,7.9399,7.972,7.9784,8.0022,8.0287,8.027,8.025,7.9997,7.9409,7.9288,7.9622,7.9659,7.9557,7.9624,7.9864,7.993,7.992,7.9895,7.9895,7.9919,7.9953,8.0001,7.9799,7.9685,8.0073,8.0441,8.0036,7.9533,7.9424,7.9314,7.8929,7.8576,7.8346,7.8252,7.8297,7.8612,7.8914,7.9058,7.9409,7.9076,7.836,7.8346,7.8165,7.8161,7.8119,7.7929,7.7901,7.8258,7.8329,7.812,7.8191,7.8401,7.8301,7.8063,7.8108,7.8087,7.7544,7.7122,7.7535,7.7932,7.8042,7.9787,7.9625,7.9626,7.9477,7.9266,7.918,7.917,7.9231,7.9422,7.9347,7.9084,7.913,7.9099,7.8906,7.8789,7.9181,8.0019,8.0294,8.1042,8.1891,8.2207,8.2652,8.2998,8.3203,8.3203,8.3203,8.3203,8.3203,8.322,8.3025,8.2825,8.263,8.2572,8.1865,8.1151,8.1077,8.1072,8.0608,8.0399,8.0506,7.9831,7.9615,7.9274,7.9132,7.8862,7.9138,7.9346,7.9494,7.9795,8.0046,8.0045,7.9957,7.9899,7.9877,8.0107,8.0167,8.0265,8.0234,8.0379,8.0316,8.015,8.0025,7.9613,7.9629,7.9859,7.9935,7.9899,7.9935,8.0073,8.0037,8.0002,7.9959,7.9938,8.0006,8.0054,8.0145,8.0106,8.0232,8.0516,8.0602,8.0466,8.0264,8.0242,7.9915,7.9305,7.8957,7.862,7.8578,7.8905,7.9203,7.9455,7.9521,7.9587,7.8886,7.8212,7.8778,7.8806,7.8805,7.8836,7.8838,7.8998,7.9395,7.9395,7.8967,7.9109,7.939,7.9214,7.8735,7.8679,7.8563,7.8029,7.7787,7.8116,7.8258,7.8334]},{"header":{"parameterUnit":"m.s-1","parameterCategory":1,"la1":31.0,"la2":29.5877,"lo1":-88.7671,"lo2":-86.6584,"dy":0.0162,"dx":0.0185,"nx":115,"ny":88,"refTime":"2024-02-18T06:00:00:Z","depth":0,"parameterNumber":3,"parameterNumberName":"V-component_of_WINDS"},"data":[0.0,0.0,0.0,0.0,0.0,0.0,0.0,0.0,0.0,0.0,0.0,0.0,0.0,0.0,0.0,0.0,0.0,0.0,0.0,0.0,0.0,0.0,0.0,0.0,0.0,0.0,0.0,0.0,0.0,0.0,0.0,0.0,0.0,0.0,0.0,0.0,0.0,0.0,0.0,0.0,0.0,0.0,0.0,0.0,0.0,0.0,0.0,0.0,0.0,0.0,0.0,0.0,0.0,0.0,0.0,0.0,0.0,0.0,0.0,0.0,0.0,0.0,0.0,0.0,0.0,0.0,0.0,0.0,0.0,0.0,0.0,0.0,0.0,0.0,0.0,0.0,0.0,0.0,0.0,0.0,0.0,0.0,0.0,0.0,0.0,0.0,0.0,0.0,0.0,0.0,0.0,0.0,0.0,0.0,0.0,0.0,0.0,0.0,0.0,0.0,0.0,0.0,0.0,0.0,0.0,0.0,0.0,0.0,0.0,0.0,0.0,0.0,0.0,0.0,0.0,0.0,0.0,0.0,0.0,0.0,0.0,0.0,0.0,0.0,0.0,0.0,0.0,0.0,0.0,0.0,0.0,0.0,0.0,0.0,0.0,0.0,0.0,0.0,0.0,0.0,0.0,0.0,0.0,0.0,0.0,0.0,0.0,0.0,0.0,0.0,0.0,0.0,0.0,0.0,0.0,0.0,0.0,0.0,0.0,0.0,0.0,0.0,0.0,0.0,0.0,0.0,0.0,0.0,0.0,0.0,0.0,0.0,0.0,0.0,0.0,0.0,0.0,0.0,0.0,0.0,0.0,0.0,0.0,0.0,0.0,0.0,0.0,0.0,0.0,0.0,0.0,0.0,0.0,0.0,0.0,0.0,0.0,0.0,0.0,0.0,0.0,0.0,0.0,0.0,0.0,0.0,0.0,0.0,0.0,0.0,0.0,0.0,0.0,0.0,0.0,0.0,0.0,0.0,0.0,0.0,0.0,0.0,0.0,0.0,0.0,0.0,0.0,0.0,0.0,0.0,0.0,0.0,0.0,0.0,0.0,0.0,0.0,0.0,0.0,0.0,0.0,0.0,0.0,0.0,0.0,0.0,0.0,0.0,0.0,0.0,0.0,0.0,0.0,0.0,0.0,0.0,0.0,0.0,0.0,0.0,0.0,0.0,0.0,0.0,0.0,0.0,0.0,0.0,0.0,0.0,0.0,0.0,0.0,0.0,0.0,0.0,0.0,0.0,0.0,0.0,0.0,0.0,0.0,0.0,0.0,0.0,0.0,0.0,0.0,0.0,0.0,0.0,0.0,0.0,0.0,0.0,0.0,0.0,0.0,0.0,0.0,0.0,0.0,0.0,0.0,0.0,0.0,0.0,0.0,0.0,0.0,0.0,0.0,0.0,0.0,0.0,0.0,0.0,0.0,0.0,0.0,0.0,0.0,0.0,0.0,0.0,0.0,0.0,0.0,0.0,0.0,0.0,0.0,0.0,0.0,0.0,0.0,0.0,0.0,0.0,0.0,0.0,0.0,0.0,0.0,0.0,0.0,0.0,0.0,0.0,0.0,0.0,0.0,0.0,0.0,0.0,0.0,0.0,0.0,0.0,0.0,0.0,0.0,0.0,0.0,0.0,0.0,0.0,0.0,0.0,0.0,0.0,0.0,0.0,0.0,0.0,0.0,0.0,0.0,0.0,0.0,0.0,0.0,0.0,0.0,0.0,0.0,0.0,0.0,0.0,0.0,0.0,0.0,0.0,0.0,0.0,0.0,0.0,0.0,0.0,0.0,0.0,0.0,0.0,0.0,0.0,0.0,0.0,0.0,0.0,0.0,0.0,0.0,0.0,0.0,0.0,0.0,0.0,0.0,0.0,0.0,0.0,0.0,0.0,0.0,0.0,0.0,0.0,0.0,0.0,0.0,0.0,0.0,0.0,0.0,0.0,0.0,0.0,0.0,0.0,0.0,0.0,0.0,0.0,0.0,0.0,0.0,0.0,0.0,0.0,0.0,0.0,0.0,0.0,0.0,0.0,0.0,0.0,0.0,0.0,0.0,0.0,0.0,0.0,0.0,0.0,0.0,0.0,0.0,0.0,0.0,0.0,0.0,0.0,0.0,0.0,0.0,0.0,0.0,0.0,0.0,0.0,0.0,0.0,0.0,0.0,0.0,0.0,0.0,0.0,0.0,0.0,0.0,0.0,0.0,0.0,0.0,0.0,0.0,0.0,0.0,0.0,0.0,0.0,0.0,0.0,0.0,0.0,0.0,0.0,0.0,0.0,0.0,0.0,0.0,0.0,0.0,0.0,0.0,0.0,0.0,0.0,0.0,0.0,0.0,0.0,0.0,0.0,0.0,0.0,0.0,0.0,0.0,0.0,0.0,0.0,0.0,0.0,0.0,0.0,0.0,0.0,0.0,0.0,0.0,0.0,0.0,0.0,0.0,0.0,0.0,0.0,0.0,0.0,0.0,0.0,0.0,0.0,0.0,0.0,0.0,0.0,0.0,0.0,0.0,0.0,0.0,0.0,0.0,0.0,0.0,0.0,0.0,0.0,0.0,0.0,0.0,0.0,0.0,0.0,0.0,0.0,0.0,0.0,0.0,0.0,0.0,0.0,0.0,0.0,0.0,0.0,0.0,0.0,0.0,0.0,0.0,0.0,0.0,0.0,0.0,0.0,0.0,0.0,0.0,0.0,0.0,0.0,0.0,0.0,0.0,0.0,0.0,0.0,0.0,0.0,0.0,0.0,0.0,0.0,0.0,0.0,0.0,0.0,0.0,0.0,0.0,0.0,0.0,0.0,0.0,0.0,0.0,0.0,0.0,0.0,0.0,0.0,0.0,0.0,0.0,0.0,0.0,0.0,0.0,0.0,0.0,0.0,0.0,0.0,0.0,0.0,0.0,0.0,0.0,0.0,0.0,0.0,0.0,0.0,0.0,0.0,0.0,0.0,0.0,0.0,0.0,0.0,0.0,0.0,0.0,0.0,0.0,0.0,0.0,0.0,0.0,0.0,0.0,0.0,0.0,0.0,0.0,0.0,0.0,0.0,0.0,0.0,0.0,0.0,0.0,0.0,0.0,0.0,0.0,0.0,0.0,0.0,0.0,0.0,0.0,0.0,0.0,0.0,0.0,0.0,0.0,0.0,0.0,0.0,0.0,0.0,0.0,0.0,0.0,0.0,0.0,0.0,0.0,0.0,0.0,0.0,0.0,0.0,0.0,0.0,0.0,0.0,0.0,0.0,0.0,0.0,0.0,0.0,0.0,0.0,0.0,0.0,0.0,0.0,0.0,0.0,0.0,0.0,0.0,0.0,0.0,0.0,0.0,0.0,0.0,0.0,0.0,0.0,0.0,0.0,0.0,0.0,0.0,0.0,0.0,0.0,0.0,0.0,0.0,0.0,0.0,0.0,0.0,0.0,0.0,0.0,0.0,0.0,0.0,0.0,0.0,0.0,0.0,0.0,0.0,0.0,0.0,0.0,0.0,0.0,0.0,0.0,0.0,0.0,0.0,0.0,0.0,0.0,0.0,0.0,0.0,0.0,0.0,0.0,0.0,0.0,0.0,0.0,0.0,0.0,0.0,0.0,0.0,0.0,0.0,0.0,0.0,0.0,0.0,0.0,0.0,0.0,0.0,0.0,0.0,0.0,0.0,0.0,0.0,0.0,0.0,0.0,0.0,0.0,0.0,0.0,0.0,0.0,0.0,0.0,0.0,0.0,0.0,0.0,0.0,0.0,0.0,0.0,0.0,0.0,0.0,0.0,0.0,0.0,0.0,0.0,0.0,0.0,0.0,0.0,0.0,0.0,0.0,0.0,0.0,0.0,0.0,0.0,0.0,0.0,0.0,0.0,0.0,0.0,0.0,0.0,0.0,0.0,0.0,0.0,0.0,0.0,0.0,0.0,0.0,0.0,0.0,0.0,0.0,0.0,0.0,0.0,0.0,0.0,0.0,0.0,0.0,0.0,0.0,0.0,0.0,0.0,0.0,0.0,0.0,0.0,0.0,0.0,0.0,0.0,0.0,0.0,0.0,0.0,0.0,0.0,0.0,0.0,0.0,0.0,0.0,0.0,0.0,0.0,0.0,0.0,0.0,0.0,0.0,0.0,0.0,0.0,0.0,0.0,0.0,0.0,0.0,0.0,0.0,0.0,0.0,0.0,0.0,0.0,0.0,0.0,0.0,0.0,0.0,0.0,0.0,0.0,0.0,0.0,0.0,0.0,0.0,0.0,0.0,0.0,0.0,0.0,0.0,0.0,0.0,0.0,0.0,0.0,0.0,0.0,0.3428,0.0,0.0,0.0,0.0,0.0,0.0,0.0,0.0,0.0,0.0,0.0,0.0,0.0,0.0,0.0,0.0,0.0,0.0,0.0,0.0,0.0,0.0,0.0,0.0,0.0,0.0,0.0,0.0,0.0,0.0,0.0,0.0,0.0,0.0,0.0,0.0,0.0,0.0,0.0,0.0,0.0,0.0,0.0,0.0,0.0,0.0,0.0,0.0,0.0,0.0,0.0,0.0,0.0,0.0,0.0,0.0,0.0,0.0,0.0,0.0,0.0,0.0,0.0,0.0,0.0,0.0,0.0,0.0,0.0,0.0,0.0,0.0,0.0,0.0,0.0,0.0,0.0,0.0,0.0,0.0,0.0,0.0,0.0,0.0,0.0,0.0,0.0,0.0,0.0,0.0,0.0,0.0,0.0,0.0,0.0,0.0,0.0,0.0,0.0,0.0,0.0,0.0,0.0,0.0,0.0,0.0,0.0,0.0,0.0,0.0,0.4468,0.3387,0.5025,0.504,0.3152,0.0,0.0,0.0,0.0,0.0,0.0,0.0,0.0,0.0,0.0,0.0,0.0,0.0,0.0,0.0,0.0,0.0,0.0,0.0,0.0,0.0,0.0,0.0,0.0,0.0,0.0,0.0,0.0,0.0,0.0,0.0,0.0,0.0,0.0,0.0,0.0,0.0,0.0,0.0,0.0,0.0,0.0,0.0,0.0,0.0,0.0,0.0,0.0,0.0,0.0,0.0,0.0,0.0,0.0,0.0,0.0,0.0,0.0,0.0,0.0,0.0,0.0,0.0,0.0,0.0,0.0,0.0,0.0,0.0,0.0,0.0,0.0,0.0,0.0,0.0,0.0,0.0,0.0,0.0,0.0,0.0,0.0,0.0,0.0,0.0,0.0,0.0,0.0,0.0,0.0,0.0,0.0,0.0,0.0,0.0,0.0,0.0,0.0,0.0,0.0,0.0,0.0,0.0,0.0,0.0,0.0,0.0,0.0,0.0,0.0,0.0,0.0,0.4993,0.4949,0.3372,0.0,0.0,0.0,0.0,0.0,0.0,0.0,0.0,0.0,0.0,0.0,0.0,0.0,0.0,0.0,0.0,0.0,0.0,0.0,0.0,0.0,0.0,0.0,0.0,0.0,0.0,0.0,0.0,0.0,0.0,0.0,0.0,0.0,0.0,0.0,0.0,0.0,0.0,0.0,0.0,0.0,0.0,0.0,0.0,0.0,0.0,0.0,0.0,0.0,0.0,0.0,0.0,0.0,0.0,0.0,0.0,0.0,0.0,0.0,0.0,0.0,0.0,0.0,0.0,0.0,0.0,0.0,0.0,0.0,0.0,0.0,0.0,0.0,0.0,0.0,0.0,0.0,0.0,0.0,0.0,0.0,0.0,0.0,0.0,0.0,0.0,0.0,0.0,0.0,0.0,0.0,0.0,0.0,0.0,0.0,0.0,0.0,0.0,0.0,0.0,0.0,0.0,0.0,0.0,0.0,0.0,0.0,0.0,0.0,0.0,0.385,0.4466,0.4695,0.0,0.4415,0.0,0.0,0.0,0.0,0.0,0.0,0.0,0.0,0.0,0.0,0.0,0.0,0.0,0.0,0.0,0.0,0.0,0.0,0.0,0.0,0.0,0.0,0.0,0.0,0.0,0.0,0.0,0.0,0.0,0.0,0.0,0.0,0.0,0.0,0.0,0.0,0.0,0.0,0.0,0.0,0.0,0.0,0.0,0.0,0.0,0.0,0.0,0.0,0.0,0.0,0.0,0.0,0.0,0.0,0.0,0.0,0.0,0.0,0.0,0.0,0.0,0.0,0.0,0.0,0.0,0.0,0.0,0.0,0.0,0.0,0.0,0.0,0.0,0.0,0.0,0.0,0.0,0.0,0.0,0.0,0.0,0.0,0.0,0.0,0.0,0.0,0.0,0.0,0.0,0.0,0.0,0.0,0.0,0.0,0.0,0.0,0.0,0.0,0.0,0.0,0.0,0.0,0.0,0.0,0.0,0.0,0.0,0.0,0.0,0.0,0.3471,0.4459,0.4307,0.4028,0.0,0.0,0.0,0.0,0.0,0.0,0.0,0.0,0.0,0.0,0.0,0.0,0.0,0.0,0.0,0.0,0.0,0.0,0.0,0.0,0.0,0.0,0.0,0.0,0.0,0.0,0.0,0.0,0.0,0.0,0.0,0.0,0.0,0.0,0.0,0.0,0.0,0.0,0.0,0.0,0.0,0.0,0.0,0.0,0.0,0.0,0.0,0.0,0.0,0.0,0.0,0.0,0.0,0.0,0.0,0.0,0.0,0.0,0.0,0.0,0.0,0.0,0.0,0.0,0.0,0.0,0.0,0.0,0.0,0.0,0.0,0.0,0.0,0.0,0.0,0.0,0.0,0.0,0.0,0.0,0.0,0.0,0.0,0.0,0.0,0.0,0.0,0.0,0.0,0.0,0.0,0.0,0.0,0.0,0.0,0.0,0.0,0.0,0.0,0.0,0.0,0.0,0.0,0.0,0.0,0.0,0.0,0.0,0.0,0.0,0.3433,0.3702,0.4761,0.4074,0.3561,0.3389,0.0,0.0,0.0,0.0,0.0,0.0,0.0,0.0,0.0,0.0,0.0,0.0,0.0,0.0,0.0,0.0,0.0,0.0,0.0,0.0,0.0,0.0,0.0,0.0,0.0,0.0,0.0,0.0,0.0,0.0,0.0,0.0,0.0,0.0,0.0,0.0,0.0,0.0,0.0,0.0,0.0,0.0,0.0,0.0,0.0,0.0,0.0,0.0,0.0,0.0,0.0,0.0,0.0,0.0,0.0,0.0,0.0,0.0,0.0,0.0,0.0,0.0,0.0,0.0,0.0,0.0,0.0,0.0,0.0,0.0,0.0,0.0,0.0,0.0,0.0,0.0,0.0,0.0,0.0,0.0,0.0,0.0,0.0,0.0,0.0,0.0,0.0,0.0,0.0,0.0,0.0,0.0,0.0,0.0,0.0,0.0,0.0,0.0,0.0,0.0,0.0,0.0,0.0,0.0,0.0,0.0,0.0,0.0,0.5783,0.4859,0.4863,0.5864,0.4091,0.3547,0.0,0.0,0.0,0.0,0.0,0.0,0.0,0.0,0.0,0.0,0.0,0.0,0.0,0.0,0.0,0.0,0.0,0.0,0.0,0.0,0.0,0.0,0.0,0.0,0.0,0.0,0.0,0.0,0.0,0.0,0.0,0.0,0.0,0.0,0.0,0.0,0.0,0.0,0.0,0.0,0.0,0.0,0.0,0.0,0.0,0.0,0.0,0.0,0.0,0.0,0.0,0.0,0.0,0.0,0.0,0.0,0.0,0.0,0.0,0.0,0.0,0.0,0.0,0.0,0.0,0.0,0.0,0.0,0.0,0.0,0.0,0.0,0.0,0.0,0.0,0.0,0.0,0.0,0.0,0.0,0.0,0.0,0.0,0.0,0.0,0.0,0.0,0.0,0.0,0.0,0.0,0.0,0.0,0.0,0.0,0.0,0.0,0.0,0.0,0.0,0.0,0.0,0.0,0.0,0.0,0.0,0.0,0.0,0.0,0.3907,0.4769,0.4968,0.4472,0.4567,0.4578,0.0,0.0,0.0,0.0,0.0,0.0,0.0,0.0,0.0,0.0,0.0,0.0,0.0,0.0,0.0,0.0,0.0,0.0,0.0,0.0,0.0,0.0,0.0,0.0,0.0,0.0,0.0,0.0,0.0,0.0,0.0,0.0,0.0,0.0,0.0,0.0,0.0,0.0,0.0,0.0,0.0,0.0,0.0,0.0,0.0,0.0,0.0,0.0,0.0,0.0,0.0,0.0,0.0,0.0,0.0,0.0,0.0,0.0,0.0,0.0,0.0,0.0,0.0,0.0,0.0,0.0,0.0,0.0,0.0,0.0,0.0,0.0,0.0,0.0,0.0,0.0,0.0,0.0,0.0,0.0,0.0,0.0,0.0,0.0,0.0,0.0,0.0,0.0,0.0,0.0,0.0,0.0,0.0,0.0,0.0,0.0,0.0,0.0,0.0,0.0,0.0,0.0,0.0,0.0,0.0,0.0,0.0,0.0,0.0,0.3523,0.0,0.5609,0.4692,0.4998,0.4901,0.0,0.0,0.0,0.0,0.0,0.0,0.0,0.0,0.0,0.0,0.0,0.0,0.0,0.0,0.0,0.0,0.0,0.0,0.0,0.0,0.0,0.0,0.0,0.0,0.0,0.0,0.0,0.0,0.0,0.0,0.0,0.0,0.0,0.0,0.0,0.0,0.0,0.0,0.0,0.0,0.0,0.0,0.0,0.0,0.0,0.0,0.0,0.0,0.0,0.0,0.0,0.0,0.0,0.0,0.0,0.0,0.0,0.0,0.0,0.0,0.0,0.0,0.0,0.0,0.0,0.0,0.0,0.0,0.0,0.0,0.0,0.0,0.0,0.0,0.0,0.0,0.0,0.0,0.0,0.0,0.0,0.0,0.0,0.0,0.0,0.0,0.0,0.0,0.0,0.0,0.0,0.0,0.0,0.0,0.0,0.0,0.0,0.0,0.0,0.0,0.0,0.0,0.0,0.0,0.0,0.0,0.0,0.0,0.32,0.507,0.6272,0.6886,0.6944,0.5357,0.4437,0.0,0.0,0.0,0.0,0.0,0.0,0.0,0.0,0.0,0.0,0.0,0.0,0.0,0.0,0.0,0.0,0.0,0.0,0.0,0.0,0.0,0.0,0.0,0.0,0.0,0.0,0.0,0.0,0.0,0.0,0.0,0.0,0.0,0.0,0.0,0.0,0.0,0.0,0.0,0.0,0.0,0.0,0.0,0.0,0.0,0.0,0.0,0.0,0.0,0.0,0.0,0.0,0.0,0.0,0.0,0.0,0.0,0.0,0.0,0.0,0.0,0.0,0.0,0.0,0.0,0.0,0.0,0.0,0.0,0.0,0.0,0.0,0.0,0.0,0.0,0.0,0.0,0.0,0.0,0.0,0.0,0.0,0.0,0.0,0.0,0.0,0.0,0.0,0.0,0.0,0.0,0.0,0.0,0.0,0.0,0.0,0.0,0.0,0.0,0.0,0.0,0.0,0.0,0.0,0.0,0.0,0.0,0.0,0.0,0.4073,0.6401,0.7465,0.7065,0.6316,0.5809,0.0,0.0,0.0,0.0,0.0,0.0,0.0,0.0,0.0,0.0,0.0,0.0,0.0,0.0,0.0,0.0,0.0,0.0,0.0,0.0,0.0,0.0,0.0,0.0,0.0,0.0,0.0,0.0,0.0,0.0,0.0,0.0,0.0,0.0,0.0,0.0,0.0,0.0,0.0,0.0,0.0,0.0,0.0,0.0,0.0,0.0,0.0,0.0,0.0,0.0,0.0,0.0,0.0,0.0,0.0,0.0,0.0,0.0,0.0,0.0,0.0,0.0,0.0,0.0,0.0,0.0,0.0,0.0,0.0,0.0,0.0,0.0,0.0,0.0,0.0,0.0,0.0,0.0,0.0,0.0,0.0,0.0,0.0,0.0,0.0,0.0,0.0,0.0,0.0,0.0,0.0,0.0,0.0,0.0,0.0,0.0,0.0,0.0,0.0,0.0,0.0,0.0,0.0,0.0,0.0,0.0,0.0,0.0,0.0,0.4943,0.7226,0.8231,0.77,0.7048,0.6525,0.6099,0.0,0.0,0.0,0.0,0.0,0.0,0.0,0.0,0.0,0.0,0.0,0.0,0.0,0.0,0.0,0.0,0.0,0.0,0.0,0.0,0.0,0.0,0.0,0.0,0.0,0.0,0.0,0.0,0.0,0.0,0.0,0.0,0.0,0.0,0.0,0.0,0.0,0.0,0.0,0.0,0.0,0.0,0.0,0.0,0.0,0.0,0.0,0.0,0.0,0.0,0.0,0.0,0.0,0.0,0.0,0.0,0.0,0.0,0.0,0.0,0.0,0.0,0.0,0.0,0.0,0.0,0.0,0.0,0.0,0.0,0.0,0.0,0.0,0.0,0.0,0.0,0.0,0.0,0.0,0.0,0.0,0.0,0.0,0.0,0.0,0.0,0.0,0.0,0.0,0.0,0.0,0.0,0.0,0.0,0.0,0.0,0.0,0.0,0.0,0.0,0.0,0.0,0.0,0.0,0.0,0.0,0.0,0.0,0.7101,0.8559,0.9141,0.8742,0.7545,0.663,0.0,0.0,0.0,0.0,0.0,0.0,0.0,0.0,0.0,0.0,0.0,0.0,0.0,0.0,0.0,0.0,0.0,0.0,0.0,0.0,0.0,0.0,0.0,0.0,0.0,0.0,0.0,0.0,0.0,0.0,0.0,0.0,0.0,0.0,0.0,0.0,0.0,0.0,0.0,0.0,0.0,0.0,0.0,0.0,0.0,0.0,0.0,0.0,0.0,0.0,0.0,0.0,0.0,0.0,0.0,0.0,0.0,0.0,0.0,0.0,0.0,0.0,0.0,0.0,0.0,0.0,0.0,0.0,0.0,0.0,0.0,0.0,0.0,0.0,0.0,0.0,0.0,0.0,0.0,0.0,0.0,0.0,0.0,0.0,0.0,0.0,0.0,0.0,0.0,0.0,0.0,0.0,0.0,0.0,0.0,0.0,0.0,0.0,0.0,0.0,0.0,0.0,0.0,0.0,0.0,0.0,0.0,0.0,0.0,0.7399,0.903,0.974,0.9417,0.7794,0.6797,0.0,0.0,0.0,0.0,0.0,0.0,0.0,0.0,0.0,0.0,0.0,0.0,0.0,0.0,0.0,0.0,0.0,0.0,0.0,0.0,0.0,0.0,0.0,0.0,0.0,0.0,0.0,0.0,0.0,0.0,0.0,0.0,0.0,0.0,0.0,0.0,0.0,0.0,0.0,0.0,0.0,0.0,0.0,0.0,0.0,0.0,0.0,0.0,0.0,0.0,0.0,0.0,0.0,0.0,0.0,0.0,0.0,0.0,0.0,0.0,0.0,0.0,0.0,0.0,0.0,0.0,0.0,0.0,0.0,0.0,0.0,0.0,0.0,0.0,0.0,0.0,0.0,0.0,0.0,0.0,0.0,0.0,0.0,0.0,0.0,0.0,0.0,0.0,0.0,0.0,0.0,0.0,0.0,0.0,0.0,0.0,0.0,0.0,0.0,0.0,0.0,0.0,0.0,0.0,0.0,0.0,0.0,0.0,0.6945,0.8481,0.9609,1.0223,1.0338,0.8754,0.7657,0.0,0.0,0.0,0.0,0.0,0.0,0.0,0.0,0.0,0.0,0.0,0.0,0.0,0.0,0.0,0.0,0.0,0.0,0.0,0.0,0.0,0.0,0.0,0.0,0.0,0.0,0.0,0.0,0.0,0.0,0.0,0.0,0.0,0.0,0.0,0.0,0.0,0.0,0.0,0.0,0.0,0.0,0.0,0.0,0.0,0.0,0.0,0.0,0.0,0.0,0.0,0.0,0.0,0.0,0.0,0.0,0.0,0.0,0.0,0.0,0.0,0.0,0.0,0.0,0.0,0.0,0.0,0.0,0.0,0.0,0.0,0.0,0.0,0.0,0.0,0.0,0.0,0.0,0.0,0.0,0.0,0.0,0.0,0.0,0.0,0.0,0.0,0.0,0.0,0.0,0.0,0.0,0.0,0.0,0.0,0.0,0.0,0.0,0.0,0.0,0.0,0.0,0.0,0.0,0.0,0.0,0.0,0.0,0.7611,0.9941,1.0266,1.0682,1.1188,0.9979,0.8754,0.0,0.0,0.0,0.0,0.0,0.0,0.0,0.0,0.0,0.0,0.0,0.0,0.0,0.0,0.0,0.0,0.0,0.0,0.0,0.0,0.0,0.0,0.0,0.0,0.0,0.0,0.0,0.0,0.0,0.0,0.0,0.0,0.0,0.0,0.0,0.0,0.0,0.0,0.0,0.0,0.0,0.0,0.0,0.0,0.0,0.0,0.0,0.0,0.0,0.0,0.0,0.0,0.0,0.0,0.0,0.0,0.0,0.0,0.0,0.0,0.0,0.0,0.0,0.0,0.0,0.0,0.0,0.0,0.0,0.0,0.0,0.0,0.0,0.0,0.0,0.0,0.0,0.0,0.0,0.0,0.0,0.0,0.0,0.0,0.0,0.0,0.0,0.0,0.0,0.0,0.0,0.0,0.0,0.0,0.0,0.0,0.0,0.0,0.0,0.0,0.0,0.0,0.0,0.0,0.0,0.0,0.0,0.0,0.8459,1.0606,1.0941,1.1249,1.1567,0.9994,0.8719,0.0,0.0,0.0,0.0,0.0,0.0,0.0,0.0,0.0,0.0,0.0,0.0,0.0,0.0,0.0,0.0,0.0,0.0,0.0,0.0,0.0,0.0,0.0,0.0,0.0,0.0,0.0,0.0,0.0,0.0,0.0,0.0,0.0,0.0,0.0,0.0,0.0,0.0,0.0,0.0,0.0,0.0,0.0,0.0,0.0,0.0,0.0,0.0,0.657,0.0,0.0,0.0,0.0,0.0,0.0,0.0,0.0,0.0,0.0,0.0,0.0,0.0,0.0,0.0,0.0,0.0,0.0,0.0,0.0,0.0,0.0,0.0,0.0,0.0,0.0,0.0,0.0,0.0,0.0,0.0,0.0,0.0,0.0,0.0,0.0,0.0,0.0,0.0,0.0,0.0,0.0,0.0,0.0,0.0,0.0,0.0,0.0,0.0,0.0,0.0,0.0,0.0,0.0,0.0,0.0,0.0,0.0,0.0,0.9342,1.1202,1.1538,1.1782,1.1942,1.11,0.9871,0.0,0.0,0.0,0.0,0.0,0.0,0.0,0.0,0.0,0.0,0.0,0.0,0.0,0.0,0.0,0.0,0.0,0.0,0.0,0.0,0.0,0.0,0.0,0.0,0.0,0.0,0.0,0.0,0.0,0.0,0.0,0.0,0.0,0.0,0.0,0.0,0.0,0.0,0.0,0.0,0.0,0.0,0.0,0.0,0.0,0.0,0.0,0.0,0.0,0.0,0.0,0.0,0.0,0.0,0.0,0.0,0.0,0.0,0.0,0.0,0.0,0.0,0.0,0.0,0.0,0.0,0.0,0.0,0.0,0.0,0.0,0.0,0.0,0.0,0.0,0.0,0.0,0.0,0.0,0.0,0.0,0.0,0.0,0.0,0.0,0.0,0.0,0.0,0.0,0.0,0.0,0.0,0.0,0.0,0.0,0.0,0.0,0.0,0.0,0.0,0.0,0.0,0.0,0.0,0.0,0.0,0.0,0.8633,1.0085,1.1814,1.2119,1.2295,1.2346,1.2356,1.1217,0.8846,0.0,0.0,0.0,0.0,0.0,0.0,0.0,0.0,0.0,0.0,0.0,0.0,0.0,0.0,0.0,0.0,0.0,0.0,0.0,0.0,0.0,0.0,0.0,0.0,0.0,0.0,0.0,0.0,0.0,0.0,0.0,0.0,0.0,0.0,0.0,0.0,0.0,0.0,0.3907,0.4981,0.0,0.0,0.0,0.0,0.0,0.0,0.0,0.0,0.6966,0.0,0.0,0.0,0.0,0.0,0.0,0.0,0.0,0.0,0.0,0.0,0.0,0.0,0.0,0.0,0.0,0.0,0.0,0.0,0.0,0.0,0.0,0.0,0.0,0.0,0.0,0.0,0.0,0.0,0.0,0.0,0.0,0.0,0.0,0.0,0.0,0.0,0.0,0.0,0.0,0.0,0.0,0.0,0.0,0.0,0.0,0.0,0.0,0.0,0.0,0.0,0.0,0.0,0.0,0.0,0.0,0.8137,0.8841,1.0362,1.2715,1.2835,1.2781,1.2621,1.2319,1.1263,0.9473,0.0,0.0,0.0,0.0,0.0,0.0,0.0,0.0,0.0,0.0,0.0,0.0,0.0,0.0,0.0,0.0,0.0,0.0,0.0,0.0,0.0,0.0,0.0,0.0,0.0,0.0,0.0,0.0,0.0,0.0,0.0,0.0,0.0,0.0,0.0,0.0,0.0,0.0,0.0,0.6172,0.6579,0.0,0.0,0.0,0.0,0.0,0.0,0.0,0.0,0.7226,0.0,0.0,0.0,0.0,0.0,0.0,0.0,0.0,0.0,0.0,0.0,0.0,0.0,0.0,0.0,0.0,0.0,0.0,0.0,0.0,0.0,0.0,0.0,0.0,0.0,0.0,0.0,0.0,0.0,0.0,0.0,0.0,0.0,0.0,0.0,0.0,0.0,0.0,0.0,0.0,0.0,0.0,0.0,0.0,0.0,0.0,0.0,0.0,0.0,0.0,0.0,0.0,0.0,0.0,0.0,0.8609,1.0035,1.1588,1.3245,1.3383,1.3403,1.3374,1.2887,1.1768,0.0,0.0,0.0,0.0,0.0,0.0,0.0,0.0,0.0,0.0,0.0,0.0,0.0,0.0,0.0,0.0,0.0,0.0,0.0,0.0,0.0,0.0,0.0,0.0,0.0,0.0,0.0,0.0,0.0,0.0,0.0,0.0,0.0,0.0,0.0,0.0,0.0,0.0,0.0,0.0,0.652,0.687,0.7736,0.0,0.0,0.0,0.0,0.0,0.0,0.727,0.7292,0.0,0.0,0.0,0.0,0.0,0.0,0.0,0.0,0.0,0.0,0.0,0.0,0.0,0.0,0.0,0.0,0.0,0.0,0.0,0.0,0.0,0.0,0.0,0.0,0.0,0.0,0.0,0.0,0.0,0.0,0.0,0.0,0.0,0.0,0.0,0.0,0.0,0.0,0.0,0.0,0.0,0.0,0.0,0.0,0.0,0.0,0.0,0.0,0.0,0.0,0.0,0.0,0.0,0.0,0.0,0.9011,1.1083,1.2671,1.3665,1.3973,1.4128,1.4163,1.3725,1.2538,0.0,0.0,0.0,0.0,0.0,0.0,0.0,0.0,0.0,0.0,0.0,0.0,0.0,0.0,0.0,0.0,0.0,0.0,0.0,0.0,0.0,0.0,0.0,0.0,0.0,0.0,0.0,0.0,0.0,0.0,0.0,0.0,0.0,0.0,0.0,0.0,0.0,0.0,0.0,0.0,0.0,0.7162,0.809,0.7856,0.0,0.0,0.0,0.0,0.7584,0.777,0.0,0.0,0.0,0.0,0.0,0.0,0.0,0.0,0.0,0.0,0.0,0.0,0.0,0.0,0.0,0.0,0.0,0.0,0.0,0.0,0.0,0.0,0.0,0.0,0.0,0.0,0.0,0.0,0.0,0.0,0.0,0.0,0.0,0.0,0.0,0.0,0.0,0.0,0.0,0.0,0.0,0.0,0.0,0.0,0.0,0.0,0.0,0.0,0.0,0.0,0.0,0.0,0.0,0.0,0.0,0.0,0.9277,1.114,1.274,1.4001,1.4797,1.5064,1.4714,1.4762,1.368,0.0,0.0,0.0,0.0,0.0,0.0,0.0,0.0,0.0,0.0,0.0,0.0,0.0,0.0,0.0,0.0,0.0,0.0,0.0,0.0,0.0,0.0,0.0,0.0,0.0,0.0,0.0,0.0,0.0,0.0,0.0,0.0,0.0,0.0,0.0,0.0,0.0,0.0,0.0,0.0,0.0,0.7679,0.7999,0.7734,0.7782,0.0,0.0,0.8301,0.904,0.9547,0.0,0.0,0.0,0.0,0.0,0.0,0.0,0.0,0.0,0.0,0.0,0.0,0.0,0.0,0.0,0.0,0.0,0.0,0.0,0.0,0.0,0.0,0.0,0.0,0.0,0.0,0.0,0.0,0.0,0.0,0.0,0.0,0.0,0.0,0.0,0.0,0.0,0.0,0.0,0.0,0.0,0.0,0.0,0.0,0.0,0.0,0.0,0.0,0.0,0.0,0.0,0.0,0.0,0.0,0.0,0.9498,1.062,1.2483,1.4142,1.553,1.5947,1.6073,1.5958,1.542,1.4053,0.0,0.0,0.0,0.0,0.0,0.0,0.0,0.0,0.0,0.0,0.0,0.0,0.0,0.0,0.0,0.0,0.0,0.0,0.0,0.0,0.0,0.0,0.0,0.0,0.0,0.0,0.0,0.0,0.0,0.0,0.0,0.0,0.0,0.0,0.0,0.0,0.0,0.0,0.0,0.0,0.0,0.0,0.8871,0.862,0.0,0.0,0.0,0.9404,0.9894,0.0,0.0,0.0,0.0,0.0,0.0,0.0,0.0,0.0,0.0,0.0,0.0,0.0,0.0,0.0,0.0,0.0,0.0,0.0,0.0,0.0,0.0,0.0,0.0,0.0,0.0,0.0,0.0,0.0,0.0,0.0,0.0,0.0,0.0,0.0,0.0,0.0,0.0,0.0,0.0,0.0,0.0,0.0,0.0,0.0,0.0,0.0,0.0,0.0,0.0,0.0,0.0,0.0,0.0,0.0,0.0,0.0,1.1744,1.3944,1.5622,1.6737,1.6992,1.706,1.6951,1.6163,0.0,0.0,0.0,0.0,0.0,0.0,0.0,0.0,0.0,0.0,0.0,0.0,0.0,0.0,0.0,0.0,0.0,0.0,0.0,0.0,0.0,0.0,0.0,0.0,0.0,0.0,0.0,0.0,0.0,0.0,0.0,0.0,0.0,0.0,0.0,0.0,0.0,0.0,0.0,0.0,0.0,0.0,0.8801,0.9883,0.9839,0.993,0.0,0.0,1.0796,1.1037,1.1457,1.141,0.0,0.0,0.0,0.0,0.0,0.0,0.0,0.0,0.0,0.0,0.0,0.0,0.0,0.0,0.0,0.0,0.0,0.0,0.0,0.0,0.0,0.0,0.0,0.0,0.0,0.0,0.0,0.0,0.0,0.0,0.0,0.0,0.0,0.0,0.0,0.0,0.0,0.0,0.0,0.0,0.0,0.0,0.0,0.0,0.0,0.0,0.0,0.0,0.0,0.0,0.0,0.0,0.0,0.0,0.0,1.2133,1.5093,1.6764,1.7004,1.7762,1.7918,1.7377,1.7278,1.5919,0.0,0.0,0.0,0.0,0.0,0.0,0.0,0.0,0.0,0.0,0.0,0.0,0.0,0.0,0.0,0.0,0.0,0.0,0.0,0.0,0.0,0.0,0.0,0.0,0.0,0.0,0.0,0.0,0.0,0.0,0.0,0.0,0.0,0.0,0.0,0.0,0.0,0.0,0.0,0.0,0.0,0.9507,1.0726,1.1305,1.2019,0.0,0.0,1.2691,1.2883,1.3812,1.3792,1.1659,0.0,0.0,0.0,0.0,0.0,0.0,0.0,0.0,0.0,0.0,0.0,0.0,0.0,0.0,0.0,0.0,0.0,0.0,0.0,0.0,0.0,0.0,0.0,0.0,0.0,0.0,0.0,0.0,0.0,0.0,0.0,0.0,0.0,0.0,0.0,0.0,0.0,0.0,0.0,0.0,0.0,0.0,0.0,0.0,0.0,0.0,0.0,0.0,0.0,0.0,0.0,0.0,0.0,1.2327,1.3646,1.6386,1.8198,1.9007,1.9359,1.9122,1.8207,1.7961,1.6582,0.0,0.0,0.0,0.0,0.0,0.0,0.0,0.0,0.0,0.0,0.0,0.0,0.0,0.0,0.0,0.0,0.0,0.0,0.0,0.0,0.0,0.0,0.0,0.0,0.0,0.0,0.0,0.0,0.8805,0.8592,0.7885,0.0,0.0,0.0,0.0,0.0,0.0,0.0,0.0,0.0,0.0,1.1904,1.2775,1.2493,0.0,0.0,1.3039,1.2805,1.3324,1.3639,1.3581,1.2855,1.2426,0.0,0.0,0.0,0.0,0.0,0.0,0.0,0.0,0.0,0.0,0.0,0.0,0.0,0.0,0.0,0.0,0.0,0.0,0.0,0.0,0.0,0.0,0.0,0.0,0.0,0.0,0.0,0.0,0.0,0.0,0.0,0.0,0.0,0.0,0.0,0.0,0.0,0.0,0.0,0.0,0.0,0.0,0.0,0.0,0.0,0.0,0.0,0.0,0.0,0.0,0.0,0.0,1.348,1.4879,1.7621,1.9517,2.0503,2.0422,1.9874,1.8858,1.8406,1.7047,0.0,0.0,0.0,0.0,0.0,0.0,0.0,0.0,0.0,0.0,0.0,0.0,0.0,0.0,0.0,0.0,0.0,0.0,0.0,0.0,0.0,0.0,0.0,0.0,0.0,0.0,0.0,0.0,0.9636,0.9191,0.8446,0.0,0.0,0.0,0.0,0.0,0.0,0.0,0.0,0.0,0.0,1.3596,1.4126,1.3666,1.3461,1.4023,1.3718,1.3626,1.4207,1.4238,1.4079,1.3763,0.0,0.0,0.0,0.0,0.0,0.0,0.0,0.0,0.0,0.0,0.0,0.0,0.0,0.0,0.0,0.0,0.0,0.0,0.0,0.0,0.0,0.0,0.0,0.0,0.0,0.0,0.0,0.0,0.0,0.0,0.765,0.0,0.0,0.0,0.0,0.0,0.0,0.0,0.0,0.0,0.0,0.0,0.0,0.0,0.0,0.0,0.0,0.0,0.0,0.0,0.0,0.0,0.0,0.0,1.5528,1.8799,2.0684,2.0982,2.0746,2.0125,1.9134,1.8632,1.7292,1.4963,0.0,0.0,0.0,0.0,0.0,0.0,0.0,0.0,0.0,0.0,0.0,0.0,0.0,0.0,0.0,0.0,0.0,0.0,0.0,0.0,0.0,0.0,0.0,0.0,0.0,0.0,1.0134,0.959,0.9241,0.0,0.0,0.0,0.0,0.0,0.0,0.0,0.0,0.0,0.0,1.3312,1.4207,1.4504,1.4925,1.5194,1.524,1.5386,1.5572,1.575,1.6111,1.5883,0.0,0.0,0.0,0.0,0.0,0.0,0.0,0.0,0.0,0.0,0.0,0.0,0.0,0.0,0.0,0.0,0.0,0.0,0.0,0.0,0.0,0.0,0.0,0.0,0.0,0.0,0.0,1.0655,1.0108,0.0,0.0,0.0,0.0,0.0,0.0,0.0,0.0,0.0,0.0,0.0,1.3469,1.3924,0.0,0.0,0.0,0.0,0.0,0.0,0.0,0.0,0.0,0.0,0.0,0.0,1.5044,1.6071,1.9318,2.1316,2.1853,2.1652,2.0952,1.9735,1.9103,1.773,1.5448,0.0,0.0,0.0,0.0,0.0,0.0,0.0,0.0,0.0,0.0,0.0,0.0,0.0,0.0,0.0,0.0,0.0,0.0,0.0,0.0,0.0,0.0,0.0,0.0,0.0,1.1391,0.0,0.0,0.0,0.0,0.0,0.0,0.0,0.0,0.0,0.0,0.0,1.2314,1.3705,1.5062,1.5985,1.621,1.5964,1.5807,0.0,0.0,0.0,0.0,0.0,0.0,0.0,0.0,0.0,0.0,0.0,0.0,0.0,0.0,1.6212,1.4477,1.3922,1.3745,1.3859,0.0,0.0,0.0,0.0,0.0,0.0,0.0,0.0,0.0,0.0,0.0,0.0,0.0,0.0,1.192,0.0,1.1282,0.0,0.0,0.0,0.0,0.0,0.0,0.0,0.0,1.2808,1.3956,1.4998,1.547,1.5711,0.0,1.5054,1.416,0.0,0.0,0.0,0.0,0.0,0.0,0.0,0.0,1.5962,1.7118,1.9998,2.1779,2.2256,2.2105,2.1439,2.0262,1.9088,1.769,1.6026,1.539,1.5018,0.0,0.0,0.0,0.0,0.0,0.0,0.0,0.0,0.0,0.0,0.0,0.0,0.0,0.0,0.0,0.0,0.0,0.0,0.0,0.0,0.0,0.0,0.0,1.2435,0.0,0.0,0.0,0.0,0.0,0.0,0.0,0.0,0.0,1.1422,1.2645,1.4033,1.5377,1.6348,1.7047,1.7387,0.0,0.0,0.0,0.0,0.0,0.0,0.0,1.5793,1.5661,1.5721,1.5977,1.6481,1.7539,1.8135,1.7624,0.0,0.0,1.6379,1.5729,1.5518,1.5684,1.5766,1.5864,1.609,1.6437,1.6796,0.0,0.0,0.0,0.0,0.0,0.0,0.0,0.0,1.328,1.2917,0.0,1.2139,0.0,0.0,0.0,0.0,0.0,1.1066,0.0,0.0,1.4249,1.5154,1.5895,1.5921,1.5938,1.5948,1.6102,1.6144,1.5925,1.3376,0.0,0.0,0.0,0.0,0.0,0.0,1.7572,1.8667,2.0854,2.2126,2.2331,2.2105,2.1553,2.0626,1.8645,1.7332,1.6726,1.5715,1.5313,1.5695,1.4434,0.0,0.0,0.0,0.0,0.0,0.0,0.0,0.0,0.0,0.0,0.0,0.0,0.0,0.0,0.0,0.0,0.0,0.0,0.0,0.0,1.3157,0.0,0.0,0.0,0.0,0.0,0.0,0.0,0.0,0.0,0.0,1.3822,1.4482,1.5505,1.7,0.0,0.0,0.0,0.0,1.7149,1.7988,1.7596,1.732,1.7713,1.7554,1.7242,1.6867,0.0,0.0,1.7182,1.8257,1.8815,1.788,1.8393,1.8814,1.8689,1.8008,1.7703,1.8189,1.7761,1.7569,1.8005,1.819,1.848,1.6435,0.0,0.0,0.0,0.0,1.4935,1.4672,1.4371,1.4843,1.471,1.4134,1.4211,0.0,0.0,0.0,0.0,0.0,0.0,1.2837,1.4087,1.4763,1.5595,1.6556,1.6538,1.6556,1.6537,1.6749,1.6716,1.6513,1.5865,1.5152,1.4404,0.0,0.0,0.0,0.0,1.8701,1.9833,2.154,2.2644,2.3072,2.237,2.1259,1.975,1.9064,1.8278,1.7372,1.7254,1.6909,1.6294,1.5743,0.0,0.0,0.0,0.0,0.0,0.0,0.0,0.0,0.0,0.0,0.0,0.0,0.0,0.0,0.0,0.0,0.0,0.0,0.0,1.3804,1.4087,1.4007,0.0,0.0,0.0,0.0,0.0,0.0,0.0,0.0,0.0,1.6004,1.5924,1.6263,0.0,0.0,1.7815,1.7997,1.7971,1.8077,1.8465,1.8723,0.0,0.0,1.7913,1.7688,1.7286,1.7883,1.848,1.8757,1.9282,1.9596,1.9391,1.9731,2.0084,2.0255,1.9162,1.8412,1.8709,1.8803,1.8838,1.8997,1.9186,1.9426,1.7281,1.6726,1.6264,1.6228,1.6446,1.644,1.6385,1.6317,1.6569,1.6329,1.5756,1.556,1.4997,1.4199,1.3931,0.0,0.0,0.0,1.4259,1.5504,1.5883,1.6531,1.7368,1.7397,1.7387,1.7405,1.7508,1.753,1.7445,1.7412,1.736,1.7199,0.0,0.0,1.6801,1.8462,1.9941,2.1201,2.2231,2.2922,2.3231,2.2314,2.1121,1.9645,1.9448,1.8911,1.7992,1.7991,1.775,1.7148,1.6612,1.6041,0.0,0.0,0.0,0.0,0.0,0.0,0.0,0.0,0.0,0.0,0.0,1.2772,0.0,0.0,0.0,0.0,1.3529,1.4454,1.5031,1.508,0.0,0.0,0.0,0.0,0.0,0.0,0.0,1.4201,1.5219,1.6325,1.7452,1.7542,1.7811,1.8688,1.8639,1.8666,1.9084,0.0,1.916,1.952,1.9807,1.9736,1.8974,1.8735,1.8517,1.8164,1.8758,1.9372,1.9723,1.9907,2.0144,2.0452,2.0586,2.0752,2.118,2.0267,1.9545,1.9768,1.9962,2.0088,2.0205,2.0326,2.0534,1.8327,1.81,1.7601,1.7936,1.8756,1.8464,1.8446,1.8606,1.8247,1.7741,1.7123,1.6419,1.5982,1.5738,1.4948,0.0,1.6238,1.5669,1.6063,1.7236,1.7462,1.7835,1.834,1.8351,1.8349,1.833,1.8367,1.845,1.8592,1.83,1.8677,1.9697,1.8128,1.7863,1.8931,2.0039,2.1302,2.2721,2.2988,2.3073,2.2966,2.2097,2.1115,2.0028,1.9777,1.9288,1.8536,1.8176,1.8048,1.8065,1.7183,1.6641,1.6541,0.0,0.0,0.0,0.0,0.0,0.0,0.0,0.0,0.0,0.0,0.0,0.0,0.0,0.0,0.0,1.4668,0.0,1.6207,1.5968,0.0,0.0,0.0,1.4607,1.3959,1.4541,1.4926,1.4788,0.0,0.0,1.8363,0.0,1.9748,2.0036,1.9674,1.9706,2.0698,2.0331,2.022,2.069,2.0739,2.0491,1.9955,1.9637,1.9358,1.9143,1.9579,1.9919,2.0124,2.0156,2.0427,2.1046,2.1017,2.1033,2.1502,2.1381,2.1249,2.1235,2.1173,2.1211,2.136,2.146,2.1628,1.8876,1.8631,1.9431,1.9369,1.8738,1.8809,1.8855,1.8895,1.8901,1.8435,1.7629,1.7701,1.7589,1.7321,1.6573,1.6758,1.7668,1.7337,1.7586,1.8326,1.8689,1.8859,1.8824,1.8844,1.8733,1.8563,1.8845,1.8919,1.8852,1.9251,1.9737,2.0269,2.0067,2.031,2.0984,2.186,2.2806,2.3817,2.3976,2.3648,2.2785,2.2204,2.1306,2.0029,2.0039,1.9573,1.8563,1.8799,1.874,1.8208,1.7991,1.7746,1.742,1.6347,0.0,0.0,0.0,0.0,0.0,0.0,0.0,0.0,0.0,1.4514,1.4788,0.0,1.5364,0.0,1.579,1.6003,1.5918,1.5843,0.0,0.0,1.554,1.538,1.5523,1.5601,1.583,1.6225,1.7074,1.8008,1.8965,1.969,2.0275,2.0625,2.02,1.9992,2.038,2.0331,2.0322,2.0632,2.0945,2.0845,2.0138,1.9604,1.9303,1.9202,1.9579,1.9958,2.0177,2.0069,2.0273,2.1134,2.1348,2.1609,2.2269,2.2515,2.2589,2.2567,2.2056,2.159,2.1651,2.1824,2.2051,1.9614,1.9514,2.0492,2.0524,1.9922,1.9668,1.9743,1.9993,1.9588,1.9108,1.8591,1.8485,1.8362,1.8222,1.7976,1.8158,1.8624,1.8533,1.8757,1.9274,1.9501,1.965,1.9721,1.9711,1.9629,1.9495,1.9725,1.9758,1.969,2.0026,2.0416,2.0808,2.1378,2.189,2.2377,2.2931,2.3653,2.4547,2.4538,2.3928,2.2737,2.2335,2.1538,2.0323,2.0279,1.9846,1.8904,1.9059,1.8948,1.8483,1.8253,1.8033,1.7789,1.7205,1.6845,0.0,0.0,0.0,0.0,0.0,0.0,0.0,0.0,0.0,0.0,0.0,1.5968,1.6409,1.6551,1.662,1.6649,1.6646,1.6687,1.6742,1.655,1.6552,1.6877,1.6786,1.695,1.7572,1.8126,1.8879,1.9907,2.0524,2.1072,2.158,2.1382,2.105,2.0789,2.0751,2.0783,2.091,2.1134,2.1074,2.0365,1.985,1.9513,1.9532,1.973,2.0046,2.0537,2.0454,2.071,2.188,2.1955,2.2015,2.2812,2.294,2.2956,2.3002,2.269,2.2396,2.2431,2.2584,2.2743,2.03,2.0331,2.107,2.1415,2.142,2.0697,2.073,2.1228,2.0232,1.9741,1.9596,1.9024,1.8802,1.8869,1.9154,1.9333,1.9363,1.9421,1.9675,2.0109,2.015,2.0336,2.0647,2.0706,2.0714,2.0682,2.0722,2.0751,2.0751,2.0773,2.104,2.1476,2.2293,2.298,2.3414,2.3656,2.4186,2.5031,2.4824,2.4101,2.2866,2.2484,2.1792,2.0724,2.0461,2.0044,1.9404,1.9199,1.902,1.8855,1.8352,1.8037,1.8061,1.7857,1.7623,0.0,1.7338,0.0,0.0,0.0,0.0,0.0,0.0,0.0,0.0,1.605,1.6411,1.7031,1.7179,1.738,1.7733,1.7749,1.777,1.7826,1.7736,1.7757,1.7941,1.7859,1.8047,1.8704,1.9177,1.9882,2.089,2.1448,2.1968,2.243,2.2483,2.221,2.1639,2.1487,2.1467,2.1397,2.1272,2.1005,2.0717,2.0314,2.008,2.0121,2.022,2.0425,2.1185,2.1112,2.1409,2.2664,2.2549,2.2424,2.3252,2.3092,2.2971,2.3179,2.3184,2.3179,2.3236,2.3301,2.3467,2.0354,2.0186,2.1368,2.1658,2.1304,2.0991,2.0987,2.1182,2.0606,2.0147,1.9846,1.9765,1.991,2.018,1.9956,2.0018,2.033,2.0183,2.0339,2.0736,2.096,2.0979,2.0865,2.123,2.1289,2.1122,2.1403,2.1578,2.1569,2.1792,2.2202,2.2809,2.3212,2.383,2.4606,0.0,0.0,0.0,2.4908,2.4299,2.3502,2.2718,2.1882,2.1034,2.0389,0.0,1.9801,1.9634,1.9451,1.9212,1.8931,0.0,0.0,0.0,0.0,0.0,0.0,0.0,0.0,0.0,0.0,0.0,1.7667,1.7192,1.6603,1.7374,1.7826,1.7609,1.8109,1.8331,1.8069,1.8024,1.8175,1.8521,1.8281,1.8185,1.8431,1.8302,1.8458,1.9113,1.9871,2.0641,2.1391,2.2021,2.2439,2.2616,2.2618,2.2547,2.2386,2.2336,2.2183,2.185,2.1265,2.0881,2.1055,2.0869,2.087,2.1298,2.1432,2.1574,2.1869,2.1775,2.1833,2.2779,2.2764,2.2786,2.3304,2.3477,2.3555,2.3651,2.3653,2.3555,2.3232,2.3299,2.3417,2.0627,0.0,2.1558,2.19,0.0,2.1632,2.1499,2.1317,2.0775,2.0489,2.0392,2.0336,2.0399,2.0574,2.0262,2.0292,2.0594,2.035,2.0487,2.091,2.1279,2.1433,2.1402,2.1873,2.2036,2.1903,2.211,2.2209,2.22,2.247,2.2774,2.3095,2.3704,2.4239,2.4699,2.5263,2.5502,2.5391,2.5156,2.4668,2.386,2.3261,2.2457,2.1473,0.0,0.0,0.0,0.0,0.0,0.0,0.0,0.0,0.0,0.0,0.0,1.8619,1.8721,1.8718,1.8561,1.8698,1.8718,1.8601,1.8673,1.8312,1.7257,1.7898,1.827,1.8069,1.8404,1.861,1.86,1.859,1.8686,1.893,1.8887,1.8905,1.906,1.9376,1.9741,2.0197,2.093,2.1633,2.2319,2.2656,2.2968,2.316,2.3179,2.3181,2.3139,2.2839,2.2437,2.1992,2.1671,2.1397,2.1383,2.139,2.1411,2.1719,2.1781,2.2003,2.2419,2.2306,2.2375,2.308,2.3117,2.3084,2.3488,2.3619,2.3636,2.3754,2.38,2.374,2.348,2.3521,2.3607,2.1093,2.1158,2.1842,2.2195,2.2279,2.2256,2.1982,2.1556,0.0,0.0,0.0,2.0767,2.0724,2.0713,2.049,2.0533,2.0756,2.0642,2.0812,2.1243,2.1704,2.2016,2.2176,2.2577,2.2777,2.2777,2.2846,2.2867,2.29,2.3151,2.3301,2.3434,2.4214,2.4692,2.4867,2.5759,2.6039,2.5679,2.5658,2.5183,2.4201,2.3883,2.314,2.193,2.1524,2.1098,2.0704,2.0171,1.9928,2.0021,1.9703,1.9382,1.9201,1.9627,1.9676,1.9225,1.9627,1.9781,1.951,1.9787,1.9721,1.9145,1.9606,1.9365,1.8046,1.8435,1.8717,1.8627,1.8695,1.887,1.9138,1.9172,1.9193,1.9246,1.9445,1.9564,1.9623,2.0348,2.0891,2.1235,2.1792,2.2519,2.3052,2.3229,2.3399,2.371,2.372,2.38,2.371,2.3169,2.2615,2.2214,2.2082,2.2057,2.1918,2.19,2.202,2.2217,2.2217,2.2363,2.2778,2.2833,2.3038,2.3614,2.3466,2.3432,2.3692,2.3634,2.3549,2.3744,2.38,2.38,2.38,2.38,2.3788,2.1846,2.1889,2.2407,2.2621,2.2621,2.2384,2.2156,2.1875,2.1171,2.0784,2.066,2.1036,2.1199,2.1189,2.1167,2.1254,2.149,2.1834,2.2161,2.2467,2.2943,2.3161,2.3206,2.3368,2.3457,2.3487,2.3824,2.3985,2.4001,2.4228,2.45,2.4747,2.5251,2.5829,2.641,2.6622,2.6666,2.6594,2.6605,2.6039,2.4879,2.4441,2.3594,2.2371,2.1658,2.1317,2.1354,2.0629,2.0338,2.0567,2.0109,1.981,1.9783,1.9873,1.9869,1.9791,1.986,1.9873,1.9834,2.009,2.0253,2.0298,2.0864,2.0547,1.9019,1.9864,2.0255,1.9615,1.9786,1.9862,1.9515,1.9484,1.9587,1.9751,1.9834,1.9838,1.9887,2.0516,2.1052,2.1265,2.2099,2.284,2.3182,2.349,2.369,2.378,2.38,2.38,2.374,2.3431,2.3037,2.2712,2.239,2.2347,2.2509,2.2653,2.2845,2.3427,2.3415,2.3359,2.3498,2.3514,2.3552,2.3754,2.3677,2.37,2.3788,2.3788,2.373,2.3778,2.38,2.38,2.38,2.38,2.38,2.2157,2.2438,2.288,2.3074,2.3042,2.2535,2.2256,2.2116,2.1705,2.1447,2.1382,2.1586,2.1598,2.1469,2.134,2.1482,2.1824,2.1894,2.225,2.2865,2.33,2.3575,2.3754,2.4,2.4064,2.3945,2.426,2.4341,2.4246,2.4618,2.5019,2.5404,2.5992,2.6595,2.7133,2.7177,2.7294,2.7535,2.7048,2.6326,2.5401,2.5031,2.4294,2.3196,2.2582,2.2157,2.1927,2.1441,2.1145,2.1139,2.0781,2.0486,2.0341,2.0341,2.0268,2.0119,2.0256,2.0401,2.0546,2.08,2.078,2.0464,2.1001,2.0984,2.0009,2.031,2.04,1.9967,2.0079,2.0265,2.0342,2.0376,2.0336,2.0219,2.052,2.0675,2.0597,2.1349,2.1952,2.2127,2.2801,2.3379,2.3498,2.369,2.38,2.38,2.38,2.38,2.38,2.364,2.3404,2.3108,2.3023,2.3033,2.3053,2.3224,2.346,2.379,2.367,2.3607,2.3585,2.3585,2.3545,2.3454,2.3497,2.3583,2.3595,2.3595,2.3634,2.3778,2.38,2.38,2.38,2.38,2.38,2.2535,2.2902,2.3376,2.3505,2.3343,2.2781,2.2492,2.2374,2.2234,2.221,2.2294,2.2197,2.2034,2.185,2.1799,2.2,2.2327,2.227,2.266,2.3378,2.3804,2.4128,2.4313,2.4591,2.4571,2.4425,2.4583,2.4571,2.4451,2.4861,2.542,2.604,2.673,2.7278,2.7748,2.7759,2.7902,2.8139,2.7482,2.6772,2.6042,2.5734,2.5078,2.4034,2.3548,2.304,2.2417,2.2148,2.1873,2.1589,2.1341,2.109,2.0906,2.0882,2.0797,2.0619,2.0755,2.0957,2.1184,2.1432,2.1314,2.0743,2.1195,2.139,2.1052,2.0828,2.0665,2.0558,2.0566,2.0716,2.1102,2.1127,2.1023,2.0852,2.1257,2.1392,2.1264,2.2102,2.2793,2.2856,2.3395,2.379,2.38,2.38,2.38,2.38,2.38,2.38,2.38,2.38,2.364,2.349,2.359,2.3628,2.3399,2.3558,2.3748,2.38,2.3636,2.3561,2.3537,2.3513,2.3412,2.3295,2.3304,2.3378,2.3352,2.3328,2.341,2.3565,2.3629,2.3708,2.3778,2.393,2.389,2.329,2.3408,2.3849,2.3784,2.344,2.3321,2.3073,2.2708,2.2654,2.289,2.32,2.2833,2.2643,2.2651,2.2992,2.3293,2.355,2.396,2.4245,2.4532,2.5016,2.5252,2.5185,2.5056,2.4957,2.491,2.4945,2.4943,2.4897,2.5252,2.5946,2.6994,2.7562,2.8026,2.8422,2.8489,2.8398,2.8203,2.8129,2.7698,2.7004,2.6654,2.5809,2.4484,2.4155,2.3589,2.2724,2.2424,2.2139,2.1867,2.1601,2.1453,2.142,2.1429,2.1399,2.138,2.1417,2.1444,2.1468,2.1719,2.1818,2.1784,2.1985,2.2104,2.1959,2.1933,2.1933,2.1868,2.1726,2.1644,2.1713,2.1459,2.1407,2.1607,2.1761,2.1749,2.1831,2.2353,2.2793,2.2803,2.3427,2.38,2.38,2.38,2.38,2.38,2.38,2.38,2.38,2.3776,2.3754,2.3718,2.3768,2.3768,2.371,2.375,2.38,2.38,2.3776,2.3692,2.3655,2.3668,2.3668,2.3333,2.335,2.3323,2.3217,2.3128,2.313,2.3276,2.3381,2.3515,2.3768,2.41,2.4222,2.4058,2.4421,2.4616,2.4491,2.4161,2.3924,2.3709,2.3537,2.3526,2.3634,2.3815,2.3856,2.3665,2.3329,2.3665,2.3913,2.4132,2.4441,2.4772,2.5102,2.5327,2.538,2.5379,2.5294,2.5172,2.5019,2.5151,2.515,2.5197,2.5991,2.6865,2.7592,2.8236,2.8584,2.8596,2.8593,2.8468,2.8203,2.8203,2.8041,2.7685,2.6745,2.5721,2.4666,2.4151,2.368,2.3172,2.2891,2.2644,2.2369,2.1951,2.1752,2.1731,2.1586,2.1483,2.1504,2.1658,2.1731,2.1734,2.1994,2.2028,2.1805,2.2024,2.216,2.2134,2.2347,2.2593,2.2766,2.243,2.2259,2.2494,2.2414,2.2278,2.2251,2.2494,2.2649,2.2423,2.2961,2.3395,2.3417,2.363,2.38,2.38,2.38,2.38,2.38,2.38,2.38,2.381,2.367,2.3573,2.3557,2.348,2.3526,2.3714,2.38,2.38,2.374,2.3543,2.3406,2.3535,2.3444,2.3331,2.3234,2.3246,2.322,2.3128,2.2968,2.2896,2.3065,2.33,2.3546,2.4091,2.4362,2.4452,2.4701,2.5084,2.5234,2.5082,2.4675,2.4396,2.4192,2.4106,2.4106,2.416,2.4289,2.4578,2.4517,2.4228,2.4379,2.4537,2.4696,2.4827,2.507,2.5369,2.538,2.538,2.538,2.5391,2.5294,2.5162,2.5306,2.5416,2.5578,2.6741,2.7646,2.8171,2.8819,2.8996,2.8729,2.8703,2.8524,2.8229,2.8203,2.8147,2.7872,2.6887,2.5878,2.5021,2.433,2.3809,2.3427,2.3261,2.3034,2.2695,2.2311,2.2091,2.2006,2.1818,2.1719,2.1731,2.19,2.2027,2.2018,2.2187,2.2211,2.2029,2.216,2.2326,2.2497,2.2768,2.3123,2.341,2.3077,2.296,2.3212,2.3202,2.3017,2.2833,2.3257,2.3365,2.3159,2.3534,2.379,2.38,2.3768,2.38,2.38,2.38,2.38,2.38,2.38,2.38,2.3788,2.3646,2.3535,2.3503,2.3393,2.3408,2.3631,2.3603,2.3639,2.3631,2.3384,2.3273,2.3328,2.3208,2.3036,2.3075,2.308,2.3053,2.2971,2.2826,2.2908,2.314,2.3419,2.3775,2.432,2.4619,2.4881,2.5316,2.5193,2.5582,2.5362,2.4717,2.4696,2.4471,2.4192,2.4149,2.4332,2.4653,2.4717,2.4941,2.5249,2.5241,2.5316,2.5335,2.5315,2.5337,2.538,2.538,2.538,2.538,2.538,2.5391,2.5353,2.5441,2.5821,2.6526,2.7431,2.818,2.8753,2.9247,2.9301,2.9026,2.8972,2.8714,2.8296,2.8203,2.8013,2.7596,2.7218,2.6649,2.5903,2.4981,2.4152,2.3522,2.3402,2.3191,2.2729,2.2656,2.2526,2.2308,2.226,2.2236,2.2248,2.226,2.2272,2.2269,2.2306,2.2398,2.2585,2.2643,2.2855,2.3168,2.3302,2.3466,2.3742,2.3678,2.3664,2.3676,2.3429,2.3373,2.3604,2.3722,2.3734,2.3736,2.3726,2.379,2.38,2.38,2.38,2.38,2.38,2.38,2.38,2.38,2.38,2.379,2.3766,2.3718,2.3716,2.369,2.369,2.3465,2.3458,2.3384,2.3362,2.34,2.3301,2.3261,2.3196,2.3039,2.2957,2.3063,2.3036,2.2852,2.2901,2.3128,2.3397,2.3749,2.4143,2.4572,2.5243,2.5524,2.6044,2.6015,2.5687,2.5486,2.5393,2.5217,2.5049,2.4942,2.4931,2.5006,2.5124,2.5145,2.5241,2.538,2.538,2.538,2.5391,2.538,2.538,2.538,2.538,2.538,2.538,2.538,2.538,2.5433,2.5699,2.6402,2.7399,2.7968,2.857,2.9192,2.9584,2.9606,2.9328,2.9106,2.881,2.8492,2.8288,2.8118,2.7902,2.7388,2.6851,2.6377,2.5621,2.4729,2.368,2.3765,2.3632,2.3176,2.2879,2.2666,2.256,2.2402,2.2318,2.2318,2.2318,2.2318,2.233,2.2472,2.2596,2.2714,2.2993,2.3183,2.3393,2.3549,2.3704,2.3788,2.38,2.38,2.378,2.366,2.363,2.376,2.38,2.38,2.38,2.38,2.38,2.38,2.38,2.38,2.38,2.38,2.38,2.38,2.38,2.38,2.3766,2.367,2.3563,2.3523,2.3432,2.3357,2.3441,2.3523,2.3543,2.3376,2.3304,2.321,2.3155,2.3169,2.3051,2.314,2.32,2.3288,2.3186,2.3116,2.3353,2.3776,2.4108,2.4419,2.4801,2.5432,2.5782,2.6471,2.6501,2.6016,2.5798,2.5786,2.5606,2.5486,2.5392,2.538,2.538,2.538,2.538,2.5476,2.5615,2.5626,2.5721,2.5807,2.5711,2.5749,2.5972,2.5983,2.5972,2.5972,2.5983,2.5946,2.5947,2.6316,2.7091,2.8,2.8417,2.8971,2.9608,2.9822,2.9766,2.9486,2.917,2.8876,2.8604,2.8318,2.8203,2.8134,2.7732,2.7234,2.6788,2.6371,2.5529,2.4274,2.4237,2.4046,2.3644,2.3181,2.2857,2.2705,2.2535,2.2371,2.232,2.239,2.2439,2.2453,2.2671,2.2862,2.294,2.3195,2.3419,2.3515,2.3684,2.3788,2.38,2.38,2.38,2.38,2.38,2.38,2.38,2.38,2.38,2.381,2.3952,2.4022,2.4022,2.3892,2.381,2.38,2.38,2.38,2.38,2.38,2.38,2.3766,2.3658,2.3515,2.3523,2.3458,2.3468,2.3545,2.3655,2.3595,2.3429,2.3316,2.3208,2.3092,2.3109,2.3191,2.3307,2.3435,2.3537,2.3547,2.345,2.3705,2.413,2.4451,2.4752,2.5158,2.5584,2.5911,2.6596,2.6595,2.6572,2.6221,2.5858,2.5751,2.5618,2.5415,2.538,2.5423,2.5476,2.5433,2.5711,2.6029,2.6114,2.6348,2.6613,2.6348,2.646,2.6963,2.7019,2.7032,2.7019,2.6974,2.6882,2.6766,2.7233,2.7776,2.8391,2.881,2.9297,2.9773,2.9887,2.9782,2.9521,2.9183,2.8879,2.8631,2.8366,2.8203,2.8189,2.812,2.7774,2.7207,2.7158,2.6545,2.5191,2.4719,2.4393,2.4071,2.3616,2.3179,2.2804,2.2705,2.2586,2.2441,2.2562,2.2683,2.2729,2.2947,2.3181,2.336,2.3414,2.3557,2.3808,2.3808,2.38,2.38,2.38,2.38,2.38,2.38,2.38,2.38,2.38,2.38,2.386,2.4192,2.4472,2.4352,2.4052,2.382,2.38,2.38,2.38,2.38,2.38,2.38,2.38,2.3764,2.3778,2.3766,2.3702,2.3665,2.3738,2.3788,2.3634,2.3479,2.3376,2.3261,2.3109,2.3082,2.323,2.3373,2.3845,2.397,2.4053,2.3979,2.4088,2.4442,2.4751,2.5046,2.5399,2.5763,2.6109,2.6607,2.6559,2.6197,2.6065,2.6026,2.5668,2.5463,2.5391,2.538,2.5594,2.5837,2.588,2.6124,2.6496,2.6571,2.6849,2.7252,2.7124,2.7038,2.6953,2.6957,2.6968,2.6957,2.6955,2.7032,2.7303,2.7629,2.8142,2.8766,2.9155,2.9542,2.9835,2.9913,2.9862,2.9731,2.9277,2.8946,2.8836,2.8422,2.8203,2.8203,2.8203,2.7971,2.758,2.7564,2.7152,2.6292,2.5401,2.4763,2.4405,2.3758,2.3265,2.3024,2.2971,2.2925,2.2872,2.292,2.2971,2.3007,2.3193,2.3504,2.3761,2.3769,2.3883,2.417,2.4002,2.384,2.381,2.38,2.38,2.38,2.38,2.38,2.38,2.38,2.381,2.388,2.3972,2.399,2.4,2.388,2.38,2.381,2.382,2.383,2.38,2.38,2.38,2.38,2.38,2.38,2.38,2.38,2.38,2.38,2.38,2.3718,2.3585,2.3473,2.3384,2.3222,2.3298,2.3412,2.3695,2.4147,2.4408,2.4492,2.4512,2.4562,2.4721,2.5015,2.5293,2.5574,2.5901,2.6258,2.6752,2.6703,2.6378,2.622,2.6172,2.5822,2.5678,2.5648,2.5668,2.5933,2.6284,2.6358,2.6613,2.6987,2.7061,2.7326,2.7717,2.7749,2.7601,2.736,2.7434,2.7471,2.7445,2.7352,2.7453,2.7748,2.803,2.8449,2.9001,2.9339,2.9644,2.9862,2.9913,2.9913,2.9862,2.9448,2.9194,2.9114,2.8652,2.8342,2.8339,2.8256,2.8098,2.7893,2.7773,2.7468,2.6964,2.6096,2.5434,2.4933,2.4239,2.3645,2.3263,2.3198,2.3191,2.3128,2.3169,2.321,2.3254,2.3601,2.3915,2.4177,2.4261,2.431,2.4462,2.4292,2.425,2.407,2.4072,2.4062,2.4062,2.3882,2.381,2.38,2.38,2.3952,2.4142,2.4142,2.43,2.446,2.444,2.4252,2.4112,2.4062,2.396,2.386,2.38,2.38,2.38,2.38,2.38,2.38,2.38,2.38,2.38,2.38,2.38,2.3702,2.3591,2.3516,2.3406,2.3719,2.3923,2.4288,2.47,2.4946,2.504,2.4861,2.4841,2.508,2.5306,2.5505,2.5772,2.608,2.6376,2.6981,2.6969,2.6945,2.6664,2.6274,2.6224,2.6183,2.6178,2.6183,2.6462,2.6813,2.6902,2.7129,2.7476,2.7537,2.7759,2.8105,2.8126,2.8105,2.8153,2.8268,2.8345,2.8305,2.8106,2.8092,2.8225,2.8468,2.875,2.9103,2.9406,2.9646,2.9875,2.9913,2.9913,2.9847,2.9617,2.9417,2.9352,2.8845,2.8535,2.8551,2.8329,2.8189,2.8149,2.7903,2.7636,2.7294,2.6764,2.6271,2.5747,2.4911,2.4184,2.3635,2.3478,2.3448,2.3247,2.3316,2.3454,2.3605,2.4028,2.4495,2.4661,2.4836,2.4941,2.4652,2.4721,2.4652,2.4342,2.4312,2.4372,2.4282,2.4132,2.3932,2.39,2.3962,2.4242,2.4851,2.4671,2.4811,2.5316,2.5316,2.496,2.4542,2.4492,2.4282,2.407,2.392,2.382,2.389,2.391,2.382,2.38,2.381,2.393,2.396,2.381,2.384,2.3984,2.3815,2.3623,2.3679,2.4012,2.4378,2.4767,2.5192,2.5432,2.5418,2.5189,2.5229,2.5485,2.5653,2.5772,2.5971,2.6258,2.6376,2.6884,2.6727,2.6716,2.6711,2.668,2.6505,2.6627,2.6886,2.6917,2.7151,2.753,2.7605,2.7731,2.7994,2.8002,2.8097,2.8181,2.8203,2.8203,2.8203,2.8245,2.8288,2.8312,2.8256,2.8323,2.8494,2.8789,2.9061,2.939,2.9722,2.9889,2.9902,2.9981,2.9947,2.9847,2.9443,2.9288,2.9361,2.8692,2.8438,2.854,2.8366,2.8203,2.82,2.8098,2.7911,2.7583,2.7049,2.639,2.5699,2.5231,2.4736,2.4251,2.4179,2.3979,2.3704,2.3671,2.3851,2.4164,2.4402,2.4791,2.5356,2.5269,2.5063,2.4941,2.4751,2.4472,2.4112,2.3992,2.4052,2.4062,2.4202,2.4412,2.4671,2.4472,2.4432,2.4691,2.4851,2.506,2.5219,2.5209,2.511,2.4951,2.4751,2.4622,2.4572,2.4282,2.3982,2.4172,2.4092,2.4032,2.386,2.386,2.404,2.409,2.391,2.3952,2.4222,2.4069,2.3715,2.3873,2.4174,2.4578,2.4981,2.5624,2.5961,2.5666,2.5358,2.5604,2.5881,2.5862,2.5911,2.6139,2.6386,2.6386,2.719,2.7078,2.7303,2.74,2.7394,2.7253,2.7303,2.7467,2.7504,2.7764,2.8119,2.8207,2.8251,2.8371,2.8358,2.8299,2.8216,2.8203,2.8203,2.8203,2.8203,2.8203,2.8229,2.831,2.8452,2.8663,2.9214,2.9606,2.9919,3.0434,3.0658,3.056,3.0482,3.0506,3.0479,2.9764,2.9572,2.9758,2.9159,2.8762,2.8743,2.8497,2.8302,2.8232,2.8189,2.8095,2.784,2.7321,2.658,2.5787,2.5435,2.5199,2.4791,2.4572,2.4362,2.4102,2.409,2.422,2.4502,2.4798,2.5256,2.5683,2.5647,2.5577,2.5458,2.5276,2.5107,2.4789,2.4649,2.4649,2.4649,2.4731,2.4851,2.498,2.4891,2.4841,2.502,2.5276,2.5478,2.5577,2.5637,2.5567,2.5438,2.517,2.508,2.5,2.4701,2.4612,2.4662,2.4442,2.4302,2.4232,2.4262,2.4492,2.4612,2.4482,2.4242,2.4452,2.4497,2.4104,2.4308,2.4611,2.5077,2.5575,2.6086,2.6297,2.5951,2.5763,2.5981,2.6129,2.606,2.6116,2.6337,2.653,2.6516,2.7796,2.7841,2.8305,2.8378,2.8167,2.8153,2.8114,2.8106,2.8123,2.8339,2.8654,2.8689,2.8655,2.8607,2.8607,2.8481,2.8203,2.8259,2.8259,2.8286,2.8312,2.8366,2.8406,2.863,2.8754,2.8945,2.9779,3.0175,3.0489,3.1372,3.1579,3.1237,3.1193,3.1204,3.0878,3.0266,3.0209,3.0195,2.9665,2.9172,2.8936,2.8633,2.8382,2.8229,2.8203,2.8126,2.7948,2.7543,2.6834,2.5732,2.5824,2.5701,2.5289,2.4899,2.4679,2.4631,2.4599,2.4604,2.4799,2.5417,2.5808,2.5977,2.6238,2.6218,2.5891,2.5901,2.5872,2.5415,2.5693,2.556,2.5662,2.543,2.5404,2.5512,2.5414,2.5509,2.5752,2.5835,2.5951,2.6317,2.6366,2.6198,2.5981,2.5792,2.5663,2.5537,2.5199,2.5,2.5,2.4901,2.4841,2.4841,2.4921,2.505,2.509,2.509,2.4821,2.4731,2.4871,2.4771,2.4989,2.5325,2.579,2.6208,2.6337,2.641,2.6307,2.6287,2.637,2.642,2.6377,2.6424,2.6533,2.669,2.6744,2.8328,2.835,2.8441,2.8544,2.8647,2.8586,2.8786,2.9118,2.9118,2.9147,2.9285,2.9307,2.9018,2.8644,2.881,2.8647,2.8312,2.8436,2.8508,2.8537,2.8754,2.881,2.8867,2.9079,2.9265,2.952,2.9934,3.0508,3.1045,3.1403,3.1437,3.1452,3.1518,3.1126,3.0825,3.0516,3.0089,2.9996,2.9601,2.9314,2.9016,2.8631,2.8379,2.8303,2.8266,2.8034,2.7746,2.7646,2.7309,2.6839,2.6621,2.6508,2.614,2.572,2.5412,2.5253,2.5089,2.5214,2.569,2.5845,2.6036,2.6503,2.646,2.6228,2.5852,2.5918,2.5756,2.5378,2.5249,2.5615,2.6023,2.6048,2.618,2.6466,2.6448,2.6393,2.6463,2.6132,2.6063,2.6291,2.641,2.637,2.6238,2.5961,2.5891,2.5941,2.5733,2.5388,2.5339,2.5358,2.5358,2.5378,2.5378,2.5458,2.5527,2.5478,2.5219,2.507,2.5167,2.5256,2.5475,2.5713,2.605,2.6248,2.6366,2.6386,2.6357,2.6463,2.648,2.659,2.6774,2.6941,2.7068,2.7079,2.7169,2.8835,2.8846,2.906,2.9216,2.9297,2.9295,2.9351,2.9488,2.9508,2.9508,2.9508,2.9508,2.931,2.9067,2.9141,2.8991,2.8684,2.8714,2.8783,2.8812,2.8935,2.8988,2.9224,2.9653,2.999,2.9877,3.0654,3.1267,3.1654,3.2259,3.2771,3.2627,3.2417,3.2173,3.1552,3.1039,3.0712,3.0504,2.9986,2.961,2.9298,2.9074,2.8958,2.8959,2.8885,2.8589,2.8207,2.8446,2.8174,2.775,2.7536,2.7218,2.6635,2.6157,2.5788,2.5491,2.5578,2.5646,2.6006,2.6372,2.6679,2.6984,2.6901,2.6757,2.6506,2.6383,2.6168,2.5932,2.586,2.595,2.6415,2.6664,2.6958,2.7062,2.6951,2.6828,2.687,2.6474,2.6205,2.6457,2.648,2.6507,2.6407,2.6248,2.6129,2.6198,2.6218,2.5911,2.5934,2.5934,2.5872,2.5852,2.5792,2.5822,2.5921,2.5822,2.5554,2.5475,2.5534,2.5584,2.5683,2.5911,2.6159,2.6294,2.6423,2.6307,2.6311,2.644,2.6736,2.7017,2.728,2.7517,2.7724,2.7866,2.794,2.9345,2.9328,2.9723,2.9913,2.9913,2.9878,2.9744,2.959,2.9575,2.9604,2.9575,2.9575,2.9537,2.9497,2.9537,2.9368,2.9132,2.9052,2.9079,2.9103,2.9186,2.9239,2.9485,3.0175,3.058,2.9998,3.1286,3.2059,3.2579,3.3433,3.38,3.402,3.3767,3.3029,3.2509,3.2085,3.1423,3.097,3.0781,3.0308,2.9857,2.9711,2.9712,2.9634,2.9492,2.9209,2.8971,2.9097,2.9101,2.8449,2.8504,2.7959,2.7149,2.6434,2.61,2.5747,2.6118,2.6321,2.6524,2.689,2.7228,2.7339,2.7285,2.7282,2.7185,2.6987,2.683,2.6757,2.666,2.661,2.6924,2.7124,2.7328,2.7391,2.707,2.6994,2.716,2.6914,2.6877,2.6921,2.7013,2.7055,2.6882,2.6689,2.6556,2.6446,2.6479,2.6485,2.6465,2.6426,2.6337,2.6268,2.6198,2.608,2.6149,2.6146,2.5875,2.5851,2.5898,2.598,2.597,2.6052,2.6251,2.6371,2.6407,2.6387,2.65,2.6777,2.7099,2.7465,2.7754,2.7959,2.8279,2.864,2.8714,3.0039,2.9801,2.9857,2.9913,2.9913,2.9913,2.9875,2.9849,2.982,2.9847,2.9833,2.9822,2.9686,2.9606,2.9753,2.9659,2.9446,2.9395,2.9406,2.9459,2.9557,2.9675,2.9944,3.0812,3.114,3.1337,3.2229,3.2984,3.3271,3.3866,3.4294,3.4229,3.4141,3.3532,3.2848,3.2605,3.2262,3.1432,3.1476,3.1261,3.0587,3.0148,2.9989,2.9878,2.9797,2.9586,2.9453,2.945,2.9429,2.9303,2.9303,2.8986,2.8321,2.7535,2.7157,2.705,2.6971,2.7012,2.7213,2.7284,2.7452,2.7516,2.7486,2.7352,2.7312,2.7248,2.7198,2.7168,2.7168,2.7225,2.7498,2.7575,2.7756,2.784,2.7773,2.7577,2.7645,2.7771,2.7798,2.7961,2.7869,2.7702,2.7563,2.7368,2.7171,2.699,2.685,2.6816,2.6775,2.6745,2.6673,2.6613,2.6564,2.6436,2.6347,2.6324,2.6222,2.6202,2.6271,2.6477,2.642,2.6272,2.6326,2.6656,2.6737,2.6707,2.689,2.7104,2.7394,2.7713,2.8047,2.8414,2.8834,2.9241,2.9443,3.0047,2.9902,2.9913,2.9913,2.9913,2.9913,2.9913,2.9913,2.9913,2.9913,2.9913,2.9889,2.9835,2.9755,2.9822,2.9809,2.9726,2.9702,2.9713,2.9742,2.9835,3.0059,3.0403,3.146,3.1926,3.2472,3.3459,3.3987,3.3932,3.4338,3.4645,3.4842,3.4711,3.4049,3.3444,3.3565,3.3194,3.2348,3.2215,3.207,3.1357,3.0888,3.0567,3.0645,3.0451,3.0263,2.9939,3.0098,2.9921,2.9649,2.9732,2.9569,2.9094,2.8521,2.7921,2.7692,2.7508,2.7461,2.7645,2.7654,2.7857,2.7914,2.7817,2.7788,2.771,2.7633,2.7462,2.7369,2.7462,2.7546,2.7655,2.785,2.8021,2.8154,2.8223,2.8271,2.8428,2.8928,2.9136,2.9141,2.8983,2.8771,2.846,2.8215,2.788,2.7601,2.7334,2.7225,2.7149,2.6915,2.68,2.6397,2.6251,2.6261,2.6208,2.6291,2.6364,2.642,2.6467,2.6659,2.6826,2.6653,2.6879,2.7233,2.7217,2.7066,2.7164,2.7352,2.7666,2.8007,2.8523,2.9011,2.947,2.983,3.0015,2.9956,2.9913,2.9913,2.9913,2.9913,2.9913,2.9913,2.9913,2.9913,2.9913,2.9925,3.0003,3.0014,2.9925,2.9902,2.99,2.9913,2.9889,2.9875,2.9931,3.018,3.0448,3.1173,3.2203,3.3131,3.3708,3.4557,3.5148,3.4568,3.4809,3.5214,3.5312,3.5148,3.4722,3.4272,3.436,3.4075,3.3527,3.3191,3.2783,3.2309,3.1718,3.1357,3.1642,3.1457,3.0943,3.0427,3.0551,3.038,3.0067,2.9998,3.0018,2.9631,2.9107,2.8476,2.7886,2.7685,2.7632,2.7746,2.7933,2.8109,2.8136,2.8176,2.8176,2.8146,2.7911,2.7719,2.7556,2.766,2.781,2.7887,2.8118,2.8289,2.841,2.8694,2.9009,2.9233,2.9658,3.0264,3.0246,3.0093,2.991,2.9669,2.9089,2.8772,2.8444,2.8173,2.7905,2.7738,2.6975,2.662,2.6015,2.5771,2.5866,2.5954,2.6151,2.6278,2.6436,2.6447,2.6524,2.6812,2.701,2.7302,2.7497,2.7539,2.742,2.75,2.7617,2.7877,2.8309,2.9007,2.9443,2.9617,3.0123,3.0524,3.0165,2.9913,2.9913,2.9913,2.9913,2.9913,2.9913,2.9925,2.9947,2.9913,3.0059,3.0305,3.0305,3.0014,2.9913,2.9913,2.9913,2.9913,2.9947,3.007,3.0705,3.1326,3.2004,3.3293,3.4325,3.4877,3.5421,3.5279,3.5093,3.5355,3.5513,3.5552,3.5465,3.5126,3.4536,3.493,3.4744,3.3895,3.4194,3.396,3.2974,3.2132,3.1696,3.1454,3.1359,3.1141,3.0734,3.0755,3.064,3.0613,3.03,3.02,2.998,2.9254,2.8876,2.8571,2.8361,2.8105,2.8097,2.816,2.8203,2.8203,2.8203,2.8203,2.8176,2.8173,2.8058,2.8122,2.8109,2.8137,2.8187,2.8499,2.8666,2.8887,2.9149,2.9359,2.9586,3.0244,3.0869,3.1316,3.1131,3.1139,3.1023,3.0303,2.9655,2.9338,2.9017,2.8702,2.8053,2.7109,2.6402,2.5774,2.5428,2.5501,2.5727,2.5914,2.6187,2.6397,2.6568,2.6589,2.7014,2.736,2.7354,2.7522,2.7645,2.7867,2.7987,2.8103,2.8182,2.8472,2.8992,2.93,2.9513,3.0161,3.0973,3.0022,2.9913,2.9913,2.9913,2.9913,2.9913,3.0059,3.0272,3.0305,3.0448,3.0694,3.0872,3.0727,3.0328,3.0048,2.9913,2.9913,2.9958,3.0081,3.0515,3.1307,3.2111,3.3061,3.4424,3.5613,3.5911,3.6221,3.6394,3.6069,3.5704,3.5606,3.5628,3.5606,3.5465,3.493,3.5355,3.5235,3.482,3.4542,3.4075,3.3348,3.2667,3.2105,3.1618,3.1578,3.13,3.0943,3.0786,3.0786,3.0738,3.0415,3.0221,2.998,2.937,2.8803,2.8761,2.8413,2.8203,2.8192,2.8213,2.8203,2.8203,2.8203,2.8203,2.8203,2.8203,2.8203,2.8189,2.8189,2.8297,2.8476,2.8697,2.8926,2.9209,2.9663,2.983,3.0123,3.0755,3.1357,3.1797,3.2164,3.2099,3.2043,3.1645,3.0909,3.0317,2.974,2.9153,2.8054,2.6626,2.6013,2.5513,2.5276,2.5182,2.546,2.5713,2.6044,2.6371,2.6991,2.709,2.7467,2.7698,2.7612,2.7964,2.8431,2.8553,2.8537,2.8505,2.8499,2.8681,2.8894,2.9429,2.9994,3.0661,3.1378,2.9913,2.9913,2.9913,2.9913,2.9925,3.0014,3.0272,3.0582,3.0727,3.0973,3.1229,3.1271,3.1073,3.0783,3.0437,3.0294,3.0115,3.0316,3.0605,3.1193,3.2137,3.3172,3.4281,3.5645,3.6616,3.6773,3.694,3.7054,3.6805,3.6356,3.5813,3.5759,3.5661,3.5584,3.5595,3.5584,3.5486,3.5399,3.4634,3.4082,3.3627,3.3091,3.25,3.2061,3.1783,3.1534,3.1026,3.0826,3.0786,3.0724,3.0405,3.021,3.0075,2.9506,2.9076,2.896,2.8666,2.8413,2.8361,2.8294,2.821,2.8203,2.8203,2.8203,2.8203,2.8203,2.8203,2.8203,2.8347,2.8529,2.8761,2.8971,2.938,2.9788,3.0206,3.0373,3.0659,3.132,3.1854,3.2262,3.2613,3.285,3.2808,3.2788,3.2253,3.1434,3.0608,2.969,2.8259,2.6643,2.5931,2.554,2.5294,2.5249,2.5536,2.5776,2.602,2.6312,2.6924,2.7181,2.7303,2.7612,2.772,2.8263,2.8957,2.9093,2.8989,2.8894,2.8862,2.9293,2.9726,3.0119,3.0661,3.1331,3.1818,2.9913,2.9913,2.9913,2.9936,2.9947,3.037,3.056,3.0772,3.1093,3.1307,3.144,3.134,3.1337,3.1226,3.1162,3.0928,3.0616,3.1471,3.1804,3.2491,3.3634,3.4651,3.565,3.6692,3.767,3.7913,3.7763,3.7557,3.7334,3.6595,3.628,3.622,3.5813,3.5661,3.5606,3.5606,3.5606,3.541,3.4678,3.4229,3.3844,3.3308,3.2602,3.2247,3.1929,3.1626,3.1275,3.1001,3.0869,3.0859,3.0444,3.021,3.0106,2.9652,2.9359,2.9244,2.9002,2.8803,2.875,2.8487,2.8242,2.821,2.8245,2.8297,2.8318,2.8245,2.8224,2.8347,2.8631,2.8813,2.9118,2.9485,2.9966,3.0394,3.0811,3.1133,3.1434,3.19,3.2417,3.2773,3.2968,3.3066,3.3086,3.2953,3.2489,3.1662,3.0611,2.9661,2.8582,2.7156,2.6283,2.5732,2.5454,2.5471,2.5824,2.6008,2.6041,2.6282,2.6766,2.6772,2.6685,2.7069,2.7865,2.8434,2.9051,2.9251,2.968,3.0182,3.0474,3.0373,3.0551,3.0905,3.1443,3.2152,3.2484,2.9913,2.9936,3.0216,3.0339,3.0336,3.0515,3.0928,3.1443,3.1655,3.1929,3.2188,3.191,3.174,3.174,3.1715,3.1649,3.1549,3.2103,3.2708,3.3535,3.4588,3.5729,3.6758,3.7673,3.8505,3.8542,3.8222,3.8005,3.7922,3.6898,3.666,3.6432,3.5954,3.5693,3.5606,3.5606,3.5606,3.5355,3.4744,3.4218,3.4009,3.3297,3.2537,3.2002,3.2174,3.1798,3.1377,3.1191,3.1129,3.0951,3.0506,3.0323,3.021,2.9799,2.9617,2.9565,2.9324,2.9251,2.9156,2.8855,2.8592,2.8571,2.8582,2.8582,2.8592,2.8582,2.8761,2.8939,2.9093,2.9275,2.9715,3.0186,3.0655,3.104,3.1414,3.1787,3.2097,3.2484,3.2731,3.2958,3.2999,3.3025,3.3014,3.2983,3.2427,3.1767,3.0699,2.9662,2.8672,2.7751,2.6886,2.6083,2.5746,2.5569,2.5869,2.5954,2.5997,2.6369,2.6743,2.6974,2.7133,2.7471,2.8213,2.8729,2.9464,3.0137,3.0909,3.1807,3.1895,3.1322,3.1302,3.1575,3.223,3.2944,3.3156,2.9913,2.9981,3.0574,3.0727,3.0638,3.0884,3.1363,3.1943,3.2176,3.252,3.2984,3.273,3.2553,3.252,3.2638,3.2557,3.2723,3.3264,3.3935,3.4798,3.5816,3.6785,3.7692,3.8382,3.8846,3.8893,3.8514,3.8239,3.8157,3.7061,3.6681,3.6454,3.6052,3.5693,3.5606,3.5606,3.5606,3.5388,3.4755,3.4229,3.4075,3.329,3.258,3.2046,3.2086,3.1925,3.1494,3.125,3.1162,3.1055,3.0785,3.0434,3.028,3.0123,2.9921,2.9847,2.9764,2.9701,2.9586,2.9303,2.9044,2.9023,2.9023,2.9023,2.9023,2.9023,2.9156,2.9377,2.9565,2.9851,3.0273,3.0634,3.1029,3.1368,3.1994,3.2376,3.2448,3.2731,3.2906,3.3092,3.3112,3.3133,3.2742,3.2649,3.2185,3.1657,3.0994,3.0056,2.9192,2.8304,2.7517,2.6745,2.6101,2.5944,2.586,2.6039,2.6305,2.6912,2.7326,2.7926,2.82,2.8511,2.8929,2.967,3.0446,3.1225,3.1949,3.2658,3.2425,3.1901,3.2242,3.2786,3.2887,3.3524,3.3754,2.9958,3.0025,3.0962,3.1106,3.0928,3.1621,3.2043,3.2287,3.2642,3.3084,3.3503,3.3778,3.3734,3.3558,3.3723,3.3723,3.38,3.4722,3.5443,3.585,3.6938,3.789,3.834,3.8746,3.9128,3.9207,3.8709,3.8222,3.8128,3.717,3.6708,3.6334,3.5911,3.5606,3.5606,3.5606,3.5606,3.5475,3.4667,3.436,3.4009,3.3326,3.273,3.2277,3.2141,3.1999,3.1754,3.1421,3.1333,3.1287,3.1018,3.0748,3.0644,3.0644,3.0588,3.0599,3.0332,3.0196,3.0133,2.9722,2.9565,2.9506,2.9495,2.9485,2.9492,2.9502,2.9607,2.9901,3.0068,3.0235,3.0555,3.0988,3.1445,3.1844,3.2469,3.2829,3.2917,3.2979,3.3164,3.3277,3.3349,3.3303,3.2716,3.2256,3.1853,3.1423,3.1061,3.0415,2.9607,2.8915,2.8158,2.7461,2.6785,2.6689,2.6604,2.6403,2.6634,2.7283,2.8063,2.8835,2.9372,2.9702,3.0188,3.0746,3.1316,3.1989,3.2687,3.3385,3.315,3.3075,3.3687,3.4119,3.4111,3.4134,3.4425,3.1182,3.1826,3.2483,3.2675,3.2586,3.2852,3.3161,3.3459,3.3657,3.3811,3.3965,3.4174,3.4141,3.413,3.4404,3.4568,3.47,3.5454,3.6128,3.6665,3.7779,3.8474,3.8905,3.9127,3.9344,3.9233,3.8678,3.8011,3.7777,3.7039,3.6578,3.6199,3.5954,3.5639,3.5606,3.5606,3.5606,3.5508,3.4984,3.4525,3.4174,3.3565,3.2936,3.2353,3.2335,3.2277,3.209,3.1739,3.1666,3.1593,3.1304,3.102,3.0859,3.0826,3.0786,3.0786,3.0603,3.0624,3.0592,3.038,3.0227,3.0085,2.9984,2.9988,2.997,2.9956,3.0192,3.0575,3.0857,3.1106,3.1494,3.1991,3.2391,3.25,3.2922,3.3179,3.3318,3.3359,3.3451,3.3526,3.3572,3.3583,3.3208,3.2363,3.183,3.145,3.1112,3.0726,3.0018,2.9516,2.8862,2.821,2.7643,2.7559,2.746,2.7569,2.8045,2.8888,2.9517,3.0135,3.0575,3.0981,3.1391,3.193,3.2322,3.2724,3.3343,3.3908,3.4182,3.4419,3.4694,3.4832,3.4712,3.488,3.5276,3.2137,3.2767,3.3455,3.3734,3.3745,3.3734,3.3932,3.4196,3.436,3.4437,3.4481,3.4601,3.47,3.4787,3.4973,3.5301,3.5459,3.6295,3.6976,3.7493,3.8409,3.9008,3.9359,3.947,3.9326,3.9113,3.8461,3.7769,3.7318,3.6823,3.6693,3.6627,3.6165,3.6176,3.61,3.6023,3.5606,3.5465,3.5083,3.4623,3.4207,3.3678,3.3112,3.2591,3.2408,3.2467,3.2317,3.22,3.2097,3.1841,3.1553,3.1206,3.1001,3.0869,3.0815,3.0786,3.0786,3.0786,3.0755,3.0905,3.075,3.0628,3.0578,3.0567,3.0621,3.0722,3.1142,3.1503,3.1764,3.2049,3.2376,3.2886,3.3146,3.3255,3.3452,3.3706,3.3662,3.3709,3.364,3.3693,3.3743,3.3735,3.3502,3.269,3.1895,3.1549,3.1198,3.0803,3.0458,3.0048,2.9653,2.9106,2.8662,2.8595,2.8756,2.9056,2.9647,3.0492,3.0964,3.1363,3.2034,3.2467,3.2805,3.3053,3.3326,3.3625,3.4008,3.4382,3.4509,3.4758,3.5061,3.5172,3.5222,3.5638,3.6123,3.2753,3.2929,3.3829,3.4261,3.425,3.4294,3.4305,3.4327,3.4733,3.4919,3.494,3.5334,3.5465,3.5573,3.5617,3.5857,3.6334,3.7113,3.7616,3.8315,3.914,3.9514,3.9596,3.9556,3.9457,3.8842,3.8203,3.7735,3.7008,3.7085,3.726,3.7255,3.6731,3.672,3.6648,3.6284,3.5801,3.5639,3.5301,3.4745,3.4148,3.3742,3.311,3.2601,3.235,3.235,3.2233,3.2112,3.2057,3.1871,3.1622,3.1388,3.1158,3.0957,3.0844,3.0786,3.0786,3.0786,3.083,3.1034,3.1191,3.1111,3.1337,3.1333,3.1331,3.1462,3.1871,3.2244,3.2519,3.2845,3.3184,3.352,3.3839,3.3997,3.4155,3.4171,3.4043,3.3953,3.3836,3.3837,3.3881,3.3756,3.3311,3.2611,3.1973,3.1561,3.1227,3.0974,3.0704,3.0717,3.0373,3.018,2.9824,2.9702,2.9902,3.019,3.0723,3.14,3.197,3.2447,3.3183,3.3601,3.3566,3.3704,3.4166,3.4445,3.4419,3.4519,3.4662,3.4954,3.5305,3.5689,3.5817,3.6479,3.6919,3.384,3.4772,3.5072,3.5203,3.5192,3.5181,3.5192,3.5235,3.5355,3.5399,3.541,3.5541,3.5791,3.6085,3.6123,3.6389,3.6943,3.7538,3.7933,3.8648,3.9471,3.9786,3.9887,3.9808,3.9736,3.9291,3.8643,3.8016,3.808,3.7953,3.7777,3.7799,3.7282,3.7184,3.6889,3.6415,3.616,3.5922,3.5578,3.4869,3.4184,3.3794,3.3151,3.2648,3.2357,3.2346,3.2302,3.2229,3.2072,3.1607,3.1461,3.1242,3.0938,3.084,3.0786,3.0786,3.0786,3.0801,3.0844,3.1114,3.1365,3.1618,3.1999,3.207,3.1997,3.213,3.2562,3.2948,3.3299,3.362,3.3908,3.4214,3.4401,3.4508,3.4599,3.4535,3.4387,3.4228,3.4128,3.4165,3.4203,3.3787,3.3297,3.2619,3.202,3.1589,3.126,3.1045,3.0911,3.091,3.0831,3.0646,3.0729,3.0514,3.0816,3.11,3.168,3.2274,3.2796,3.3223,3.3624,3.3908,3.4018,3.4123,3.4255,3.4371,3.4477,3.453,3.4465,3.5083,3.5476,3.5982,3.6496,3.7059,3.751,3.4831,3.5563,3.5606,3.5606,3.5639,3.578,3.5867,3.5857,3.5672,3.5672,3.5867,3.5889,3.603,3.6269,3.6486,3.6822,3.7282,3.7838,3.8341,3.9008,3.9589,3.9849,4.0013,3.9991,3.9731,3.9365,3.894,3.8378,3.8546,3.8413,3.8191,3.859,3.7892,3.7463,3.7124,3.6578,3.615,3.6036,3.5754,3.5066,3.4474,3.3957,3.3411,3.2853,3.2602,3.246,3.2434,3.239,3.2043,3.1651,3.1563,3.1242,3.0982,3.0899,3.0938,3.0953,3.1016,3.1129,3.1285,3.1553,3.1762,3.2058,3.2608,3.2807,3.3001,3.3157,3.3486,3.3818,3.4111,3.4389,3.4652,3.4877,3.491,3.4943,3.4911,3.4864,3.4705,3.4535,3.4525,3.4567,3.4328,3.3935,3.337,3.2671,3.1983,3.144,3.1202,3.1202,3.1045,3.0993,3.0923,3.0772,3.1078,3.1256,3.1562,3.1815,3.235,3.286,3.3465,3.386,3.4123,3.4192,3.425,3.4186,3.4096,3.426,3.4445,3.4196,3.4193,3.4903,3.56,3.6028,3.6585,3.7251,3.7643,3.553,3.5606,3.5606,3.5639,3.5715,3.6085,3.634,3.6313,3.5911,3.5878,3.6231,3.6269,3.6307,3.6508,3.6827,3.7336,3.7761,3.8242,3.8796,3.9488,3.9774,4.0019,4.0116,4.0053,3.9935,3.9305,3.8924,3.893,3.8524,3.8619,3.9035,3.9376,3.8109,3.75,3.7425,3.648,3.6025,3.5987,3.5743,3.5233,3.475,3.4318,3.3889,3.3327,3.2903,3.258,3.2566,3.2449,3.2247,3.2017,3.1783,3.1377,3.126,3.1133,3.1183,3.1242,3.1319,3.1542,3.1801,3.2112,3.2527,3.28,3.3078,3.3511,3.3842,3.3838,3.4049,3.4399,3.468,3.4925,3.5173,3.5254,3.5282,3.5309,3.5282,3.5219,3.5097,3.4857,3.467,3.459,3.4177,3.3798,3.342,3.2718,3.2043,3.1358,3.1001,3.1114,3.1259,3.116,3.1175,3.1087,3.1423,3.1745,3.1811,3.2157,3.2817,3.3414,3.3944,3.4229,3.4313,3.4387,3.4467,3.4361,3.425,3.4292,3.435,3.4138,3.4276,3.5082,3.5688,3.6046,3.6649,3.7412,3.7699,3.5268,3.5584,3.5606,3.5791,3.6107,3.6248,3.6703,3.7194,3.6454,3.6183,3.6296,3.6324,3.6519,3.686,3.732,3.7852,3.8448,3.8655,3.9184,3.9632,3.9968,4.0156,4.0367,4.0367,4.0248,4.0157,3.9896,3.9619,3.9491,3.9654,3.9626,3.9317,3.8357,3.7964,3.725,3.6251,3.5992,3.5867,3.5704,3.5273,3.4714,3.3891,3.3213,3.2757,3.2307,3.2097,3.2079,3.2068,3.194,3.1827,3.1772,3.1695,3.1666,3.1589,3.1593,3.1666,3.1723,3.1983,3.2324,3.2705,3.3115,3.3607,3.394,3.4375,3.457,3.441,3.4492,3.4864,3.517,3.5399,3.5563,3.5584,3.5606,3.5606,3.5595,3.5516,3.5415,3.5113,3.4811,3.4434,3.4023,3.3663,3.3324,3.2858,3.2129,3.1545,3.1045,3.0993,3.1376,3.1477,3.1705,3.1715,3.1899,3.2131,3.2153,3.2496,3.3161,3.3558,3.4018,3.4261,3.4472,3.4483,3.4483,3.4483,3.4451,3.4467,3.4403,3.4191,3.4493,3.5344,3.5723,3.6064,3.6868,3.7668,3.7769,3.5355,3.5606,3.5824,3.6041,3.6334,3.6714,3.7065,3.7205,3.6822,3.6616,3.6616,3.6649,3.6849,3.7341,3.7891,3.8285,3.8879,3.9094,3.9472,3.9848,4.0047,4.0264,4.0446,4.0595,4.0549,4.0498,4.0395,4.027,4.0275,4.0133,3.9857,3.9256,3.8669,3.781,3.681,3.6316,3.591,3.5617,3.5622,3.5343,3.4834,3.4258,3.3738,3.3183,3.2728,3.2375,3.2104,3.2163,3.2179,3.2299,3.2419,3.2244,3.2207,3.2092,3.206,3.2109,3.2248,3.2508,3.2913,3.3319,3.3727,3.4239,3.43,3.4523,3.508,3.4945,3.4898,3.5218,3.5351,3.5573,3.5584,3.5606,3.5606,3.5606,3.5552,3.5487,3.5176,3.4805,3.4565,3.4324,3.4,3.3777,3.3564,3.3674,3.296,3.2272,3.1705,3.1804,3.2008,3.2015,3.2191,3.2382,3.2589,3.248,3.2364,3.2823,3.3499,3.3859,3.4166,3.434,3.4573,3.4514,3.4483,3.4578,3.4625,3.461,3.4498,3.4419,3.4931,3.58,3.599,3.6081,3.7005,3.7869,3.7927,3.5639,3.5748,3.6134,3.6334,3.6486,3.7173,3.7324,3.7032,3.6914,3.6968,3.7032,3.7,3.7259,3.7775,3.84,3.8694,3.8935,3.9094,3.9517,3.9899,4.0013,4.0264,4.0464,4.0595,4.0595,4.0595,4.0543,4.0526,4.0526,4.0333,3.9903,3.9155,3.8269,3.7353,3.6706,3.6183,3.5786,3.5664,3.5632,3.5643,3.5399,3.5123,3.4529,3.4113,3.3738,3.3292,3.2914,3.277,3.2774,3.2987,3.3209,3.2998,3.2867,3.2767,3.2673,3.2716,3.2971,3.3313,3.3693,3.4034,3.4478,3.4771,3.4554,3.4733,3.5333,3.5441,3.5382,3.5425,3.5558,3.56,3.5622,3.5584,3.5584,3.553,3.5454,3.5345,3.4931,3.4506,3.4298,3.4132,3.3986,3.3772,3.3828,3.3986,3.3694,3.3025,3.2866,3.309,3.3185,3.304,3.3028,3.319,3.3363,3.3147,3.2834,3.3269,3.3987,3.429,3.4577,3.462,3.4684,3.4843,3.4874,3.4768,3.48,3.4906,3.4938,3.4896,3.5557,3.6257,3.6404,3.6566,3.7333,3.8036,3.8077,3.5824,3.6183,3.6275,3.6508,3.687,3.7054,3.7076,3.6946,3.6627,3.6789,3.7259,3.7162,3.7227,3.7636,3.8149,3.8593,3.9014,3.9162,3.95,3.9899,4.0053,4.0298,4.0481,4.0595,4.0595,4.0595,4.0595,4.0595,4.0561,4.0424,3.9853,3.8806,3.8655,3.7673,3.641,3.6098,3.6109,3.5902,3.5796,3.5844,3.5439,3.5057,3.4572,3.4113,3.3653,3.3503,3.3412,3.3462,3.3653,3.3862,3.3964,3.3772,3.3607,3.3559,3.3515,3.3373,3.3645,3.4019,3.4378,3.4623,3.5006,3.529,3.516,3.5219,3.5568,3.5589,3.5573,3.5589,3.5664,3.5648,3.5632,3.5535,3.5486,3.5334,3.5225,3.5017,3.4714,3.4224,3.3854,3.3851,3.3871,3.3748,3.37,3.3871,3.4008,3.3528,3.3423,3.362,3.3849,3.3849,3.3855,3.3998,3.4142,3.3994,3.378,3.3947,3.4471,3.4765,3.4984,3.5075,3.5198,3.5362,3.5362,3.5171,3.5235,3.5373,3.5385,3.5403,3.5999,3.6622,3.684,3.7168,3.7836,3.8169,3.8193]}]]